[[{"header":{"parameterUnit":"m.s-1","parameterCategory":1,"la1":30.6,"la2":29.2853,"lo1":-89.7004,"lo2":-87.6739,"dy":0.0162,"dx":0.0183,"nx":112,"ny":82,"refTime":"2024-05-17T06:00:00:Z","depth":0,"parameterNumber":2,"parameterNumberName":"U-component_of_WINDS"},"data":[0.0,0.0,0.0,0.0,0.0,0.0,0.0,0.0,0.0,0.0,0.0,0.0,0.0,0.0,0.0,0.0,0.0,0.0,0.0,0.0,0.0,0.0,0.0,0.0,0.0,0.0,0.0,0.0,0.0,0.0,0.0,0.0,0.0,0.0,0.0,0.0,0.0,0.0,0.0,0.0,0.0,0.0,0.0,0.0,0.0,0.0,0.0,0.0,0.0,0.0,0.0,0.0,0.0,0.0,0.0,0.0,0.0,0.0,0.0,0.0,0.0,0.0,0.0,0.0,0.0,0.0,0.0,0.0,0.0,0.0,0.0,0.0,0.0,0.0,0.0,0.0,0.0,0.0,0.0,0.0,0.0,0.0,0.0,0.0,0.0,0.0,0.0,0.0,0.0,0.0,-1.4107,-1.4991,-1.6624,-1.732,-1.6599,-1.5846,-1.4853,-1.3586,0.0,0.0,0.0,0.0,0.0,0.0,0.0,0.0,0.0,0.0,0.0,0.0,0.0,0.0,0.0,0.0,0.0,0.0,0.0,0.0,0.0,0.0,0.0,0.0,0.0,0.0,0.0,0.0,0.0,0.0,0.0,0.0,0.0,0.0,0.0,0.0,0.0,0.0,0.0,0.0,0.0,0.0,0.0,0.0,0.0,0.0,0.0,0.0,0.0,0.0,0.0,0.0,0.0,0.0,0.0,0.0,0.0,0.0,0.0,0.0,0.0,0.0,0.0,0.0,0.0,0.0,0.0,0.0,0.0,0.0,0.0,0.0,0.0,0.0,0.0,0.0,0.0,0.0,0.0,0.0,0.0,0.0,0.0,0.0,0.0,0.0,0.0,0.0,0.0,0.0,0.0,0.0,0.0,0.0,0.0,0.0,0.0,0.0,0.0,0.0,0.0,0.0,0.0,0.0,-1.398,-1.6188,-1.7226,-1.7585,-1.7109,-1.5787,-1.4563,-1.3567,0.0,0.0,0.0,0.0,0.0,0.0,0.0,0.0,0.0,0.0,0.0,0.0,0.0,0.0,0.0,0.0,0.0,0.0,0.0,0.0,0.0,0.0,0.0,0.0,0.0,0.0,0.0,0.0,0.0,0.0,0.0,0.0,0.0,0.0,0.0,0.0,0.0,0.0,0.0,0.0,0.0,0.0,0.0,0.0,0.0,0.0,0.0,0.0,0.0,0.0,0.0,0.0,0.0,0.0,0.0,0.0,0.0,0.0,0.0,0.0,0.0,0.0,0.0,0.0,0.0,0.0,0.0,0.0,0.0,0.0,0.0,0.0,0.0,0.0,0.0,0.0,0.0,0.0,0.0,0.0,0.0,0.0,0.0,0.0,0.0,0.0,0.0,0.0,0.0,0.0,0.0,0.0,0.0,0.0,0.0,0.0,0.0,0.0,0.0,0.0,0.0,0.0,0.0,-1.3797,-1.4794,-1.6976,-1.7779,-1.7996,-1.7557,-1.614,-1.4993,-1.4299,-1.2257,0.0,0.0,0.0,0.0,0.0,0.0,0.0,0.0,0.0,0.0,0.0,0.0,0.0,0.0,0.0,0.0,0.0,0.0,0.0,0.0,0.0,0.0,0.0,0.0,0.0,0.0,0.0,0.0,0.0,0.0,0.0,0.0,0.0,0.0,0.0,0.0,0.0,0.0,0.0,0.0,0.0,0.0,0.0,0.0,0.0,0.0,0.0,0.0,0.0,0.0,0.0,0.0,0.0,0.0,0.0,0.0,0.0,0.0,0.0,0.0,0.0,0.0,0.0,0.0,0.0,0.0,0.0,0.0,0.0,0.0,0.0,0.0,0.0,0.0,0.0,0.0,0.0,0.0,0.0,0.0,0.0,0.0,0.0,0.0,0.0,0.0,0.0,0.0,0.0,0.0,0.0,0.0,0.0,0.0,0.0,0.0,0.0,0.0,0.0,0.0,0.0,0.0,-1.4878,-1.5792,-1.7225,-1.8035,-1.8307,-1.7841,-1.652,-1.5472,-1.4942,-1.2089,0.0,0.0,0.0,0.0,0.0,0.0,0.0,0.0,0.0,0.0,0.0,0.0,0.0,0.0,0.0,0.0,0.0,0.0,0.0,0.0,0.0,0.0,0.0,0.0,0.0,0.0,0.0,0.0,0.0,0.0,0.0,0.0,0.0,0.0,0.0,0.0,0.0,0.0,0.0,0.0,0.0,0.0,0.0,0.0,0.0,0.0,0.0,0.0,0.0,0.0,0.0,0.0,0.0,0.0,0.0,0.0,0.0,0.0,0.0,0.0,0.0,0.0,0.0,0.0,0.0,0.0,0.0,0.0,0.0,0.0,0.0,0.0,0.0,0.0,0.0,0.0,0.0,0.0,0.0,0.0,0.0,0.0,0.0,0.0,0.0,0.0,0.0,0.0,0.0,0.0,0.0,0.0,0.0,0.0,0.0,0.0,0.0,0.0,0.0,0.0,0.0,0.0,-1.5147,-1.6624,-1.6751,-1.7815,-1.8307,-1.7841,-1.6723,-1.5726,-1.4961,-1.2304,0.0,0.0,0.0,0.0,0.0,0.0,0.0,0.0,0.0,0.0,0.0,0.0,0.0,0.0,0.0,0.0,0.0,0.0,0.0,0.0,0.0,0.0,0.0,0.0,0.0,0.0,0.0,0.0,0.0,0.0,0.0,0.0,0.0,0.0,0.0,0.0,0.0,0.0,0.0,0.0,0.0,0.0,0.0,0.0,0.0,0.0,0.0,0.0,0.0,0.0,0.0,0.0,0.0,0.0,0.0,0.0,0.0,0.0,0.0,0.0,0.0,0.0,0.0,0.0,0.0,0.0,0.0,0.0,0.0,0.0,0.0,0.0,0.0,0.0,0.0,0.0,0.0,0.0,0.0,0.0,0.0,0.0,0.0,0.0,0.0,0.0,0.0,0.0,0.0,0.0,0.0,0.0,0.0,0.0,0.0,0.0,0.0,0.0,0.0,0.0,0.0,0.0,-1.5272,-1.6382,-1.7169,-1.8012,-1.8439,-1.8254,-1.6742,-1.5652,-1.5359,0.0,0.0,0.0,0.0,0.0,0.0,0.0,0.0,0.0,0.0,0.0,0.0,0.0,0.0,0.0,0.0,0.0,0.0,0.0,0.0,0.0,0.0,0.0,0.0,0.0,0.0,0.0,0.0,0.0,0.0,0.0,0.0,0.0,0.0,0.0,0.0,0.0,0.0,0.0,0.0,0.0,0.0,0.0,0.0,0.0,0.0,0.0,0.0,0.0,0.0,0.0,0.0,0.0,0.0,0.0,0.0,0.0,0.0,0.0,0.0,0.0,0.0,0.0,0.0,0.0,0.0,0.0,0.0,0.0,0.0,0.0,0.0,0.0,0.0,0.0,0.0,0.0,0.0,0.0,0.0,0.0,0.0,0.0,0.0,0.0,0.0,0.0,0.0,0.0,0.0,0.0,0.0,0.0,0.0,0.0,0.0,0.0,0.0,0.0,0.0,0.0,0.0,-1.4583,-1.5677,-1.6631,-1.7506,-1.8133,-1.8414,-1.8217,-1.6834,-1.5694,-1.5105,0.0,0.0,0.0,0.0,0.0,0.0,0.0,0.0,0.0,0.0,0.0,0.0,0.0,0.0,0.0,0.0,0.0,0.0,0.0,0.0,0.0,0.0,0.0,0.0,0.0,0.0,0.0,0.0,0.0,0.0,0.0,0.0,0.0,0.0,0.0,0.0,0.0,0.0,0.0,0.0,0.0,0.0,0.0,0.0,0.0,0.0,0.0,0.0,0.0,0.0,0.0,0.0,0.0,0.0,0.0,0.0,0.0,0.0,0.0,0.0,0.0,0.0,0.0,0.0,0.0,0.0,0.0,0.0,0.0,0.0,0.0,0.0,0.0,0.0,0.0,0.0,0.0,0.0,0.0,0.0,0.0,0.0,0.0,0.0,0.0,0.0,0.0,0.0,0.0,0.0,0.0,0.0,0.0,0.0,0.0,0.0,0.0,0.0,0.0,0.0,0.0,0.0,-1.4668,-1.6438,-1.7604,-1.7618,-1.8133,-1.8259,-1.7646,-1.7042,-1.5889,0.0,0.0,0.0,0.0,0.0,0.0,0.0,0.0,0.0,0.0,0.0,0.0,0.0,0.0,0.0,0.0,0.0,0.0,0.0,0.0,0.0,0.0,0.0,0.0,0.0,0.0,0.0,0.0,0.0,0.0,0.0,0.0,0.0,0.0,0.0,0.0,0.0,0.0,0.0,0.0,0.0,0.0,0.0,0.0,0.0,0.0,0.0,0.0,0.0,0.0,0.0,0.0,0.0,0.0,0.0,0.0,0.0,0.0,0.0,0.0,0.0,0.0,0.0,0.0,0.0,0.0,0.0,0.0,0.0,0.0,0.0,0.0,0.0,0.0,0.0,0.0,0.0,0.0,0.0,0.0,0.0,0.0,0.0,0.0,0.0,0.0,0.0,0.0,0.0,0.0,0.0,0.0,0.0,0.0,0.0,0.0,0.0,0.0,0.0,0.0,0.0,0.0,0.0,-1.5822,-1.6621,-1.7281,-1.8133,-1.8386,-1.8259,-1.7646,-1.6798,-1.5597,-1.4013,0.0,0.0,0.0,0.0,0.0,0.0,0.0,0.0,0.0,0.0,0.0,0.0,0.0,0.0,0.0,0.0,0.0,0.0,0.0,0.0,0.0,0.0,0.0,0.0,0.0,0.0,0.0,0.0,0.0,0.0,0.0,0.0,0.0,0.0,0.0,0.0,0.0,0.0,0.0,0.0,0.0,0.0,0.0,0.0,0.0,0.0,0.0,0.0,0.0,0.0,0.0,0.0,0.0,0.0,0.0,0.0,0.0,0.0,0.0,0.0,0.0,0.0,0.0,0.0,0.0,0.0,0.0,0.0,0.0,0.0,0.0,0.0,0.0,0.0,0.0,0.0,0.0,0.0,0.0,0.0,0.0,0.0,0.0,0.0,0.0,0.0,0.0,0.0,0.0,0.0,0.0,0.0,0.0,0.0,0.0,0.0,0.0,0.0,0.0,0.0,0.0,0.0,-1.6451,-1.717,-1.7702,-1.8414,-1.8498,-1.8147,-1.7309,-1.6695,-1.5606,-1.3856,0.0,0.0,0.0,0.0,0.0,0.0,0.0,0.0,0.0,0.0,0.0,0.0,0.0,0.0,0.0,0.0,0.0,0.0,0.0,0.0,0.0,0.0,0.0,0.0,0.0,0.0,0.0,0.0,0.0,0.0,0.0,0.0,0.0,0.0,0.0,0.0,0.0,0.0,0.0,0.0,0.0,0.0,0.0,0.0,0.0,0.0,0.0,0.0,0.0,0.0,0.0,0.0,0.0,0.0,0.0,0.0,0.0,0.0,0.0,0.0,0.0,0.0,0.0,0.0,0.0,0.0,0.0,0.0,0.0,0.0,0.0,0.0,0.0,0.0,0.0,0.0,0.0,0.0,0.0,0.0,0.0,0.0,0.0,0.0,0.0,0.0,0.0,0.0,0.0,0.0,0.0,0.0,0.0,0.0,0.0,0.0,0.0,0.0,0.0,0.0,0.0,0.0,-1.6615,-1.7818,-1.8442,-1.8484,-1.8498,-1.804,-1.6891,-1.6737,-1.5817,-1.3715,0.0,0.0,0.0,0.0,0.0,0.0,0.0,0.0,0.0,0.0,0.0,0.0,0.0,0.0,0.0,0.0,0.0,0.0,0.0,0.0,0.0,0.0,0.0,0.0,0.0,0.0,0.0,0.0,0.0,0.0,0.0,0.0,0.0,0.0,0.0,0.0,0.0,0.0,0.0,0.0,0.0,0.0,0.0,0.0,0.0,0.0,0.0,0.0,0.0,0.0,0.0,0.0,0.0,0.0,0.0,0.0,0.0,0.0,0.0,0.0,-1.5362,-1.4387,0.0,0.0,0.0,0.0,0.0,0.0,0.0,0.0,0.0,0.0,0.0,0.0,0.0,0.0,0.0,0.0,0.0,0.0,0.0,0.0,0.0,0.0,0.0,0.0,0.0,0.0,0.0,0.0,0.0,0.0,0.0,0.0,0.0,0.0,0.0,0.0,0.0,0.0,0.0,0.0,-1.64,-1.7374,-1.7983,-1.8442,-1.8498,-1.8189,-1.7464,-1.6958,-1.5985,-1.4303,-1.2537,0.0,0.0,0.0,0.0,0.0,0.0,0.0,0.0,0.0,0.0,0.0,0.0,0.0,0.0,0.0,0.0,0.0,0.0,0.0,0.0,0.0,0.0,0.0,0.0,0.0,0.0,0.0,0.0,0.0,0.0,0.0,0.0,0.0,0.0,0.0,0.0,0.0,0.0,0.0,0.0,0.0,0.0,0.0,0.0,0.0,0.0,0.0,0.0,0.0,0.0,0.0,0.0,0.0,0.0,0.0,0.0,0.0,0.0,0.0,-1.6881,-1.606,0.0,0.0,0.0,0.0,0.0,0.0,0.0,0.0,0.0,0.0,0.0,0.0,0.0,0.0,0.0,0.0,0.0,0.0,0.0,0.0,0.0,0.0,0.0,0.0,0.0,0.0,0.0,0.0,0.0,0.0,0.0,0.0,0.0,0.0,0.0,0.0,0.0,0.0,0.0,0.0,-1.6668,-1.7369,-1.7829,-1.8442,-1.8498,-1.8226,-1.753,-1.6888,-1.6083,-1.4958,-1.3298,0.0,0.0,0.0,0.0,0.0,0.0,0.0,0.0,0.0,0.0,0.0,0.0,0.0,0.0,0.0,0.0,0.0,0.0,0.0,0.0,0.0,0.0,0.0,0.0,0.0,0.0,0.0,0.0,0.0,0.0,0.0,0.0,0.0,0.0,0.0,0.0,0.0,0.0,0.0,0.0,0.0,0.0,0.0,0.0,0.0,0.0,0.0,0.0,0.0,0.0,0.0,0.0,0.0,-1.9816,-1.9835,-1.9519,-1.9665,-1.9641,-1.9452,-1.8895,-1.827,-1.7604,-1.6993,0.0,0.0,0.0,0.0,0.0,0.0,0.0,0.0,0.0,0.0,0.0,0.0,0.0,0.0,0.0,0.0,0.0,0.0,0.0,0.0,0.0,0.0,-1.6994,-1.8037,-1.8285,-1.7652,-1.5391,0.0,0.0,0.0,0.0,0.0,0.0,0.0,0.0,0.0,0.0,0.0,-1.7009,-1.7673,-1.8068,-1.8461,-1.8517,-1.8229,-1.7517,-1.678,-1.6113,-1.5548,-1.4049,-1.2996,0.0,0.0,0.0,0.0,0.0,0.0,0.0,0.0,0.0,0.0,0.0,0.0,0.0,0.0,0.0,0.0,0.0,0.0,0.0,0.0,0.0,0.0,0.0,0.0,0.0,0.0,0.0,0.0,0.0,0.0,0.0,0.0,-1.5444,-1.5463,0.0,0.0,0.0,0.0,0.0,0.0,0.0,0.0,0.0,0.0,0.0,0.0,0.0,-2.0108,-1.9305,-2.0739,-2.1027,-2.0181,-2.2231,-2.2483,-2.1206,-2.1912,-2.22,-2.218,-2.2082,0.0,-1.8601,-1.8512,0.0,0.0,0.0,0.0,0.0,0.0,0.0,0.0,0.0,0.0,0.0,0.0,0.0,0.0,0.0,0.0,0.0,0.0,0.0,0.0,0.0,0.0,-1.877,-1.8658,-1.8631,-1.8464,-1.7807,-1.6824,-1.5824,-1.4962,-1.3529,-1.2354,0.0,0.0,0.0,0.0,0.0,0.0,-1.691,-1.8281,-1.8991,-1.8542,-1.8548,-1.8447,-1.8098,-1.6884,-1.6095,-1.6009,-1.4227,-1.3118,-1.2929,-1.1722,0.0,0.0,0.0,0.0,0.0,0.0,0.0,0.0,0.0,0.0,0.0,0.0,0.0,0.0,0.0,0.0,0.0,0.0,0.0,0.0,0.0,0.0,0.0,0.0,0.0,0.0,0.0,0.0,0.0,-1.5864,-1.6384,-1.6533,-1.6941,-1.7101,0.0,0.0,0.0,0.0,0.0,0.0,0.0,0.0,0.0,-2.0628,-2.1787,-2.2603,-2.3045,-2.4122,-2.4441,-2.4008,-2.4481,-2.4338,-2.368,-2.3432,-2.3324,-2.3324,-2.3324,-2.2679,-2.1589,-2.1154,-2.03,-1.9214,0.0,0.0,0.0,0.0,-1.8415,-1.8815,-1.9746,-1.9596,-1.9013,-1.9168,0.0,0.0,0.0,0.0,0.0,0.0,0.0,-1.7975,-1.8345,-1.8989,-1.96,-1.983,-1.9735,-1.9558,-1.941,-1.8623,-1.7622,-1.6531,-1.5889,-1.5047,-1.3575,-1.3375,0.0,0.0,0.0,-1.6278,-1.776,-1.8408,-1.8672,-1.8505,-1.8533,-1.8338,-1.7855,-1.6642,-1.5918,-1.5882,-1.4476,-1.3611,-1.356,-1.2707,-1.2082,0.0,0.0,0.0,0.0,0.0,0.0,0.0,0.0,0.0,0.0,0.0,0.0,0.0,0.0,0.0,0.0,0.0,0.0,0.0,0.0,0.0,0.0,0.0,0.0,0.0,0.0,0.0,0.0,-1.6676,-1.733,-1.7536,-1.841,-1.8746,0.0,0.0,0.0,0.0,0.0,0.0,-2.0902,-2.1567,-2.2342,-2.3276,-2.4499,-2.5573,-2.6454,-2.7232,-2.7597,-2.7531,-2.6712,-2.6334,-2.6287,-2.5419,-2.4918,-2.4719,-2.4719,-2.4592,-2.432,-2.3169,-2.1993,-2.0898,-2.0699,-2.0246,-1.9758,-2.0143,-2.0416,-2.0766,-2.2057,-2.2282,-2.1975,-2.1879,-2.1413,-2.064,-1.9338,0.0,0.0,0.0,0.0,-1.9873,-2.037,-2.075,-2.1068,-2.1279,-2.1064,-2.0713,-2.0438,-1.9886,-1.908,-1.7915,-1.7777,-1.7272,-1.548,-1.5419,0.0,-1.5878,-1.6274,-1.7043,-1.8474,-1.8675,-1.8633,-1.8516,-1.8519,-1.8246,-1.7557,-1.6558,-1.587,-1.5668,-1.4712,-1.4093,-1.3947,-1.3565,-1.3258,-1.3057,0.0,0.0,0.0,0.0,0.0,0.0,0.0,0.0,0.0,0.0,0.0,0.0,0.0,0.0,0.0,0.0,0.0,0.0,0.0,0.0,0.0,0.0,0.0,0.0,0.0,0.0,0.0,0.0,0.0,-1.8242,-1.9807,0.0,0.0,0.0,0.0,-2.1103,-2.1882,-2.2669,-2.3474,-2.5808,-2.6788,-2.602,-2.8381,-2.9217,-2.8291,-2.9137,-2.9458,-2.9273,-2.8956,-2.8823,-2.8823,-2.85,-2.7948,-2.7224,-2.7224,-2.6801,-2.5914,-2.3622,-2.2644,-2.25,-2.1739,-2.1414,-2.134,-2.1119,-2.1529,-2.216,-2.2,-2.2423,-2.3102,-2.3534,-2.3471,-2.3071,-2.2296,-2.2076,0.0,0.0,-2.2057,-2.3158,-2.3209,-2.3735,-2.403,-2.3035,-2.2443,-2.1823,-2.0789,-2.0156,-1.9612,-1.9104,-1.8006,-1.7288,-1.7729,0.0,-1.7061,-1.7743,-1.8411,-1.8765,-1.855,-1.9326,-1.9536,-1.8597,-1.8572,-1.8305,-1.7557,-1.6817,-1.612,-1.5545,-1.4917,-1.4341,-1.3817,-1.3778,-1.3507,-1.293,-1.1622,0.0,0.0,0.0,0.0,0.0,0.0,0.0,0.0,0.0,0.0,0.0,0.0,0.0,0.0,0.0,0.0,0.0,0.0,0.0,0.0,0.0,0.0,0.0,0.0,0.0,0.0,0.0,0.0,-2.1626,-2.2729,0.0,-2.3164,-2.3196,-2.3569,-2.4385,-2.4726,-2.5472,-2.6835,-2.779,-2.8624,-2.9393,-3.0303,-3.0846,-3.0983,-3.1286,-3.141,-3.1327,-3.0582,-3.0221,-3.0192,-2.9266,-2.8692,-2.8406,-2.8252,-2.7713,-2.6916,-2.6065,-2.5414,-2.4979,-2.5215,-2.4979,-2.4454,-2.3848,-2.4122,-2.4696,-2.3904,-2.3736,-2.3756,-2.3055,-2.2768,-2.2634,-2.2381,-2.2296,-2.2245,-2.1989,-2.2632,-2.3393,-2.3393,-2.3751,-2.4014,-2.3636,-2.2818,-2.2016,-2.1643,-2.0876,-2.0195,-1.9982,-1.935,-1.8802,-1.8668,-1.8426,-1.835,-1.8593,-1.877,-1.897,-1.9303,-1.9611,-1.9563,-1.8955,-1.8898,-1.8592,-1.776,-1.6773,-1.5992,-1.5519,-1.4598,-1.4001,-1.3817,-1.3804,-1.37,-1.349,-1.2659,-1.1666,0.0,0.0,0.0,0.0,0.0,0.0,0.0,0.0,0.0,0.0,0.0,0.0,0.0,0.0,0.0,0.0,0.0,0.0,0.0,0.0,0.0,0.0,0.0,0.0,0.0,-2.0702,-2.2312,-2.355,-2.4856,-2.557,-2.5413,-2.5932,-2.6569,-2.7384,-2.7725,-2.8483,-2.9878,-2.9953,-3.0332,-3.1166,-3.145,-3.1734,-3.1981,-3.2265,-3.2397,-3.2397,-3.1666,-3.1299,-3.127,-3.0349,-2.9772,-2.9503,-2.9223,-2.8664,-2.7918,-2.784,-2.7495,-2.7007,-2.6989,-2.6663,-2.6149,-2.5606,-2.5751,-2.6133,-2.5703,-2.5406,-2.5112,-2.4462,-2.4201,-2.4087,-2.3989,-2.3789,-2.3556,-2.3456,-2.3581,-2.3735,-2.3735,-2.3889,-2.3966,-2.3734,-2.3112,-2.2472,-2.1972,-2.1369,-2.0861,-2.0592,-2.015,-1.968,-1.9295,-1.9252,-1.9252,-1.9252,-1.9151,-1.9266,-1.9702,-1.9726,-1.9545,-1.9139,-1.9101,-1.8745,-1.7868,-1.6951,-1.6152,-1.5537,-1.4598,-1.3988,-1.3817,-1.3804,-1.3804,-1.3804,-1.3004,-1.2128,-1.1187,0.0,0.0,0.0,0.0,0.0,0.0,0.0,0.0,0.0,0.0,0.0,0.0,0.0,0.0,0.0,0.0,0.0,0.0,0.0,0.0,0.0,0.0,0.0,-2.0126,-2.2211,-2.3765,-2.384,-2.6065,-2.724,-2.6444,-2.7858,-2.9139,-2.9916,-3.073,-3.1545,-3.236,-3.2379,-3.2019,-3.1261,-3.1981,-3.2019,-3.1242,-3.2,-3.2397,-3.2397,-3.2193,-3.2113,-3.2103,-3.1831,-3.1284,-3.0524,-3.0249,-2.9732,-2.9017,-2.8748,-2.8618,-2.8455,-2.688,-2.6276,-2.6276,-2.6258,-2.6222,-2.6301,-2.7079,-2.7178,-2.7067,-2.7799,-2.7841,-2.7572,-2.7238,-2.6642,-2.5995,-2.5671,-2.5004,-2.4433,-2.4399,-2.4353,-2.4139,-2.3403,-2.3422,-2.3177,-2.1759,-2.1616,-2.1603,-2.0952,-2.0287,-1.9797,-1.9726,-1.9708,-1.9708,-1.9708,-1.9708,0.0,-1.9708,-1.9708,-1.9548,-1.9157,-1.912,-1.8765,-1.7888,-1.731,-1.6561,-1.5563,-1.493,-1.4337,-1.3817,-1.3804,-1.3804,-1.3804,-1.2635,-1.1761,-1.1214,0.0,0.0,0.0,0.0,0.0,0.0,0.0,0.0,0.0,0.0,0.0,0.0,0.0,0.0,0.0,0.0,0.0,0.0,0.0,0.0,0.0,-2.1128,-2.2684,-2.2684,-2.3809,-2.53,-2.7112,-2.8457,-2.9393,-2.9791,-3.0768,-3.1469,-3.1696,-3.1393,-3.1545,-3.236,-3.1848,-3.1696,-3.2056,-3.2284,-3.2284,-3.2075,-3.2284,-3.2397,-3.2397,-3.2344,-3.2316,-3.2307,-3.2084,-3.1869,-3.1634,-3.1167,-3.0516,-2.9782,-2.9561,-2.9137,-2.8563,-2.8111,-2.7948,-2.7876,-2.7278,-2.6699,-2.6187,-2.6231,-2.6192,-2.6139,-2.6136,-2.6086,-2.5981,-2.5689,-2.5404,-2.5097,-2.4814,-2.4892,-2.4928,-2.4392,-2.4611,-2.4763,-2.4029,-2.3453,-2.2978,-2.2582,-2.1922,-2.1455,-2.1459,-2.0721,-2.0085,-2.0067,-1.9856,-1.9708,-1.9708,-1.9708,-1.9708,-1.9708,-1.9708,-1.9672,-1.9545,-1.9545,-1.9199,-1.8383,-1.7367,-1.6413,-1.5556,-1.4576,-1.3961,-1.3817,-1.3804,-1.3804,-1.3804,-1.3043,-1.2361,0.0,0.0,0.0,0.0,0.0,0.0,0.0,0.0,0.0,0.0,0.0,0.0,0.0,0.0,0.0,0.0,0.0,0.0,0.0,0.0,0.0,0.0,-2.3013,-2.4731,-2.6133,-2.6456,-2.7214,-2.8987,-2.9934,-3.0787,-3.1621,-3.2463,-3.2937,-3.2937,-3.2823,-3.2956,-3.343,-3.2994,-3.2804,-3.2937,-3.2937,-3.2615,-3.1905,-3.1905,-3.1905,-3.1905,-3.1905,-3.2075,-3.2397,-3.2279,-3.2241,-3.2203,-3.1808,-3.1305,-3.0738,-3.0186,-2.9628,-2.9083,0.0,0.0,0.0,0.0,-2.7604,-2.7176,-2.7041,-2.6973,-2.6948,-2.679,-2.6751,-2.6654,-2.625,-2.582,-2.5399,-2.4982,-2.4843,-2.4696,-2.4262,-2.443,-2.4497,-2.3783,-2.3469,-2.3189,-2.2559,-2.219,-2.1972,-2.1949,-2.1152,0.0,-2.0595,-2.0106,-1.9708,-1.9708,-1.9708,-1.9708,-1.9708,-1.9708,-1.9708,-1.9708,-1.9708,-1.9439,-1.8803,-1.7892,0.0,0.0,0.0,-1.4239,-1.3817,-1.3804,0.0,0.0,0.0,0.0,0.0,-1.334,0.0,0.0,-1.2098,-1.1921,0.0,0.0,0.0,0.0,0.0,0.0,0.0,0.0,0.0,0.0,0.0,0.0,0.0,0.0,0.0,0.0,-2.4871,-2.6626,-2.9696,-2.9556,-2.9385,-3.0105,-3.0958,-3.1753,-3.2473,-3.3335,-3.3847,-3.3847,-3.4415,-3.4756,-3.4756,-3.4661,0.0,0.0,0.0,-3.3032,-3.1621,-3.1535,-3.1469,-3.1478,-3.1374,-3.1715,-3.2397,-3.2397,-3.2397,-3.2389,-3.2165,-3.1915,-3.163,-3.0678,-3.0154,-2.9857,-2.8944,-2.86,-2.86,-2.86,-2.86,-2.86,-2.86,0.0,0.0,-2.8587,-2.8587,-2.8479,-2.7886,-2.7177,-2.6429,-2.5823,-2.5044,-2.4379,-2.4247,-2.4165,-2.3934,-2.3189,-2.352,-2.3619,-2.2212,-2.2427,-2.2765,-2.2312,-2.1469,-2.0866,-2.1098,-2.0346,-1.9708,-1.9708,-1.9708,-1.9708,-1.9708,-1.9708,-1.9708,-1.9708,-1.9708,0.0,-1.9139,-1.8546,-1.7655,-1.6345,-1.5708,-1.4995,-1.4098,-1.4018,-1.3988,-1.3988,-1.4472,-1.4689,-1.4689,-1.5238,-1.5424,-1.5241,-1.3233,-1.2689,0.0,0.0,0.0,0.0,0.0,0.0,0.0,0.0,0.0,0.0,0.0,0.0,0.0,0.0,0.0,-2.5385,-2.7536,-2.9423,-3.0768,-3.1374,-3.1734,-3.1905,-3.2691,-3.3278,-3.343,-3.4188,-3.4661,-3.4661,-3.4207,-3.3922,-3.3922,-3.3278,-3.3126,-3.3676,-3.3695,-3.3866,-3.4188,-3.3543,-3.3221,-3.3202,-3.2501,0.0,-3.2397,-3.2397,-3.2397,-3.238,-3.1956,-3.1753,-3.1656,-3.1069,-3.0816,-3.0618,-2.9161,-2.86,-2.86,-2.86,-2.86,-2.86,-2.86,-2.86,-2.8587,-2.8549,-2.8505,-2.844,-2.8,-2.7709,0.0,-2.6717,-2.637,-2.6,-2.5129,-2.4895,-2.4713,-2.3967,-2.3901,-2.3768,-2.2874,-2.2791,-2.2685,-2.1962,-2.127,-2.0797,-2.0797,-2.0194,-1.9708,-1.9708,-1.9708,-1.9708,-1.9708,-1.9708,-1.9708,-1.9708,-1.9708,-1.9545,-1.9139,-1.8546,-1.7949,-1.7343,-1.645,-1.5865,-1.5654,-1.5343,-1.516,-1.516,-1.5265,-1.5317,-1.5317,-1.5434,-1.5424,-1.5292,-1.4841,-1.4659,0.0,0.0,0.0,0.0,0.0,0.0,0.0,0.0,0.0,0.0,0.0,-2.0888,-2.2461,0.0,-2.5836,-2.779,-2.9488,-3.0995,-3.2274,-3.2425,-3.2397,-3.2397,-3.3164,-3.3695,-3.3695,-3.4434,-3.4908,-3.4908,-3.4529,-3.4491,-3.4927,-3.4548,-3.468,-3.5533,-3.5552,-3.5552,-3.5552,-3.5154,-3.4718,-3.4301,-3.3866,-3.3657,-3.3657,-3.3657,-3.3657,-3.3639,-3.3296,-3.3079,-3.288,-3.1973,-3.1361,-3.0926,-3.0115,-2.9554,-2.9156,-2.8744,-2.86,-2.86,-2.86,-2.86,-2.8587,-2.8505,-2.8492,-2.8427,-2.801,-2.7858,-2.7701,-2.7178,-2.6873,-2.6573,-2.6034,-2.5779,-2.5457,-2.4729,-2.4547,-2.4348,-2.3603,-2.3454,-2.3276,-2.2675,-2.1861,-2.1332,-2.1428,-2.0764,-2.0094,-1.9753,-1.9708,-1.9708,-1.9708,-1.9708,-1.9708,-1.9708,-1.9708,-1.9636,-1.9417,-1.8672,-1.81,-1.7917,-1.6976,-1.632,-1.6118,-1.59,-1.571,-1.5487,-1.5787,-1.5944,-1.5944,-1.616,-1.619,-1.6103,-1.6023,-1.5789,0.0,0.0,0.0,0.0,0.0,0.0,0.0,0.0,-1.9334,-2.1031,-2.2053,-2.3206,-2.5034,-2.6589,-2.8233,-3.0156,-3.1014,-3.197,-3.3486,-3.3107,-3.2596,-3.2416,-3.3164,-3.3752,-3.3922,-3.4529,-3.4908,-3.4908,-3.5059,-3.5457,-3.6168,-3.6358,-3.6813,-3.7628,-3.7647,-3.742,-3.6917,-3.6756,-3.6339,-3.5628,-3.5306,-3.5135,-3.5077,-3.4907,-3.4812,-3.4752,-3.4531,-3.4293,-3.3955,-3.288,-3.2053,-3.1437,-3.1288,-3.0835,-3.0165,-2.9373,-2.907,-2.907,-2.907,-2.9057,-2.9044,-2.8961,-2.8827,-2.8635,-2.8287,-2.8039,-2.7789,-2.7396,-2.7052,-2.6775,-2.664,-2.6416,-2.6036,-2.5457,-2.5308,-2.511,-2.4381,-2.4216,-2.405,-2.353,-2.2541,-2.1841,-2.2015,-2.1284,-2.0528,-1.9974,-1.9902,-1.9857,-1.9723,-1.9708,-1.9708,-1.9708,-1.9708,-1.9708,-1.9708,-1.8969,-1.8499,-1.8499,-1.7669,-1.7011,-1.6697,-1.6606,-1.6366,-1.5947,-1.6415,-1.6625,-1.6518,-1.6845,-1.6939,-1.6867,-1.674,-1.6435,-1.9067,-1.8896,-1.9467,-2.1631,-2.0652,-2.0076,0.0,0.0,-2.2683,-2.4192,-2.5333,-2.6385,-2.7511,-2.8652,-3.0009,-3.1831,-3.2208,-3.2596,-3.3562,-3.3619,-3.3278,-3.2492,-3.3164,-3.3979,-3.4699,-3.4851,-3.4908,-3.4908,-3.5609,-3.6112,-3.6187,-3.6889,-3.7666,-3.8538,-3.8557,-3.885,-3.9483,-3.8774,-3.8367,-3.8254,-3.6775,-3.5936,-3.5689,-3.4964,-3.4487,-3.425,-3.4011,-3.3739,-3.3477,-3.3332,-3.3212,-3.3067,-3.2343,-3.1999,-3.1818,-3.1021,-3.0731,-3.0731,-3.0731,-3.069,-3.064,-3.0556,-3.0032,-2.9371,-2.9262,-2.872,-2.8025,-2.7384,-2.7181,-2.7005,-2.6416,-2.6221,-2.6169,-2.6086,-2.607,-2.5871,-2.5143,-2.4978,-2.4677,-2.368,-2.256,-2.1719,-2.144,-2.1004,-2.0673,-2.0598,-2.0583,-2.0378,-1.9783,-1.9708,-1.9708,-1.9708,-1.9708,-1.9708,-1.9708,-1.9597,-1.9534,-1.9534,-1.9079,-1.8809,-1.8772,-1.8418,-1.7999,-1.7558,-1.7605,-1.7402,-1.6933,-1.6976,-1.6897,-1.6718,-1.6697,-1.6595,-2.1169,-2.1858,-2.2564,-2.2662,-2.2727,-2.2904,-2.3518,-2.3729,-2.4063,-2.5037,-2.6798,-2.8354,-2.8914,-3.0584,-3.1968,-3.2342,-3.2842,-3.3107,-3.2956,-3.2937,-3.2994,-3.3145,-3.3486,-3.3828,-3.4169,-3.4624,-3.5116,-3.5609,-3.5998,-3.6623,-3.7609,-3.7969,-3.8538,-3.938,-3.9399,-3.9559,-3.99,-3.9559,-3.8906,-3.795,-3.7742,-3.6819,-3.5272,-3.5442,-3.5044,-3.4197,-3.4086,-3.3775,-3.3393,-3.3393,-3.3393,-3.3375,-3.3031,-3.2904,-3.2741,-3.1473,-3.0998,-3.0998,-3.0998,-3.0961,-3.0896,-3.0812,-3.0525,-3.0184,-3.0062,-2.9497,-2.8849,-2.8553,-2.7855,-2.7133,-2.6858,-2.6486,-2.6202,-2.6202,-2.6202,-2.6119,-2.5805,-2.5739,-2.5472,-2.4608,-2.3663,-2.2846,-2.2274,-2.2007,-2.1605,-2.0808,-2.0703,-2.0468,-1.9798,-1.9708,-1.9708,-1.9708,-1.9708,-1.9708,-1.9708,-1.9708,-1.9708,-1.9708,-1.953,-1.9343,-1.9101,-1.8936,-1.8519,-1.7808,-1.7787,-1.7537,-1.7002,-1.696,-1.6867,-1.6697,-1.662,-1.6543,-2.2943,-2.3865,-2.4534,-2.3978,-2.4405,-2.4719,-2.3716,-2.4174,-2.4993,-2.5641,-2.7537,-2.9325,-3.019,-3.1873,-3.3034,-3.2796,-3.3297,-3.3316,-3.2208,-3.2482,-3.2899,-3.3297,-3.3752,-3.3941,-3.3714,-3.4434,-3.5249,-3.613,-3.6415,-3.7173,-3.8614,-3.8917,-3.9304,-3.9881,-3.99,-3.9786,-3.9559,-3.9559,-3.885,-3.7401,-3.7818,-3.701,-3.5161,-3.5507,-3.5124,-3.4197,-3.4124,-3.3868,-3.3491,-3.3422,-3.3393,-3.3393,-3.3393,-3.3393,-3.3266,-3.2089,-3.1655,-3.1655,-3.1655,-3.1631,-3.1546,-3.1459,-3.1242,-3.0975,-3.0865,-3.0172,-2.939,-2.9286,-2.827,-2.7181,-2.7085,-2.6624,-2.6202,-2.6202,-2.6202,-2.6202,-2.6202,-2.6202,-2.6036,-2.5507,-2.4576,-2.372,-2.3196,-2.2716,-2.2024,-2.0868,-2.0703,-2.0468,-1.9798,-1.9708,-1.9708,-1.9708,-1.9708,-1.9708,-1.9708,-1.9708,-1.9708,-1.9708,-1.9708,-1.9581,-1.9288,-1.9269,-1.886,-1.8008,-1.8088,-1.7767,-1.696,-1.7044,-1.6918,-1.6654,-1.6556,-1.65,-2.4088,-2.3999,-2.4291,-2.6198,-2.5401,-2.4375,-2.5292,-2.5551,-2.5783,-2.659,-2.7643,-2.9167,-3.158,-3.2241,-3.2701,-3.3524,-3.3676,-3.3126,-3.1469,-3.2634,-3.3354,-3.253,-3.3866,-3.4567,-3.3771,-3.4434,-3.5249,-3.613,-3.6927,-3.7761,-3.8652,-3.9437,-3.9862,-3.99,-3.99,-3.9532,-3.8746,-3.8746,-3.8291,-3.7401,-3.6642,-3.6096,-3.575,-3.4713,-3.424,-3.4185,-3.3921,-3.3788,-3.3766,-3.3509,-3.3393,-3.3393,-3.3393,-3.3393,-3.3393,-3.3357,-3.3339,-3.3339,-3.3339,-3.328,-3.3205,-3.3078,-3.2463,-3.1742,-3.1684,-3.06,-2.9329,-2.9014,-2.8084,-2.7133,-2.6808,-2.6452,-2.6202,-2.6202,-2.6202,-2.6202,-2.6202,-2.6202,-2.6185,-2.6169,-2.495,-2.3879,-2.3882,-2.2678,-2.15,-2.0793,-2.0703,-2.0468,-1.9798,-1.9708,-1.9708,-1.9708,-1.9708,-1.9708,-1.9708,-1.9708,-1.9708,-1.9708,-1.9708,-1.969,-1.969,-1.969,-1.9295,-1.8481,-1.886,-1.8344,-1.6897,-1.7303,-1.7144,-1.65,-1.65,-1.65,-2.4265,-2.4663,-2.517,-2.5885,-2.6079,-2.6171,-2.6405,-2.6667,-2.6895,-2.704,-2.7884,-2.9011,-3.0399,-3.1605,-3.2322,-3.2084,-3.343,-3.3714,-3.1507,-3.36,-3.4832,-3.343,-3.4226,-3.4586,-3.3771,-3.4434,-3.5249,-3.613,-3.6946,-3.8016,-3.9418,-3.9748,-3.9654,-3.9115,-3.9096,-3.8698,-3.7856,-3.7837,-3.742,-3.6585,-3.5742,-3.5599,-3.6039,-3.5088,-3.4596,-3.4461,-3.4363,-3.4233,-3.4049,-3.378,-3.3657,-3.3661,-3.3466,-3.3393,-3.3393,-3.3393,-3.3393,-3.3393,-3.3393,-3.3352,-3.3277,-3.315,-3.2875,-3.2568,-3.2523,-3.176,-3.0736,-2.9865,-2.8833,-2.7786,-2.6927,-2.6452,-2.6202,-2.6202,-2.6202,-2.6202,-2.6202,-2.6202,-2.6202,-2.6202,-2.5319,-2.4432,-2.3992,-2.338,-2.2592,-2.153,-2.0602,-1.9944,-1.9738,-1.9708,-1.9708,-1.9708,-1.9708,-1.9708,-1.9708,-1.9708,-1.9708,-1.9708,-1.9708,-1.9708,-1.9708,-1.9708,-1.9439,-1.8898,-1.8765,-1.8246,-1.7303,-1.7178,-1.6884,-1.65,-1.65,-1.65,-2.5277,-2.5734,-2.6172,-2.665,-2.6954,-2.7056,-2.6722,-2.6849,-2.7085,-2.7269,-2.7562,-2.8229,-2.965,-3.0541,-3.0995,-3.0768,-3.2842,-3.3809,-3.1914,-3.3998,-3.5344,-3.4263,-3.4586,-3.4699,-3.4188,-3.5135,-3.5912,-3.6187,-3.6946,-3.8016,-3.9399,-3.9191,-3.8774,-3.8254,-3.8235,-3.7837,-3.6984,-3.6984,-3.6566,-3.5723,-3.5173,-3.5192,-3.5723,-3.5476,-3.5124,-3.4718,-3.4945,-3.4723,-3.4185,-3.3908,-3.3739,-3.3629,-3.3466,-3.3393,-3.3393,-3.3393,-3.3364,-3.3367,-3.3367,-3.3337,-3.3277,-3.3119,-3.3042,-3.2997,-3.2916,-3.2347,-3.1497,-3.0482,-2.9313,-2.8162,-2.7144,-2.6538,-2.6202,-2.6202,-2.6202,-2.6202,-2.6202,-2.6202,-2.6202,-2.6202,-2.5607,-2.4936,-2.4356,-2.3518,-2.2562,-2.15,-2.0408,-1.9708,-1.9708,-1.9708,-1.9708,-1.9708,-1.9708,-1.9708,-1.9708,-1.9708,-1.9708,-1.9708,-1.9708,-1.9708,-1.9708,-1.9708,-1.9493,-1.9049,-1.8959,-1.8428,-1.7421,-1.7359,-1.7026,-1.65,-1.65,-1.65,-2.6952,-2.708,-2.7223,-2.8404,-2.7975,-2.711,-2.6521,-2.6368,-2.6558,-2.7342,-2.6804,-2.6918,0.0,0.0,-2.8949,-2.9669,-3.2027,-3.3468,-3.2596,-3.3979,-3.5078,-3.5022,-3.4984,-3.4946,-3.4908,-3.6329,-3.6965,-3.6187,-3.6927,-3.7761,-3.8595,-3.7856,-3.7382,-3.7344,-3.7344,-3.6946,-3.6149,-3.613,-3.5761,-3.5022,-3.4984,-3.4984,-3.504,-3.5836,-3.5742,-3.4993,-3.5499,-3.5165,-3.4197,-3.3908,-3.3643,-3.3408,-3.3411,-3.3393,-3.3393,-3.3393,-3.3352,-3.331,-3.3292,-3.3277,-3.3262,-3.306,-3.2995,-3.2997,-3.2916,-3.2382,-3.1599,-3.0734,-2.9542,-2.8315,-2.7423,-2.6742,-2.6252,-2.6202,-2.6202,-2.6202,-2.6202,-2.6202,-2.6202,-2.6202,-2.5793,-2.5332,-2.4942,-2.3135,-2.1515,-2.0838,-2.0183,-1.9738,-1.9708,-1.9708,-1.9708,-1.9708,-1.9708,-1.9708,-1.9708,-1.9708,-1.9708,-1.9708,-1.9708,-1.9708,-1.9708,-1.9708,-1.9457,-1.8949,-1.9406,-1.8893,-1.7333,-1.7827,-1.7524,-1.65,-1.65,-1.65,-2.7311,-2.7384,-2.7557,-2.8479,-2.8501,-2.8428,-2.8866,-2.8495,-2.7953,-2.7581,-2.6804,-2.6216,-2.6228,-2.7585,-2.857,-2.8188,-3.1762,-3.4301,-3.3486,-3.5893,-3.7495,-3.6841,-3.6234,-3.5609,-3.4965,-3.5287,-3.5457,-3.5249,-3.6576,-3.7495,-3.7723,-3.7533,-3.7135,-3.6529,-3.651,-3.6102,-3.523,-3.523,-3.5742,-3.6746,-3.614,-3.6178,-3.6746,-3.6377,-3.6093,-3.5827,-3.5197,-3.4749,-3.4461,-3.3998,-3.3766,-3.3671,-3.3481,-3.3393,-3.3393,-3.3393,-3.3352,-3.3277,-3.3198,-3.315,-3.3135,-3.3026,-3.2995,-3.2997,-3.2916,-3.2757,-3.2307,-3.0954,-3.0317,-2.9609,-2.7769,-2.7146,-2.6884,-2.6336,-2.6202,-2.6202,-2.6202,-2.6202,-2.6202,-2.6202,-2.557,-2.4922,-2.4513,-2.3346,-2.2224,-2.1545,-2.0872,-2.0258,-1.9768,-1.9708,-1.9708,-1.9708,-1.9708,-1.9708,-1.9708,-1.9708,-1.9708,-1.9708,-1.9708,-1.9708,-1.9708,-1.965,-1.956,-1.9417,-1.9161,-1.8635,-1.7814,-1.7598,-1.7146,-1.65,-1.65,-1.65,-2.8409,-2.8485,-2.8749,-2.9593,-2.9233,-2.8722,-2.8825,-2.8199,-2.7365,-2.6577,-2.5705,-2.4965,-2.451,-2.5565,-2.6721,-2.7399,-3.0747,0.0,-3.4643,-3.6415,-3.7552,0.0,-3.6699,-3.6017,-3.5514,-3.578,-3.5855,-3.5495,-3.6329,-3.687,-3.687,-3.65,-3.6272,-3.6206,-3.6206,-3.6121,-3.5988,-3.5988,-3.6462,-3.7401,-3.6585,-3.6623,-3.7382,-3.6927,-3.6737,-3.6679,-3.598,-3.5383,-3.489,-3.412,-3.3726,-3.3619,-3.3466,-3.3393,-3.3411,-3.3367,-3.3307,-3.3198,-3.3088,-3.3042,-3.3011,-3.2963,-3.2948,-3.2948,-3.2916,-3.29,-3.2642,-3.1419,-3.0855,-3.0229,-2.8674,-2.7791,-2.7199,-2.6766,-2.6452,-2.6202,-2.6202,-2.6202,-2.6202,-2.6202,-2.5495,-2.4839,-2.4599,-2.3544,-2.2478,-2.1799,-2.1141,-2.0468,-1.9798,-1.9708,-1.9708,-1.9708,-1.9708,-1.9708,-1.9708,-1.9708,-1.9708,-1.9708,-1.9708,-1.969,-1.965,-1.9629,-1.9556,-1.9483,-1.9195,-1.8688,-1.7908,-1.7713,-1.7222,-1.65,-1.65,-1.65,-2.9897,-3.0024,-3.037,-3.0882,-3.001,-2.8798,-2.7866,-2.6994,-2.6103,-2.5193,-2.4321,-2.367,-2.3556,-2.3727,-2.4681,-2.7096,0.0,-3.2368,-3.5732,-3.6301,-3.6661,-3.7476,-3.6851,-3.632,-3.6206,-3.6832,-3.6946,-3.6263,-3.6301,-3.632,-3.6206,-3.5571,-3.5571,-3.6339,-3.6358,-3.6756,-3.7571,-3.7457,-3.7504,-3.7713,-3.6867,-3.6895,-3.7671,-3.7526,-3.7448,-3.7419,-3.6934,-3.6204,-3.5261,-3.4186,-3.3619,-3.3393,-3.3393,-3.3393,-3.3378,-3.3322,-3.3229,-3.3086,-3.3026,-3.2963,-3.29,-3.29,-3.29,-3.29,-3.29,-3.29,-3.2741,-3.1999,-3.1333,-3.0629,-2.9782,-2.862,-2.7589,-2.735,-2.6818,-2.6318,-2.6219,-2.6202,-2.6202,-2.6202,-2.5495,-2.4902,-2.4902,-2.3733,-2.2598,-2.1919,-2.1261,-2.0602,-1.9914,-1.9768,-1.9708,-1.9708,-1.9708,-1.9708,-1.9708,-1.9708,-1.9708,-1.9708,-1.969,-1.9669,-1.9593,-1.9574,-1.9465,-1.9195,-1.9265,-1.8765,-1.772,-1.7828,-1.7421,-1.65,-1.65,-1.65,-3.1113,-3.1433,-3.1659,-3.0427,-3.0446,-3.037,-2.8836,-2.7858,0.0,0.0,-2.4321,-2.3499,-2.2836,-2.3847,-2.5363,-2.7209,-2.9583,-3.2368,-3.5732,-3.6775,-3.7514,0.0,-3.7723,-3.6927,-3.6263,-3.6339,-3.6358,-3.6206,-3.6832,-3.6908,-3.6244,-3.6699,-3.704,-3.7192,-3.7192,-3.7609,-3.8462,-3.7761,-3.8092,-3.9445,-3.8358,-3.8303,-3.9093,-3.8165,-3.7733,-3.7646,-3.6046,-3.5239,-3.4986,-3.3905,-3.3437,-3.3393,-3.3393,-3.3393,-3.3393,-3.3396,-3.3256,-3.3101,-3.3086,-3.2993,-3.29,-3.29,-3.29,-3.29,-3.29,-3.29,-3.28,-3.2329,-3.209,-3.1673,-3.0269,-2.9721,-2.9145,-2.7657,-2.7199,-2.695,-2.6336,-2.6202,-2.6202,-2.6202,-2.5495,-2.4902,-2.4902,-2.4081,-2.3236,-2.2628,-2.1969,-2.1276,-2.0617,-2.0034,-1.9708,-1.9708,-1.9708,-1.9708,-1.9708,-1.9708,-1.9708,-1.9708,-1.965,-1.9611,-1.9593,-1.9446,-1.9139,-1.8726,-1.8688,-1.8206,-1.7303,-1.7344,-1.7039,-1.65,-1.65,-1.65,-3.1061,-3.1059,-3.0901,-3.0105,-2.9897,-2.9347,-2.7252,0.0,0.0,0.0,-2.2684,-2.2154,-2.1358,-2.2571,0.0,-2.5932,-2.7922,-3.0595,-3.4358,-3.559,-3.6424,-3.7306,-3.7401,-3.7078,-3.6282,-3.6206,-3.6377,-3.6794,-3.7609,-3.7704,-3.687,-3.7628,-3.8001,-3.7815,-3.8388,-3.8834,-3.9109,-3.8842,-3.9031,-3.9682,-3.8686,-3.8571,-3.921,-3.825,-3.8034,-3.8317,-3.6431,-3.5624,-3.5518,-3.4015,-3.3393,-3.3393,-3.3393,-3.3393,-3.3396,-3.3271,-3.3178,-3.3086,-3.3008,-3.2963,-3.29,-3.29,-3.29,-3.29,-3.29,-3.29,-3.2868,-3.2672,-3.2454,-3.2074,-3.1137,-3.0447,-2.9625,-2.8225,-2.7298,-2.6617,-2.6286,-2.6202,-2.6202,-2.6202,-2.5495,-2.4902,-2.4902,-2.4173,-2.3385,-2.2793,-2.2134,-2.1575,-2.1261,-2.0333,-1.9708,-1.9708,-1.9708,-1.9708,-1.9708,-1.9708,-1.9708,-1.9708,-1.9672,-1.9596,-1.9501,-1.9395,-1.9195,-1.886,-1.863,-1.8167,-1.7516,-1.7303,-1.6968,-1.65,-1.65,-1.65,-3.0639,-3.0702,-3.0541,-2.9821,-2.9575,-2.8703,-2.5686,-2.5003,0.0,-2.1737,-2.1049,-2.0803,-2.0329,-2.1339,-2.2893,0.0,-2.6349,-2.8738,-3.3089,-3.4396,-3.5211,-3.6112,-3.6908,0.0,-3.6282,-3.6358,-3.6813,-3.7628,-3.831,-3.846,-3.7877,-3.8544,-3.8776,-3.8384,-3.93,-3.9682,-3.9408,-3.9592,-3.9592,-3.9377,-3.8639,-3.8503,-3.8877,-3.8196,-3.8241,-3.874,-3.7103,-3.6271,-3.5981,-3.4331,-3.3556,-3.3393,-3.3393,-3.3393,-3.3378,-3.3226,-3.315,-3.3086,-3.2995,-3.2932,-3.29,-3.29,-3.29,-3.29,-3.29,-3.29,-3.29,-3.29,-3.2672,-3.2318,-3.1823,-3.0925,-2.9788,-2.8493,-2.7147,-2.6202,-2.6202,-2.6202,-2.6202,-2.6202,-2.5495,-2.4902,-2.4902,-2.4173,-2.343,-2.2957,-2.2343,-2.1904,-2.1904,-2.0876,-2.0127,-2.0127,-1.9872,-1.9708,-1.9708,-1.9708,-1.9708,-1.9708,-1.9672,-1.9563,-1.9413,-1.9358,-1.9213,-1.8988,-1.8572,-1.8127,-1.7679,-1.7248,-1.6863,-1.65,-1.65,-1.65,-3.0391,-3.1631,-3.2615,-2.9575,-3.0446,-3.0814,-2.6084,0.0,-2.4283,-2.1737,-2.0613,-2.031,-2.0973,-2.1225,-2.2362,-2.5572,0.0,-2.8055,-3.2994,-3.4396,-3.5211,-3.6112,0.0,0.0,-3.6282,-3.687,-3.7647,-3.8519,-3.8652,-3.8877,-3.9288,-3.9619,-3.9515,-3.8938,-3.9327,-3.9377,-3.9049,-3.9063,-3.9063,-3.9036,-3.8715,-3.8603,-3.8631,-3.8312,-3.8201,-3.8219,-3.7332,-3.6501,-3.576,-3.486,-3.4063,-3.3393,-3.3393,-3.3393,-3.3393,-3.3378,-3.3256,-3.3101,-3.3086,-3.2993,-3.29,-3.29,-3.29,-3.29,-3.29,-3.29,-3.29,-3.29,-3.2884,-3.2672,-3.1896,-3.1126,-3.0018,-2.7901,-2.6783,-2.6202,-2.6202,-2.6202,-2.6202,-2.6202,-2.5495,-2.4902,-2.4902,-2.4173,-2.358,-2.352,-2.3002,-2.2613,-2.2613,-2.1984,-2.1515,-2.1515,-2.0441,-1.9708,-1.9708,-1.9708,-1.9708,-1.9708,-1.9541,-1.9413,-1.9395,-1.9213,-1.8936,-1.8572,-1.8088,-1.7659,-1.7261,-1.6799,-1.6531,-1.65,-1.65,-1.65,-3.0598,-3.1772,-3.2236,-2.9404,-2.9802,-2.9593,-2.4636,0.0,-2.3506,-2.0998,-2.0215,-2.0102,-2.0424,-2.0859,-2.1813,-2.3676,-2.4378,-2.5932,-2.9477,-3.108,-3.2379,-3.3752,-3.5097,-3.5969,-3.6187,-3.6927,-3.7959,-3.9323,-3.9418,-3.9452,-3.9508,-3.9297,-3.9207,-3.9294,-3.9433,-3.9338,-3.9008,-3.8994,-3.8929,-3.8759,-3.8643,-3.8525,-3.837,-3.8241,-3.8209,-3.8172,-3.7357,-3.6544,-3.5731,-3.4917,-3.4135,-3.3393,-3.3393,-3.3393,-3.3411,-3.3352,-3.3244,-3.3086,-3.3057,-3.2979,-3.29,-3.29,-3.29,-3.29,-3.29,-3.29,-3.29,-3.29,-3.29,-3.2721,-3.1914,-3.0489,-2.8943,-2.7624,-2.6733,-2.6202,-2.6202,-2.6202,-2.6202,-2.6202,-2.5682,-2.5179,-2.4942,-2.4415,-2.3931,-2.3638,-2.3092,-2.2838,-2.3176,-2.2338,-2.1844,-2.2269,-2.1096,-2.0303,-2.0303,-1.9929,-1.9708,-1.9708,-1.9578,-1.9376,-1.9045,-1.9157,-1.886,-1.8088,-1.7888,-1.7598,-1.7199,-1.6723,-1.65,-1.65,-1.65,-1.6688,-2.9791,-3.0871,-3.1128,-2.8892,-2.8949,-2.8354,-2.3832,-2.322,-2.2937,-2.0429,-1.9919,-1.9919,-1.9919,-2.0372,-2.1109,0.0,-2.2899,-2.4331,-2.7422,-2.8825,-3.0162,-3.1848,-3.3524,-3.4794,-3.5401,-3.687,-3.8376,-3.9786,-3.9673,-3.9569,-3.9623,-3.9028,-3.8908,-3.9345,-3.9351,-3.9189,-3.8886,-3.8799,-3.8673,-3.8478,-3.8478,-3.8368,-3.8209,-3.8209,-3.8209,-3.8172,-3.7357,-3.6544,-3.5731,-3.4917,-3.4135,-3.3393,-3.3393,-3.3393,-3.3378,-3.3322,-3.3214,-3.3086,-3.3026,-3.2948,-3.29,-3.29,-3.29,-3.29,-3.29,-3.29,-3.29,-3.29,-3.2737,-3.2314,-3.1305,-2.9739,-2.816,-2.7199,-2.6584,-2.6202,-2.6202,-2.6202,-2.6202,-2.6202,-2.5811,-2.537,-2.4962,-2.4574,-2.4156,-2.3659,-2.3236,-2.3122,-2.355,-2.2817,-2.2443,-2.2927,-2.1784,-2.0932,-2.0718,-2.0094,-1.9708,-1.9708,-1.9508,-1.9199,-1.8822,-1.886,-1.8572,-1.7808,-1.7679,-1.7475,-1.7199,-1.6723,-1.65,-1.65,-1.65,-1.6923,-2.7532,-2.8711,-2.9537,-2.7922,-2.8123,-2.7801,-2.4294,-2.3505,-2.2783,-2.0233,-1.9701,-1.9701,-1.9701,-1.9701,-2.0251,-2.1924,-2.2212,-2.3736,-2.8081,-2.8703,-2.9328,-3.1014,-3.2691,-3.3714,-3.3733,-3.6737,-3.902,-3.9843,-3.9153,-3.9058,-3.9862,-3.9134,-3.8791,-3.9003,-3.9008,-3.8872,-3.86,-3.8338,-3.8209,-3.8209,-3.8209,-3.8209,-3.8209,-3.8209,-3.8209,-3.8172,-3.7357,-3.6544,-3.5731,-3.4917,-3.4135,-3.3393,-3.3393,-3.3393,-3.3378,-3.3322,-3.3214,-3.3086,-3.3026,-3.2948,-3.29,-3.29,-3.29,-3.29,-3.29,-3.29,-3.29,-3.29,-3.2335,-3.1369,-2.9903,-2.8961,-2.8028,-2.6568,-2.6202,-2.6202,-2.6202,-2.6202,-2.6202,-2.6202,-2.5811,-2.537,-2.4962,-2.4574,-2.4156,-2.3659,-2.3595,-2.3595,-2.3595,-2.3595,-2.358,-2.3595,-2.2443,-2.1425,-2.0763,-2.0094,-1.9708,-1.9708,-1.9207,-1.8869,-1.8803,-1.8285,-1.7948,-1.7787,-1.7413,-1.7199,-1.7199,-1.6723,-1.65,-1.65,-1.65,-1.7124,-2.6483,-2.791,-2.8905,-2.6137,-2.6045,-2.5777,-2.2413,-2.2081,-2.1924,-1.997,-1.9553,-1.9553,-1.9553,-1.9553,-2.0515,-2.3434,-2.3899,0.0,-2.7509,-2.9175,0.0,-3.0354,-3.2823,-3.4756,-3.5344,-3.6377,-3.7571,-3.8963,-3.8622,-3.8738,-3.9585,-3.9378,-3.9371,-3.9616,-3.9229,-3.8952,-3.8872,-3.7883,-3.7375,-3.7375,-3.6816,-3.6562,-3.658,-3.714,-3.7069,-3.658,-3.6868,-3.6218,-3.4953,-3.4715,-3.4135,-3.3393,-3.3393,-3.3393,-3.3411,-3.3382,-3.3241,-3.3101,-3.3088,-3.2977,-3.29,-3.29,-3.29,-3.29,-3.29,-3.29,-3.2834,-3.2573,-3.2109,-3.1296,-2.9535,-2.8742,-2.8028,-2.6551,-2.6202,-2.6202,-2.6202,-2.6202,-2.6202,-2.6202,-2.6079,-2.5754,-2.502,-2.4784,-2.4456,-2.3702,-2.3595,-2.3595,-2.3595,-2.3595,-2.3595,-2.3595,-2.2862,-2.2119,-2.144,-2.0348,-1.9708,-1.9708,-1.9574,-1.9193,-1.8489,-1.8575,-1.813,-1.7065,-1.7157,-1.7031,-1.6735,-1.6565,-1.65,-1.65,-1.6923,-1.7501,0.0,-2.5946,-2.6618,-2.4557,-2.4186,-2.3744,-2.1665,-2.1308,-2.1052,-1.9711,-1.9427,-1.9427,-1.9427,-1.9427,-2.037,-2.3214,-2.3675,-2.4659,-2.7412,-2.8723,-2.9711,-3.0547,-3.2543,-3.4383,-3.5762,-3.5902,-3.6478,-3.7845,-3.7751,-3.7997,-3.8839,-3.8895,-3.8971,-3.9147,-3.9048,-3.8823,-3.8395,-3.7466,-3.685,-3.6544,-3.6055,-3.5804,-3.5822,-3.6327,-3.6272,-3.5804,-3.6001,-3.553,0.0,-3.428,-3.3846,-3.3393,-3.3393,-3.3393,-3.3378,-3.3319,-3.3211,-3.3086,-3.3039,-3.2979,-3.29,-3.29,-3.29,-3.29,-3.29,-3.29,-3.2852,-3.2606,-3.1934,-3.0935,-2.9503,-2.8558,-2.768,-2.6467,-2.6202,-2.6202,-2.6202,-2.6202,-2.6202,-2.6202,-2.6202,-2.5917,-2.504,-2.4902,-2.4603,-2.3724,-2.3595,-2.3595,-2.3595,-2.3595,-2.3595,-2.3595,-2.3062,-2.2523,-2.2119,-2.1066,-2.0348,-2.0094,-1.9812,-1.9228,-1.8333,-1.8208,-1.7684,-1.6709,-1.6854,-1.6799,-1.65,-1.65,-1.65,-1.6513,-1.7112,-1.7677,0.0,-2.3037,-2.3148,-2.3037,-2.2444,-2.184,-2.1656,-2.1036,0.0,-1.9447,-1.93,-1.93,-1.9355,-1.9373,-2.0013,-2.1953,-2.2263,-2.3681,-2.7744,-2.7744,-2.8474,-3.1526,-3.2104,-3.3058,-3.5144,-3.533,-3.5665,-3.6546,-3.6576,-3.6935,-3.7745,-3.7782,-3.7782,-3.7755,-3.8442,-3.8321,-3.7327,-3.6991,-3.6435,-3.5713,-3.5659,-3.5623,-3.5623,-3.5677,-3.5677,-3.5587,-3.4914,-3.4555,-3.4461,-3.3719,-3.3393,-3.3393,-3.3393,-3.3393,-3.3364,-3.3196,-3.3101,-3.3086,-3.2963,-3.2916,-3.29,-3.29,-3.29,-3.29,-3.29,-3.2884,-3.2834,-3.2765,-3.1686,-3.0368,-2.9558,-2.8316,-2.7116,-2.6385,-2.6202,-2.6202,-2.6202,-2.6202,-2.6202,-2.6202,-2.6202,-2.5917,-2.504,-2.4902,-2.4603,-2.3724,-2.3595,-2.3595,-2.3595,-2.3595,-2.3595,-2.3595,-2.3107,-2.2763,-2.2763,-2.2119,-2.144,-2.0808,-2.0007,-1.9234,-1.8478,-1.7553,-1.6978,-1.6782,-1.659,-1.65,-1.65,-1.65,-1.65,-1.65,-1.7074,-1.7662,-1.9089,0.0,-2.1625,-2.0401,-2.0411,-2.0531,0.0,-2.0043,-2.0125,-1.9299,-1.9153,-1.9335,-1.9953,-2.0053,-2.1112,-2.4314,-2.483,-2.5656,-2.8042,-2.9137,-3.0671,-3.3294,-3.3669,-3.3985,-3.472,-3.4596,-3.4835,-3.5646,-3.552,-3.5736,-3.656,-3.6611,-3.6515,-3.6304,-3.6652,-3.6752,-3.6483,-3.5609,-3.5077,-3.4878,-3.4262,-3.3973,-3.3991,-3.4606,-3.4552,-3.3991,-3.4407,-3.4262,-3.3665,-3.3484,-3.3393,-3.3393,-3.3393,-3.3393,-3.3393,-3.3349,-3.3226,-3.3101,-3.3055,-3.2995,-3.29,-3.29,-3.29,-3.29,-3.29,-3.2688,-3.2263,-3.1394,-3.0643,-2.9778,-2.8219,-2.7564,-2.7116,-2.6385,-2.6202,-2.6202,-2.6202,-2.6202,-2.6202,-2.6202,-2.6202,-2.5917,-2.504,-2.4902,-2.4603,-2.3724,-2.3595,-2.3595,-2.3595,-2.3595,-2.3595,-2.3595,-2.3475,-2.3385,-2.3385,-2.2338,-2.1635,-2.147,-2.1359,-2.0869,-1.9873,-1.9128,-1.8337,-1.7485,-1.6822,-1.65,-1.65,-1.65,-1.65,-1.65,-1.666,-1.725,-1.7791,-1.9395,-2.0735,-1.9866,-1.9974,-2.0192,-1.9739,0.0,0.0,0.0,0.0,0.0,-2.0155,-2.03,-2.1242,-2.4092,-2.479,-2.5949,-2.8779,-3.0601,-3.2203,-3.3653,-3.4049,-3.4161,-3.4061,-3.3908,-3.4012,-3.4448,-3.4338,-3.4623,-3.5422,-3.5458,-3.5387,-3.5258,-3.5387,-3.5458,-3.5458,-3.4897,-3.4407,-3.4045,-3.361,-3.3393,-3.3411,-3.3846,-3.381,-3.3429,-3.3864,-3.381,-3.3393,-3.3393,-3.3393,-3.3393,-3.3393,-3.3393,-3.3378,-3.3304,-3.3196,-3.3086,-3.3024,-3.2963,-3.29,-3.29,-3.29,-3.29,-3.29,-3.2488,-3.1933,-3.1516,-3.0708,-2.9698,-2.8384,-2.7663,-2.7116,-2.6385,-2.6202,-2.6202,-2.6202,-2.6202,-2.6202,-2.6202,-2.6202,-2.5917,-2.504,-2.4902,-2.4603,-2.3724,-2.3595,-2.3595,-2.3595,-2.3595,-2.3595,-2.3595,-2.3595,-2.3595,-2.3595,-2.2966,-2.2443,-2.2179,-2.2027,-2.1406,-2.0251,-1.9622,-1.8745,-1.759,-1.6854,-1.65,-1.65,-1.65,-1.6638,-1.6911,-1.6911,-1.7513,-1.7791,-1.9258,-2.0427,-2.0173,-2.021,-2.03,-2.03,0.0,0.0,0.0,0.0,0.0,0.0,-2.0735,0.0,-2.3541,-2.4515,-2.6214,-2.9624,-3.1697,-3.3025,-3.3415,-3.3834,-3.3908,-3.3509,-3.3422,-3.3393,-3.3393,-3.3393,-3.3701,-3.4389,-3.4425,-3.4425,-3.4425,-3.4425,-3.4425,-3.4425,-3.4425,-3.4081,-3.3393,-3.3393,-3.3393,-3.3393,-3.3393,-3.3393,-3.3393,-3.3393,-3.3393,-3.3393,-3.3393,-3.3393,-3.3393,-3.3393,-3.3378,-3.3349,-3.3196,-3.3101,-3.3055,-3.293,-3.29,-3.29,-3.29,-3.29,-3.29,-3.29,-3.2335,-3.1769,-3.2109,-3.1021,-2.9593,-2.8852,-2.7908,-2.6967,-2.6352,-2.6202,-2.6202,-2.6202,-2.6202,-2.6202,-2.6202,-2.6202,-2.5936,-2.5137,-2.4942,-2.4623,-2.3831,-2.3653,-2.3595,-2.3595,-2.3595,-2.3595,-2.3595,-2.3595,-2.3595,-2.3595,-2.3595,-2.337,-2.2862,-2.245,-2.1636,-2.0297,-1.9629,-1.8705,-1.7446,-1.6898,-1.6647,-1.6647,-1.6647,-1.6948,-1.7524,-1.7524,-1.8053,-1.8334,-2.0083,-2.0988,-1.9612,-1.9793,-2.03,-2.03,0.0,0.0,0.0,0.0,0.0,0.0,-2.2745,-2.3369,-2.651,-2.823,-2.9386,-2.9997,-3.1381,-3.268,-3.3634,-3.3619,-3.3577,-3.3726,-3.3534,-3.3393,-3.3393,-3.3393,-3.3447,-3.3574,-3.3592,-3.3592,-3.3592,-3.3592,-3.3592,-3.3592,-3.3592,-3.352,-3.3393,-3.3393,-3.3393,-3.3393,-3.3393,-3.3393,-3.3393,-3.3393,-3.3393,-3.3393,-3.3393,-3.3393,-3.3393,-3.3393,-3.3367,-3.3307,-3.3277,-3.3152,-3.2995,-3.2932,-3.29,-3.29,-3.29,-3.29,-3.29,-3.29,-3.2335,-3.1714,-3.1769,-3.0274,-2.8472,-2.7742,-2.6954,-2.6334,-2.6236,-2.6202,-2.6202,-2.6202,-2.6202,-2.6202,-2.6202,-2.6202,-2.6043,-2.55,-2.5137,-2.4724,-2.4245,-2.3846,-2.3595,-2.3595,-2.3595,-2.3595,-2.3595,-2.3595,-2.3595,-2.3595,-2.3595,-2.3543,-2.3382,-2.3352,-2.2593,-2.0843,-1.9876,-1.8761,-1.7423,-1.7322,-1.725,-1.725,-1.725,-1.7539,-1.8078,-1.8078,-1.8417,-1.7265,-1.866,-1.9685,-2.0264,-2.1622,-2.2727,-2.2292,-2.2184,0.0,0.0,0.0,0.0,0.0,0.0,-2.5531,-2.8379,-2.9168,-2.9881,-3.1068,-3.1914,-3.2707,-3.3482,-3.3605,-3.3619,-3.3591,-3.3481,-3.3393,-3.3393,-3.3393,-3.3393,-3.3393,-3.3393,-3.3393,-3.3393,-3.3393,-3.3393,-3.3393,-3.3393,-3.3393,-3.3393,-3.3393,-3.3393,-3.3393,-3.3393,-3.3393,-3.3393,-3.3393,-3.3393,-3.3393,-3.3393,-3.3393,-3.3393,-3.3393,-3.3382,-3.3352,-3.3229,-3.3088,-3.2932,-3.2916,-3.29,-3.29,-3.29,-3.29,-3.29,-3.29,-3.2335,-3.1695,-3.1695,-3.0651,-2.9367,-2.8622,-2.7909,-2.728,-2.6901,-2.6501,-2.6202,-2.6202,-2.6202,-2.6202,-2.6202,-2.6202,-2.6061,-2.5594,-2.516,-2.4764,-2.4364,-2.3909,-2.3595,-2.3595,-2.3595,-2.3595,-2.3595,-2.3595,-2.3595,-2.3595,-2.3595,-2.3566,-2.3509,-2.2875,-2.2149,-2.1305,-1.9917,-1.8903,-1.8279,-1.7978,-1.7827,-1.7827,-1.7827,-1.8103,-1.8619,-1.8619,-1.8907,-1.6994,-1.7871,-1.8769,-2.1188,0.0,-2.3922,-2.4049,-2.3795,0.0,0.0,0.0,0.0,0.0,-2.6084,-2.7381,-2.921,-2.9617,-3.0256,-3.1954,-3.2534,-3.2935,-3.335,-3.3577,-3.3633,-3.3408,-3.3393,-3.3393,-3.3393,-3.3393,-3.3393,-3.3393,-3.3393,-3.3393,-3.3393,-3.3393,-3.3393,-3.3393,-3.3393,-3.3393,-3.3393,-3.3393,-3.3393,-3.3393,-3.3393,-3.3393,-3.3393,-3.3393,-3.3393,-3.3393,-3.3393,-3.3393,-3.3393,-3.3393,-3.3364,-3.3319,-3.3117,-3.2995,-3.29,-3.29,-3.29,-3.29,-3.29,-3.29,-3.29,-3.29,-3.2335,-3.1695,-3.1695,-3.0987,-3.0108,-2.9546,-2.8903,-2.821,-2.7464,-2.6868,-2.6419,-2.6235,-2.6202,-2.6202,-2.6202,-2.6202,-2.6061,-2.5594,-2.516,-2.4764,-2.4364,-2.3909,-2.3595,-2.3595,-2.3595,-2.3595,-2.3595,-2.3595,-2.3595,-2.3588,-2.3545,-2.3436,-2.3238,-2.2235,-2.1633,-2.1609,-2.0082,-1.9158,-1.9008,-1.8594,-1.8392,-1.8392,-1.8392,-1.8657,-1.9183,-1.9183,-1.9396,-1.9196,-1.954,-1.9594,-2.2011,-2.1622,-2.1387,-2.4266,-2.3813,0.0,-2.5588,0.0,0.0,0.0,-2.7369,-2.8491,-2.8654,-3.0527,-3.2027,-3.2194,-3.2846,-3.3368,-3.3393,-3.3408,-3.3408,-3.3393,-3.3393,-3.3393,-3.3393,-3.3393,-3.3393,-3.3393,-3.3393,-3.3393,-3.3393,-3.3393,-3.3393,-3.3393,-3.3393,-3.3393,-3.3393,-3.3393,-3.3393,-3.3393,-3.3393,-3.3393,-3.3393,-3.3393,-3.3393,-3.3393,-3.3393,-3.3393,-3.3393,-3.3393,-3.3289,-3.3101,-3.2979,-3.2916,-3.29,-3.29,-3.29,-3.29,-3.29,-3.29,-3.29,-3.29,-3.2335,-3.1695,-3.1695,-3.0635,-2.9463,-2.9397,-2.8903,-2.821,-2.7464,-2.7249,-2.7033,-2.6352,-2.6202,-2.6202,-2.6202,-2.6202,-2.6061,-2.5594,-2.516,-2.4764,-2.4364,-2.3909,-2.3595,-2.3595,-2.3595,-2.3595,-2.3595,-2.3595,-2.3566,-2.3509,-2.3385,-2.3046,-2.2443,-2.2016,-2.1732,-2.1609,-2.0521,-1.9649,-1.9008,-1.8958,-1.8945,-1.8945,-1.8945,-1.9208,-1.9748,-1.9748,-1.9761,-1.8208,-1.895,-1.9685,-2.2101,-2.26,0.0,0.0,-2.5323,-2.6011,-2.7405,-2.7695,0.0,-2.8341,-2.854,-2.9088,-3.0591,-3.1184,-3.1799,-3.2814,-3.3212,-3.3393,-3.3393,-3.3393,-3.3393,-3.3393,-3.3393,-3.3393,-3.3393,-3.3393,-3.3393,-3.3393,-3.3393,-3.3393,-3.3393,-3.3393,-3.3393,-3.3393,-3.3393,-3.3393,-3.3393,-3.3393,-3.3393,-3.3393,-3.3393,-3.3393,-3.3393,-3.3393,-3.3393,-3.3393,-3.3393,-3.3393,-3.3411,-3.3352,-3.3244,-3.3086,-3.2995,-3.2932,-3.29,-3.29,-3.29,-3.29,-3.29,-3.29,-3.29,-3.29,-3.2018,-3.111,-3.1557,-3.0584,-2.9496,-2.9959,-2.8903,-2.7746,-2.7945,-2.7282,-2.6535,-2.6252,-2.6202,-2.6202,-2.6202,-2.6202,-2.615,-2.5972,-2.5365,-2.4843,-2.4699,-2.4063,-2.3595,-2.3595,-2.3595,-2.3595,-2.3595,-2.3595,-2.3588,-2.3566,-2.3392,-2.3194,-2.2934,-2.2072,-2.1382,-2.0993,-2.0258,-1.9774,-1.951,-1.951,-1.951,-1.951,-1.951,-1.961,-1.9798,-1.9798,-1.9798,-1.7972,-1.8878,-1.9992,-2.2156,0.0,0.0,-2.5081,-2.624,-2.7387,-2.8708,-2.8781,-2.8853,-2.9658,-2.9137,-2.9306,-3.1473,-3.1564,-3.1854,-3.3212,-3.3393,-3.3393,-3.3393,-3.3393,-3.3393,-3.3393,-3.3393,-3.3393,-3.3393,-3.3393,-3.3393,-3.3393,-3.3393,-3.3393,-3.3393,-3.3393,-3.3393,-3.3393,-3.3393,-3.3393,-3.3393,-3.3393,-3.3393,-3.3393,-3.3393,-3.3393,-3.3393,-3.3393,-3.3393,-3.3393,-3.3393,-3.3393,-3.3396,-3.3274,-3.3165,-3.3086,-3.3011,-3.2932,-3.29,-3.29,-3.29,-3.2884,-3.2753,-3.2705,-3.2635,-3.2271,-3.1359,-3.0466,-3.0739,-2.9814,-2.892,-2.9648,-2.8903,-2.7978,-2.8028,-2.7282,-2.6485,-2.6252,-2.6202,-2.6202,-2.6202,-2.6202,-2.615,-2.6008,-2.5384,-2.4863,-2.4739,-2.4084,-2.3595,-2.3595,-2.3595,-2.3595,-2.3595,-2.3595,-2.3573,-2.3523,-2.337,-2.3127,-2.2717,-2.187,-2.1248,-2.087,-2.0169,-1.9798,-1.9798,-1.9798,-1.9798,-1.9798,-1.9798,-1.9798,-1.9798,-1.9798,-1.9798,-1.9086,-1.9685,-2.0699,-2.2282,0.0,0.0,-2.5667,-2.6204,-2.6892,-2.9295,-2.9174,-2.8853,-2.9658,-2.9156,-2.9143,-3.0749,-3.1673,-3.2488,-3.3284,-3.3393,-3.3393,-3.3393,-3.3393,-3.3393,-3.3393,-3.3393,-3.3393,-3.3393,-3.3393,-3.3393,-3.3393,-3.3393,-3.3393,-3.3393,-3.3393,-3.3393,-3.3393,-3.3393,-3.3393,-3.3393,-3.3393,-3.3393,-3.3393,-3.3393,-3.3393,-3.3393,-3.3393,-3.3393,-3.3393,-3.3393,-3.3393,-3.3378,-3.318,-3.3101,-3.3086,-3.2948,-3.29,-3.29,-3.29,-3.29,-3.2818,-3.2403,-3.2283,-3.2056,-3.0941,-3.0307,-2.9839,-2.9113,-2.8131,-2.7464,-2.8194,-2.887,-2.9036,-2.763,-2.7282,-2.71,-2.6369,-2.6202,-2.6202,-2.6202,-2.6202,-2.6061,-2.5594,-2.516,-2.4764,-2.4364,-2.3909,-2.3595,-2.3595,-2.3595,-2.3595,-2.3595,-2.3595,-2.3523,-2.3319,-2.3297,-2.2777,-2.1489,-2.1417,-2.1393,-2.1393,-2.0358,-1.9798,-1.9798,-1.9798,-1.9798,-1.9798,-1.9798,-1.9798,-1.9798,-1.9798,-1.9798,-1.8421,-1.9666,0.0,-2.1739,0.0,0.0,0.0,-2.6204,0.0,0.0,-2.9621,-2.9681,-3.0509,-3.0441,-3.0622,-3.1673,-3.2035,-3.2488,-3.3284,-3.3393,-3.3393,-3.3393,-3.3393,-3.3393,-3.3393,-3.3393,-3.3393,-3.3393,-3.3393,-3.3393,-3.3393,-3.3393,-3.3393,-3.3393,-3.3393,-3.3393,-3.3393,-3.3393,-3.3393,-3.3393,-3.3393,-3.3393,-3.3393,-3.3393,-3.3393,-3.3393,-3.3393,-3.3393,-3.3393,-3.3393,-3.3393,-3.3378,-3.318,-3.3101,-3.3086,-3.2948,-3.2721,-3.2471,-3.2471,-3.2101,-3.1575,-3.122,-3.0905,-3.0584,-3.0005,-2.9213,-2.8572,-2.8825,-2.8131,-2.7348,-2.7564,-2.7763,-2.7829,-2.7398,-2.6901,-2.6468,-2.6252,-2.6202,-2.6202,-2.6202,-2.6202,-2.615,-2.6025,-2.5384,-2.4863,-2.4739,-2.4069,-2.3595,-2.3595,-2.3595,-2.3595,-2.3595,-2.3545,-2.3494,-2.3466,-2.3268,-2.3,-2.2623,-2.1837,-2.1053,-2.0321,-1.9978,-1.9798,-1.9798,-1.9798,-1.9798,-1.9798,-1.9798,-1.9798,-1.9798,-1.9798,-1.9798,-1.9401,-2.107,0.0,-2.3288,-2.5172,-2.6952,-2.7115,0.0,0.0,0.0,-3.0763,-3.0908,-3.1397,-3.1473,-3.165,-3.2125,-3.2469,-3.285,-3.3339,-3.3393,-3.3393,-3.3393,-3.3393,-3.3393,-3.3393,-3.3393,-3.3393,-3.3393,-3.3393,-3.3393,-3.3393,-3.3393,-3.3393,-3.3393,-3.3393,-3.3393,-3.3393,-3.3393,-3.3393,-3.3393,-3.3393,-3.3393,-3.3393,-3.3393,-3.3393,-3.3393,-3.3393,-3.3393,-3.3393,-3.3393,-3.3393,-3.3378,-3.318,-3.3101,-3.3086,-3.2948,-3.2542,-3.2046,-3.1912,-3.1335,-3.0586,-3.0092,-2.9765,-2.9436,-2.8818,-2.8163,-2.7682,-2.7798,-2.7366,-2.6868,-2.6868,-2.6868,-2.6868,-2.6868,-2.6518,-2.6202,-2.6202,-2.6202,-2.6202,-2.6202,-2.6202,-2.6202,-2.6202,-2.5476,-2.4902,-2.4902,-2.4152,-2.3595,-2.3595,-2.3595,-2.3595,-2.3595,-2.3538,-2.3487,-2.3444,-2.3223,-2.2992,-2.2752,-2.1884,-2.1004,-2.0156,-1.9901,-1.9798,-1.9798,-1.9798,-1.9798,-1.9798,-1.9798,-1.9798,-1.9798,-1.9798,-1.9798,-2.1034,-2.2944,-2.499,-2.5787,-2.6149,0.0,-2.8346,-2.9898,-3.122,-3.2035,-3.2198,-3.2216,-3.2288,-3.2306,-3.2306,-3.2306,-3.2922,-3.3393,-3.3393,-3.3393,-3.3393,-3.3393,-3.3393,-3.3393,-3.3393,-3.3393,-3.3393,-3.3393,-3.3393,-3.3393,-3.3393,-3.3393,-3.3393,-3.3393,-3.3393,-3.3393,-3.3393,-3.3393,-3.3393,-3.3393,-3.3393,-3.3393,-3.3393,-3.3393,-3.3393,-3.3393,-3.3393,-3.3393,-3.3393,-3.3393,-3.3393,-3.3378,-3.3105,-3.2993,-3.2978,-3.2735,-3.2159,-3.1458,-3.112,-3.0462,-2.9685,-2.897,-2.8721,-2.8516,-2.7494,-2.7199,-2.7066,-2.6402,-2.6202,-2.6202,-2.6202,-2.6202,-2.6202,-2.6202,-2.6202,-2.6202,-2.6202,-2.6202,-2.6202,-2.6202,-2.6202,-2.6202,-2.6202,-2.5476,-2.4863,-2.4784,-2.411,-2.3595,-2.3595,-2.3595,-2.3595,-2.3588,-2.3538,-2.3444,-2.3297,-2.3171,-2.2843,-2.2301,-2.1718,-2.1175,-2.0684,-2.0105,-1.9798,-1.9798,-1.9798,-1.9798,-1.9798,-1.9798,-1.9798,-1.9798,-1.9798,-1.9798,-1.9061,-2.0934,0.0,-2.4121,-2.5751,-2.7562,-2.9186,-3.031,-3.122,-3.2035,-3.2198,-3.2379,-3.3031,-3.314,-3.314,-3.314,-3.3284,-3.3393,-3.3393,-3.3393,-3.3393,-3.3393,-3.3393,-3.3393,-3.3393,-3.3393,-3.3393,-3.3393,-3.3393,-3.3393,-3.3393,-3.3393,-3.3393,-3.3393,-3.3393,-3.3393,-3.3393,-3.3393,-3.3393,-3.3393,-3.3393,-3.3393,-3.3393,-3.3393,-3.3393,-3.3393,-3.3393,-3.3393,-3.3393,-3.3393,-3.3393,-3.3324,-3.2544,-3.2232,-3.2116,-3.1024,-3.0356,-2.9918,-2.9522,-2.8903,-2.8202,-2.7792,-2.7426,-2.7079,-2.6594,-2.6452,-2.6402,-2.6235,-2.6202,-2.6202,-2.6202,-2.6202,-2.6202,-2.6202,-2.6202,-2.6202,-2.6202,-2.6202,-2.6202,-2.6202,-2.6202,-2.6202,-2.6202,-2.5476,-2.4684,-2.3985,-2.3724,-2.3595,-2.3595,-2.3595,-2.3588,-2.3516,-2.3407,-2.3275,-2.3135,-2.3015,-2.2888,-2.2752,-2.1884,-2.1345,-2.1224,-2.0321,-1.9798,-1.9798,-1.9798,-1.9798,-1.9798,-1.9798,-1.9798,-1.9798,-1.9798,-1.9798,-1.9597,0.0,0.0,-2.5715,0.0,-2.8757,-2.9603,-3.0418,-3.1125,-3.1542,-3.2234,-3.2904,-3.3321,-3.3393,-3.3393,-3.3393,-3.3393,-3.3393,-3.3393,-3.3393,-3.3393,-3.3393,-3.3393,-3.3393,-3.3393,-3.3393,-3.3393,-3.3393,-3.3393,-3.3393,-3.3393,-3.3393,-3.3393,-3.3393,-3.3031,-3.2832,-3.2832,-3.2433,-3.2252,-3.2252,-3.2252,-3.2252,-3.2252,-3.2651,-3.2832,-3.2795,-3.2415,-3.2252,-3.2252,-3.2252,-3.2252,-3.2202,-3.1643,-3.1317,-3.1097,-3.0284,-2.9546,-2.8921,-2.8543,-2.7927,-2.7214,-2.6877,-2.6628,-2.6417,-2.6257,-2.6202,-2.6202,-2.6202,-2.6202,-2.6202,-2.6202,-2.6202,-2.6202,-2.6202,-2.6202,-2.6202,-2.6202,-2.6202,-2.6202,-2.6202,-2.6202,-2.6202,-2.6202,-2.5476,-2.4603,-2.3724,-2.3595,-2.3595,-2.3595,-2.3566,-2.3538,-2.3509,-2.3312,-2.3194,-2.3105,-2.2992,-2.2888,-2.2888,-2.2194,-2.167,-2.1417,-2.0622,-2.0055,-1.9811,-1.9798,-1.9798,-1.9798,-1.9798,-1.9798,-1.9798,-1.9798,-1.9798,-2.0152,0.0,-2.5256,-2.7598,-2.8793,0.0,-2.9567,-3.0219,-3.0799,-3.0799,-3.1962,-3.3031,-3.3176,-3.3194,-3.3248,-3.3375,-3.3393,-3.3393,-3.3393,-3.3393,-3.3393,-3.3393,-3.3393,-3.3393,-3.3393,-3.3393,-3.3393,-3.3393,-3.3393,-3.3339,-3.3194,-3.3194,-3.314,-3.2995,-3.2343,-3.1981,-3.1981,-3.1329,-3.0998,-3.0998,-3.0998,-3.0998,-3.1034,-3.1546,-3.1854,-3.1962,-3.1288,-3.0998,-3.0998,-3.0998,-3.0998,-3.0985,-3.0692,-3.0391,-3.0054,-2.9665,-2.8924,-2.8063,-2.7725,-2.7164,-2.6572,-2.6292,-2.6202,-2.6202,-2.6202,-2.6202,-2.6202,-2.6202,-2.6202,-2.6202,-2.6202,-2.6202,-2.6202,-2.6202,-2.6202,-2.6202,-2.6202,-2.6202,-2.6202,-2.6202,-2.6115,-2.6061,-2.5989,-2.5323,-2.4522,-2.3717,-2.3595,-2.3588,-2.3551,-2.3516,-2.3487,-2.3444,-2.3238,-2.3082,-2.306,-2.297,-2.2888,-2.2888,-2.2463,-2.1945,-2.1417,-2.087,-2.0359,-1.9798,-1.9798,-1.9798,-1.9798,-1.9798,-1.9798,-1.9798,-1.9798,-1.9798,-1.7348,0.0,-2.3575,0.0,-2.7133,-2.7894,0.0,0.0,-2.9965,-2.9965,-3.069,-3.1528,-3.2234,-3.2361,-3.2596,-3.3284,-3.3393,-3.3393,-3.3393,-3.3393,-3.3393,-3.3393,-3.3393,-3.3393,-3.3393,-3.3393,-3.3393,-3.3393,-3.3393,-3.3103,-3.2397,-3.2361,-3.2035,-3.1342,-3.1234,-3.1148,-3.1148,-3.1053,-3.0998,-3.0998,-3.0998,-3.0998,-3.098,-3.04,-3.0509,-3.1161,-3.1053,-3.0998,-3.0998,-3.0998,-3.0998,-3.093,-3.0075,-2.9565,-2.9107,-2.8001,-2.7309,-2.6877,-2.6532,-2.6358,-2.6257,-2.6203,-2.6202,-2.6202,-2.6202,-2.6202,-2.6202,-2.6202,-2.6202,-2.6202,-2.6202,-2.6202,-2.6202,-2.6202,-2.6202,-2.6202,-2.6202,-2.6202,-2.6202,-2.6202,-2.5883,-2.5481,-2.5137,-2.4679,-2.4177,-2.3603,-2.3566,-2.3545,-2.3363,-2.3429,-2.34,-2.3171,-2.3127,-2.306,-2.2947,-2.2925,-2.2888,-2.2888,-2.2463,-2.1945,-2.1417,-2.087,-2.0359,-1.9798,-1.9798,-1.9798,-1.9798,-1.9798,-1.9798,-1.9798,-1.9798,-1.9798,-1.9437,-2.2062,-2.4511,0.0,-2.7477,-2.8057,-2.7948,-2.8545,-2.9137,-2.9137,-2.9409,-3.0043,-3.1292,-3.1528,-3.1781,-3.2596,-3.2723,-3.2886,-3.3339,-3.3013,-3.2886,-3.3357,-3.2596,-3.2415,-3.3302,-3.2995,-3.2723,-3.2723,-3.2723,-3.2379,-3.1564,-3.1528,-3.1379,-3.1016,-3.0563,-3.0328,-3.0328,-2.988,-2.9663,-2.9663,-2.9663,-2.9663,-2.9644,-2.93,-2.9572,-3.031,-2.9844,-2.9663,-2.9663,-2.9663,-2.9663,-2.9587,-2.8909,-2.8439,-2.8047,-2.722,-2.6708,-2.6416,-2.6257,-2.6202,-2.6202,-2.6202,-2.6202,-2.6202,-2.6202,-2.6202,-2.6202,-2.6202,-2.6202,-2.6202,-2.6202,-2.6202,-2.6202,-2.6202,-2.6202,-2.6202,-2.6202,-2.6202,-2.6202,-2.6202,-2.5811,-2.537,-2.4962,-2.4574,-2.4114,-2.3575,-2.356,-2.3566,-2.3429,-2.3466,-2.3444,-2.3334,-2.3194,-2.3082,-2.3015,-2.2947,-2.2888,-2.2888,-2.2463,-2.1945,-2.1417,-2.087,-2.0359,-1.9798,-1.9798,-1.9798,-1.9798,-1.9798,-1.9798,-1.9798,-1.9798,-1.9798,0.0,0.0,-2.4143,-2.6293,-2.7429,-2.796,0.0,-2.8165,-2.86,-2.86,-2.86,-2.8962,-3.017,-3.055,-3.0962,-3.1763,-3.189,-3.2089,-3.2705,-3.227,-3.2125,-3.2723,-3.1727,-3.1473,-3.2669,-3.2252,-3.189,-3.189,-3.189,-3.1528,-3.0745,-3.0708,-3.06,-3.0387,-2.9807,-2.9513,-2.9513,-2.8889,-2.86,-2.86,-2.86,-2.86,-2.86,-2.86,-2.8925,-2.9463,-2.8853,-2.86,-2.86,-2.86,-2.86,-2.8562,-2.8183,-2.7768,-2.7348,-2.6971,-2.6555,-2.6202,-2.6202,-2.6202,-2.6202,-2.6202,-2.6202,-2.6202,-2.6202,-2.6202,-2.6202,-2.6202,-2.6202,-2.6202,-2.6202,-2.6202,-2.6202,-2.6202,-2.6202,-2.6202,-2.6202,-2.6202,-2.6202,-2.6202,-2.5738,-2.5256,-2.4962,-2.4477,-2.3967,-2.3531,-2.3516,-2.3523,-2.3422,-2.3422,-2.3466,-2.3466,-2.3238,-2.3105,-2.3105,-2.2992,-2.2888,-2.2888,-2.2463,-2.1945,-2.1417,-2.087,-2.0359,-1.9798,-1.9798,-1.9798,-1.9798,-1.9798,-1.9798,-1.9798,-1.9798,-1.9798,0.0,-1.8919,0.0,-2.427,-2.583,-2.6787,-2.8214,-2.8582,-2.86,-2.86,-2.86,-2.8636,-2.8708,-2.9355,-3.0129,-3.0926,-3.1057,-3.1089,-3.1125,-3.1089,-3.1089,-3.1125,-3.1053,-3.1034,-3.1125,-3.1089,-3.1057,-3.1057,-3.1057,-3.0708,-2.9911,-2.9857,-2.95,-2.8744,-2.869,-2.8654,-2.8654,-2.8618,-2.86,-2.86,-2.86,-2.86,-2.86,-2.86,-2.8618,-2.8654,-2.8618,-2.86,-2.86,-2.86,-2.86,-2.8574,-2.8432,-2.7971,-2.7378,-2.7227,-2.6758,-2.6202,-2.6202,-2.6202,-2.6202,-2.6202,-2.6202,-2.6202,-2.6202,-2.6202,-2.6202,-2.6202,-2.6202,-2.6202,-2.6202,-2.6202,-2.6202,-2.6202,-2.6202,-2.6202,-2.6202,-2.6202,-2.6202,-2.6202,-2.5513,-2.4922,-2.4902,-2.4194,-2.3566,-2.3341,-2.3422,-2.34,-2.3149,-2.3223,-2.3319,-2.3319,-2.3179,-2.3105,-2.3105,-2.2992,-2.2888,-2.2888,-2.2463,-2.1945,-2.1417,-2.087,-2.0359,-1.9798,-1.9798,-1.9798,-1.9798,-1.9798,-1.9798,-1.9798,-1.9798,-1.9798,0.0,0.0,0.0,-2.3164,-2.4961,-2.6436,-2.6993,-2.7882,-2.86,-2.86,-2.86,-2.86,-2.86,-2.8835,-2.93,-3.011,-3.0237,-3.0418,-3.0926,-3.0563,-3.0418,-3.0944,-3.0097,-2.9862,-3.0908,-3.0491,-3.0184,-3.0237,-3.0184,-2.9827,-2.907,-2.9029,-2.8889,-2.8618,-2.86,-2.86,-2.86,-2.86,-2.86,-2.86,-2.8378,-2.8378,-2.8587,-2.8383,-2.8396,-2.86,-2.86,-2.86,-2.86,-2.86,-2.8574,-2.8479,-2.7971,-2.7592,-2.7272,-2.6758,-2.6399,-2.6202,-2.6202,-2.6202,-2.6202,-2.6202,-2.6202,-2.6202,-2.6202,-2.6202,-2.6202,-2.6202,-2.6202,-2.6202,-2.6202,-2.6202,-2.6202,-2.6202,-2.6202,-2.6202,-2.6202,-2.6202,-2.6202,-2.6202,-2.5495,-2.4902,-2.4902,-2.4173,-2.353,-2.3341,-2.3407,-2.34,-2.3127,-2.329,-2.3444,-2.3444,-2.3378,-2.3312,-2.3246,-2.3105,-2.2865,-2.2486,-2.1969,-2.1455,-2.0919,-2.0371,-2.0003,-1.9798,-1.9798,-1.9798,-1.9798,-1.9798,-1.9798,-1.9798,-1.9798,-1.9798,-1.7094,0.0,0.0,0.0,-2.3984,-2.5397,-2.6459,-2.7489,-2.8201,-2.8201,-2.8419,-2.86,-2.86,-2.86,-2.8763,-2.93,-2.9391,-2.9572,-3.0115,-2.9735,-2.959,-3.0133,-2.9251,-2.9016,-3.0097,-2.9651,-2.9331,-2.9365,-2.9313,-2.9083,-2.858,-2.8587,-2.86,-2.86,-2.86,-2.86,-2.86,-2.86,-2.86,-2.8587,-2.8255,-2.8215,-2.8422,-2.8106,-2.8097,-2.8291,-2.8383,-2.8492,-2.86,-2.86,-2.8562,-2.844,-2.7811,-2.7454,-2.7208,-2.6607,-2.631,-2.6202,-2.6202,-2.6202,-2.6202,-2.6202,-2.6202,-2.6202,-2.6202,-2.6202,-2.6202,-2.6202,-2.6202,-2.6202,-2.6202,-2.6202,-2.6202,-2.6202,-2.6202,-2.615,-2.599,-2.6079,-2.615,-2.599,-2.5384,-2.4863,-2.4719,-2.4063,-2.3501,-2.3319,-2.3334,-2.3305,-2.3127,-2.326,-2.3378,-2.3444,-2.34,-2.3334,-2.3246,-2.3112,-2.2797,-2.2254,-2.1694,-2.1151,-2.061,-2.008,-1.9798,-1.9798,-1.9798,-1.9798,-1.9798,-1.9798,-1.9798,-1.9798,-1.9798,-1.9798,0.0,0.0,0.0,0.0,-2.2757,-2.3565,-2.6663,-2.732,-2.7314,-2.7387,-2.8002,-2.8545,-2.86,-2.86,-2.86,-2.86,-2.86,-2.86,-2.86,-2.86,-2.86,-2.86,-2.86,-2.86,-2.86,-2.8549,-2.851,-2.8492,-2.851,-2.851,-2.8492,-2.8562,-2.86,-2.86,-2.86,-2.86,-2.86,-2.86,-2.8587,-2.8587,-2.8242,-2.8088,-2.8088,-2.7815,-2.7701,-2.7698,-2.7982,-2.8268,-2.8574,-2.8587,-2.8549,-2.8427,-2.8024,-2.7619,-2.7241,-2.6824,-2.6486,-2.6202,-2.6202,-2.6202,-2.6202,-2.6202,-2.6202,-2.6202,-2.6202,-2.6202,-2.6202,-2.6202,-2.6202,-2.6202,-2.6202,-2.6202,-2.6202,-2.6202,-2.6185,-2.6061,-2.5594,-2.5846,-2.6043,-2.5575,-2.516,-2.4759,-2.4364,-2.3855,-2.3466,-2.3319,-2.3179,-2.3105,-2.3105,-2.3105,-2.3149,-2.3275,-2.3179,-2.3105,-2.3105,-2.297,-2.2684,-2.2208,-2.167,-2.1126,-2.061,-2.008,-1.9798,-1.9798,-1.9798,-1.9798,-1.9798,-1.9798,-1.9798,-1.9798,-1.9798,-1.9798,-1.6732,0.0,0.0,0.0,0.0,0.0,-2.3717,-2.4428,-2.5298,-2.7043,-2.7115,-2.7224,-2.8382,-2.86,-2.86,-2.86,-2.86,-2.86,-2.86,-2.86,-2.86,-2.86,-2.86,-2.86,-2.86,-2.8497,-2.8445,-2.851,-2.8458,-2.8445,-2.851,-2.8562,-2.86,-2.86,-2.86,-2.86,-2.86,-2.86,-2.8479,-2.8228,-2.794,-2.7815,-2.78,-2.7474,-2.7476,-2.7698,-2.7786,-2.7858,-2.7957,-2.8147,-2.8079,-2.78,-2.7363,-2.7082,-2.689,-2.6486,-2.6292,-2.6202,-2.6202,-2.6202,-2.6202,-2.6202,-2.6202,-2.6202,-2.6202,-2.6202,-2.6202,-2.6202,-2.6202,-2.6202,-2.6202,-2.6202,-2.6202,-2.6202,-2.5954,-2.5666,-2.5521,-2.5368,-2.523,-2.5098,-2.4739,-2.4431,-2.4323,-2.3855,-2.3487,-2.3466,-2.326,-2.3105,-2.3105,-2.3105,-2.3105,-2.3135,-2.3201,-2.3201,-2.3105,-2.27,-2.2212,-2.167,-2.1115,-2.0572,-2.0029,-1.9875,-1.9798,-1.9798,-1.9798,-1.9798,-1.9798,-1.9798,-1.9798,-1.9798,-1.9798,-1.9798,-1.7722,-1.8585,0.0,-1.9659,0.0,0.0,-2.2909,-2.3541,-2.4324,-2.6059,-2.6283,-2.6482,-2.7423,-2.7876,-2.8093,-2.8093,-2.8382,-2.86,-2.86,-2.86,-2.86,-2.86,-2.86,-2.86,-2.86,-2.8375,-2.8295,-2.8445,-2.8322,-2.8322,-2.8536,-2.8574,-2.86,-2.86,-2.86,-2.86,-2.86,-2.86,-2.8435,-2.8102,-2.7844,-2.7627,-2.7491,-2.7132,-2.7101,-2.7289,-2.7428,-2.7413,-2.7305,-2.7589,-2.7681,-2.755,-2.7082,-2.6873,-2.6758,-2.6346,-2.6202,-2.6202,-2.6202,-2.6202,-2.6202,-2.6202,-2.6202,-2.6202,-2.6202,-2.6202,-2.6202,-2.6202,-2.6202,-2.6202,-2.6202,-2.6061,-2.5954,-2.615,-2.5701,-2.5237,-2.5237,-2.4942,-2.4639,-2.4639,-2.4451,-2.424,-2.4036,-2.3689,-2.3422,-2.3422,-2.3179,-2.3015,-2.3015,-2.3015,-2.3015,-2.3015,-2.309,-2.309,-2.3015,-2.254,-2.2002,-2.1441,-2.0894,-2.0359,-1.9824,-1.9798,-1.9798,-1.9798,-1.9798,-1.9798,-1.9798,-1.9798,-1.9798,-1.9798,-1.9798,-1.9798,-1.8915,-1.9557,0.0,-2.1492,-2.1219,0.0,-2.3167,-2.3618,-2.3847,-2.4585,-2.5244,-2.5769,-2.6011,-2.6645,-2.7152,-2.7242,-2.7923,-2.8453,-2.8582,-2.8574,-2.8531,-2.8531,-2.8531,-2.8531,-2.8531,-2.8206,-2.8097,-2.8327,-2.811,-2.8138,-2.8479,-2.8536,-2.8518,-2.851,-2.851,-2.851,-2.851,-2.851,-2.8331,-2.8006,-2.7771,-2.7476,-2.7133,-2.6841,-2.6691,-2.6708,-2.7021,-2.6972,-2.6725,-2.7021,-2.7274,-2.7459,-2.7018,-2.6807,-2.6708,-2.6346,-2.6202,-2.6202,-2.6202,-2.6202,-2.6202,-2.6202,-2.6202,-2.6202,-2.6202,-2.6202,-2.6202,-2.6202,-2.6202,-2.6202,-2.6202,-2.5848,-2.5612,-2.6008,-2.5457,-2.4823,-2.4823,-2.4513,-2.4219,-2.4219,-2.4219,-2.4094,-2.3659,-2.3436,-2.3319,-2.3319,-2.309,-2.2925,-2.2925,-2.2925,-2.2888,-2.2888,-2.2888,-2.2888,-2.2888,-2.2417,-2.1898,-2.1441,-2.0845,-2.0308,-1.9824,-1.9798,-1.9798,-1.9798,-1.9798,-1.9798,-1.9798,-1.9798,-1.9798,-1.9798,-1.9798,-1.9798,-2.1335,-2.1317,-2.1418,-2.0898,-2.1595,0.0,-2.1315,-2.1589,-2.2252,-2.3004,-2.2765,-2.2998,-2.49,-2.5353,-2.5679,-2.6331,-2.6926,-2.76,-2.8484,-2.8383,-2.8201,-2.8201,-2.8201,-2.8201,-2.8201,-2.8079,-2.8014,-2.8,-2.794,-2.7915,-2.789,-2.8079,-2.8093,-2.7872,-2.789,-2.789,-2.789,-2.789,-2.7698,-2.7382,-2.7321,-2.7117,-2.6791,-2.6725,-2.6691,-2.6708,-2.6775,-2.6758,-2.6708,-2.6775,-2.6841,-2.6858,-2.6657,-2.6572,-2.6537,-2.6292,-2.6202,-2.6202,-2.6202,-2.6202,-2.6202,-2.6202,-2.6202,-2.6202,-2.6202,-2.6202,-2.6202,-2.6202,-2.6202,-2.6202,-2.6202,-2.5848,-2.5521,-2.5612,-2.5001,-2.4426,-2.4426,-2.4057,-2.3739,-2.3739,-2.3739,-2.3717,-2.3616,-2.3436,-2.3341,-2.3444,-2.3135,-2.2947,-2.306,-2.297,-2.2888,-2.2888,-2.2888,-2.2888,-2.2888,-2.2063,-2.1513,-2.1417,-2.0497,-1.9901,-1.9798,-1.9798,-1.9798,-1.9798,-1.9798,-1.9798,-1.9798,-1.9798,-1.9798,-1.9798,-1.9798,-1.9798,-2.2721,-2.2685,-2.2887,-2.2447,-2.2658,0.0,0.0,-2.1935,-2.1963,-2.31,-2.236,-2.1977,-2.3565,-2.4142,-2.452,-2.4936,-2.5793,-2.6647,-2.7314,-2.7692,-2.7897,-2.7897,-2.7897,-2.7936,-2.8088,-2.7954,-2.7844,-2.7815,-2.7883,-2.7886,-2.7716,-2.7844,-2.7826,-2.7698,-2.7701,-2.7701,-2.7701,-2.7701,-2.7537,-2.7197,-2.7197,-2.7021,-2.6691,-2.6691,-2.6691,-2.6691,-2.6691,-2.6691,-2.6691,-2.6691,-2.6691,-2.6674,-2.6555,-2.6502,-2.6468,-2.6257,-2.6202,-2.6202,-2.6202,-2.6202,-2.6202,-2.6202,-2.6202,-2.6202,-2.6202,-2.6202,-2.6202,-2.6202,-2.6202,-2.615,-2.5901,-2.5535,-2.5198,-2.5198,-2.4563,-2.403,-2.424,-2.3931,-2.3595,-2.3595,-2.3595,-2.3595,-2.3595,-2.3436,-2.3319,-2.3385,-2.3112,-2.2925,-2.2992,-2.2947,-2.2888,-2.2888,-2.2888,-2.2888,-2.2888,-2.1978,-2.1393,-2.1393,-2.0383,-1.9798,-1.9798,-1.9798,-1.9798,-1.9798,-1.9798,-1.9798,-1.9798,-1.9798,-1.9798,-1.9798,-1.9798,-1.9798,-2.4098,-2.4171,-2.4612,-2.4465,-2.4061,-2.373,0.0,0.0,0.0,-2.3349,-2.2453,-2.1743,-2.2542,-2.3047,-2.3387,-2.35,-2.4496,-2.5319,-2.55,-2.6427,-2.7195,-2.7528,-2.756,-2.7713,-2.8071,-2.7589,-2.7338,-2.7577,-2.7475,-2.7422,-2.7502,-2.7582,-2.7565,-2.7504,-2.7504,-2.7504,-2.7504,-2.7504,-2.7367,-2.7101,-2.7101,-2.6956,-2.6691,-2.6691,-2.6691,-2.6691,-2.6691,-2.6691,-2.6691,-2.6691,-2.6691,-2.6674,-2.6555,-2.6502,-2.6468,-2.6257,-2.6202,-2.6202,-2.6202,-2.6202,-2.6202,-2.6202,-2.6202,-2.6202,-2.6202,-2.6202,-2.6202,-2.6202,-2.6202,-2.6097,-2.5612,-2.5198,-2.4883,-2.4799,-2.4173,-2.3702,-2.4078,-2.3867,-2.3595,-2.3595,-2.3595,-2.3595,-2.3595,-2.3458,-2.3319,-2.3297,-2.309,-2.2925,-2.2888,-2.2888,-2.2888,-2.2888,-2.2888,-2.2888,-2.2888,-2.1978,-2.1393,-2.1393,-2.0383,-1.9798,-1.9798,-1.9798,-1.9798,-1.9798,-1.9798,-1.9798,-1.9798,-1.9798,-1.9798,-1.9798,-1.9798,-1.9747,-2.6429,-2.6253,-2.6153,-2.5448,-2.5731,-2.5648,-2.3584,0.0,-2.3462,-2.2145,0.0,-2.1752,-2.2556,0.0,0.0,-2.2392,-2.2941,-2.3268,-2.3124,-2.4119,-2.5407,-2.6899,-2.7081,-2.7362,-2.8031,-2.6568,-2.6033,-2.7172,-2.5967,-2.5657,-2.674,-2.7101,-2.7117,-2.6825,-2.6808,-2.6808,-2.6808,-2.6808,-2.6791,-2.6758,-2.6758,-2.6741,-2.6691,-2.6691,-2.6691,-2.6691,-2.6691,-2.6691,-2.6691,-2.6691,-2.6691,-2.6674,-2.6555,-2.6502,-2.6468,-2.6257,-2.6202,-2.6202,-2.6202,-2.6202,-2.6202,-2.6202,-2.6202,-2.6202,-2.6202,-2.6202,-2.6202,-2.6202,-2.6202,-2.6097,-2.5612,-2.5198,-2.4803,-2.4451,-2.3973,-2.3616,-2.3659,-2.3653,-2.3595,-2.3595,-2.3595,-2.3595,-2.3595,-2.3523,-2.3444,-2.3319,-2.3179,-2.3037,-2.2925,-2.2888,-2.2888,-2.2888,-2.2888,-2.2888,-2.2888,-2.1978,-2.1393,-2.1393,-2.0383,-1.9798,-1.9798,-1.9798,-1.9798,-1.9798,-1.9798,-1.9798,-1.9798,-1.9798,-1.9798,-1.9798,-1.9798,-1.9552,-2.6833,-2.6602,-2.6521,-2.6172,-2.5988,-2.565,-2.4612,-2.379,-2.3151,-2.2884,0.0,0.0,0.0,0.0,0.0,0.0,-2.1458,-2.152,-2.158,-2.1901,-2.2962,-2.5291,-2.5548,-2.5813,-2.648,-2.5569,-2.5464,-2.669,-2.5628,-2.5442,-2.664,-2.6841,-2.6841,-2.6708,-2.6691,-2.6691,-2.6691,-2.6691,-2.6691,-2.6691,-2.6691,-2.6691,-2.6691,-2.6691,-2.6691,-2.6691,-2.6691,-2.6691,-2.6691,-2.6691,-2.6691,-2.6674,-2.6555,-2.6502,-2.6468,-2.6257,-2.6202,-2.6202,-2.6202,-2.6202,-2.6202,-2.6202,-2.6202,-2.6202,-2.6202,-2.6202,-2.6202,-2.6202,-2.6202,-2.6043,-2.5329,-2.504,-2.4724,-2.4042,-2.3739,-2.3595,-2.3595,-2.3595,-2.3595,-2.3595,-2.3595,-2.3595,-2.3595,-2.3538,-2.3466,-2.3319,-2.3179,-2.306,-2.2925,-2.2888,-2.2888,-2.2888,-2.2888,-2.2797,-2.2509,-2.1813,-2.1272,-2.0968,-2.022,-1.9798,-1.9798,-1.9798,-1.9798,-1.9798,-1.9798,-1.9798,-1.9798,-1.9798,-1.9798,-1.9798,-1.9474,-1.9225,-2.7482,-2.7262,-2.7152,-2.6712,-2.6153,-2.5613,-2.5172,-2.4192,-2.3484,-2.3949,-2.3101,0.0,0.0,0.0,-2.1253,0.0,0.0,-2.0373,-2.0285,-2.0281,-2.1241,-2.3805,-2.4489,-2.4919,-2.5357,-2.4461,-2.4466,-2.5974,-2.478,-2.4663,-2.6302,-2.6404,-2.6488,-2.6691,-2.6691,-2.6691,-2.6691,-2.6691,-2.6691,-2.6691,-2.6691,-2.6691,-2.6691,-2.6691,-2.6691,-2.6691,-2.6691,-2.6691,-2.6691,-2.6691,-2.6691,-2.6674,-2.6555,-2.6502,-2.6468,-2.6257,-2.6202,-2.6202,-2.6202,-2.6202,-2.6202,-2.6202,-2.6202,-2.6202,-2.6202,-2.6202,-2.6202,-2.6202,-2.6202,-2.6007,-2.5134,-2.4902,-2.4684,-2.3809,-2.3595,-2.3595,-2.3595,-2.3595,-2.3595,-2.3595,-2.3595,-2.3595,-2.3595,-2.3545,-2.3473,-2.3319,-2.3223,-2.3105,-2.2925,-2.2888,-2.2888,-2.2888,-2.2775,-2.2555,-2.2231,-2.1575,-2.0944,-2.0409,-2.0029,-1.9798,-1.9798,-1.9798,-1.9798,-1.9798,-1.9798,-1.9798,-1.9798,-1.9798,-1.9798,-1.9798,-1.9239,-1.8991,-2.9133,-2.8932,-2.8546,-2.6987,-2.6583,-2.6153,-2.4593,-2.4795,-2.521,-2.4917,-2.5332,-2.5421,-2.4423,-2.3511,0.0,0.0,0.0,0.0,0.0,-1.9582,-2.0785,-2.2902,-2.4457,-2.5385,-2.5398,-2.3157,-2.263,-2.489,-2.2737,-2.2578,-2.5474,-2.5642,-2.5964,-2.6674,-2.6691,-2.6691,-2.6691,-2.6691,-2.6691,-2.6691,-2.6691,-2.6691,-2.6691,-2.6691,-2.6691,-2.6691,-2.6691,-2.6691,-2.6691,-2.6691,-2.6691,-2.6674,-2.6555,-2.6502,-2.6468,-2.6257,-2.6202,-2.6202,-2.6202,-2.6202,-2.6202,-2.6202,-2.6202,-2.6202,-2.6202,-2.6202,-2.6202,-2.6202,-2.6202,-2.6007,-2.5134,-2.4902,-2.4684,-2.3809,-2.3595,-2.3595,-2.3595,-2.3595,-2.3595,-2.3595,-2.3595,-2.3595,-2.3595,-2.3595,-2.3523,-2.3341,-2.3297,-2.3187,-2.2933,-2.2888,-2.2888,-2.2888,-2.2486,-2.2231,-2.2208,-2.1226,-2.0409,-1.985,-1.9798,-1.9798,-1.9798,-1.9798,-1.9798,-1.9798,-1.9798,-1.9798,-1.9798,-1.9798,-1.9798,-1.9798,-1.9239,-1.8927,-3.0522,-3.021,-2.9537,-2.8455,-2.7657,-2.6715,-2.5092,-2.4791,-2.4827,-2.4676,-2.4722,-2.4799,-2.4874,-2.3228,0.0,0.0,0.0,0.0,0.0,-1.9113,-1.9537,-2.0237,-2.1366,-2.2101,-2.2101,-2.1309,-2.1547,-2.3333,-2.2525,-2.2784,-2.4778,-2.5338,-2.571,-2.5964,-2.6437,-2.6691,-2.6691,-2.6691,-2.6691,-2.6691,-2.6691,-2.6691,-2.6691,-2.6691,-2.6691,-2.6691,-2.6691,-2.6691,-2.6691,-2.6691,-2.6691,-2.6691,-2.6606,-2.6537,-2.6468,-2.6257,-2.6202,-2.6202,-2.6202,-2.6202,-2.6202,-2.6202,-2.6202,-2.6202,-2.6202,-2.6202,-2.615,-2.5811,-2.574,-2.5554,-2.4719,-2.4492,-2.4349,-2.3745,-2.3595,-2.3595,-2.3595,-2.3595,-2.3595,-2.3595,-2.3595,-2.3595,-2.3595,-2.3595,-2.353,-2.3341,-2.3297,-2.3209,-2.2933,-2.2888,-2.2888,-2.2888,-2.2486,-2.2053,-2.1694,-2.0696,-2.0003,-1.9798,-1.9798,-1.9798,-1.9798,-1.9798,-1.9798,-1.9798,-1.9798,-1.9798,-1.9798,-1.9798,-1.979,-1.9721,-1.8809,-1.8545,-3.1329,-3.1029,-3.0418,-2.9605,-2.89,-2.7942,-2.6192,-2.5901,-2.5864,-2.5316,-2.5314,-2.5415,-2.5472,-2.3852,-2.2494,0.0,0.0,0.0,0.0,-1.8674,-1.8504,-1.8504,-1.9541,-2.0372,-2.0659,-2.0196,-2.0612,-2.2432,-2.1898,-2.226,-2.4017,-2.4797,-2.5338,-2.5592,-2.6319,-2.6691,-2.6691,-2.6691,-2.6691,-2.6691,-2.6691,-2.6691,-2.6691,-2.6691,-2.6691,-2.6691,-2.6691,-2.6691,-2.6691,-2.6691,-2.6691,-2.6691,-2.664,-2.6571,-2.6485,-2.631,-2.6221,-2.6202,-2.6202,-2.6202,-2.6202,-2.6202,-2.6202,-2.6168,-2.599,-2.5937,-2.5864,-2.5424,-2.5294,-2.5121,-2.4472,-2.4302,-2.4177,-2.3702,-2.3595,-2.3595,-2.3595,-2.3595,-2.3595,-2.3595,-2.3595,-2.3595,-2.3595,-2.3595,-2.3566,-2.3385,-2.3319,-2.3209,-2.3015,-2.2925,-2.2888,-2.2888,-2.231,-2.1623,-2.0881,-2.0194,-1.9798,-1.9798,-1.9798,-1.9798,-1.9798,-1.9798,-1.9798,-1.9798,-1.9798,-1.9911,-2.0112,-1.9717,-1.9599,-1.9686,-1.8389,-1.8024]},{"header":{"parameterUnit":"m.s-1","parameterCategory":1,"la1":30.6,"la2":29.2853,"lo1":-89.7004,"lo2":-87.6739,"dy":0.0162,"dx":0.0183,"nx":112,"ny":82,"refTime":"2024-05-17T06:00:00:Z","depth":0,"parameterNumber":3,"parameterNumberName":"V-component_of_WINDS"},"data":[0.0,0.0,0.0,0.0,0.0,0.0,0.0,0.0,0.0,0.0,0.0,0.0,0.0,0.0,0.0,0.0,0.0,0.0,0.0,0.0,0.0,0.0,0.0,0.0,0.0,0.0,0.0,0.0,0.0,0.0,0.0,0.0,0.0,0.0,0.0,0.0,0.0,0.0,0.0,0.0,0.0,0.0,0.0,0.0,0.0,0.0,0.0,0.0,0.0,0.0,0.0,0.0,0.0,0.0,0.0,0.0,0.0,0.0,0.0,0.0,0.0,0.0,0.0,0.0,0.0,0.0,0.0,0.0,0.0,0.0,0.0,0.0,0.0,0.0,0.0,0.0,0.0,0.0,0.0,0.0,0.0,0.0,0.0,0.0,0.0,0.0,0.0,0.0,0.0,0.0,1.3593,1.4477,1.6159,1.751,1.8195,1.7638,1.7238,1.7195,0.0,0.0,0.0,0.0,0.0,0.0,0.0,0.0,0.0,0.0,0.0,0.0,0.0,0.0,0.0,0.0,0.0,0.0,0.0,0.0,0.0,0.0,0.0,0.0,0.0,0.0,0.0,0.0,0.0,0.0,0.0,0.0,0.0,0.0,0.0,0.0,0.0,0.0,0.0,0.0,0.0,0.0,0.0,0.0,0.0,0.0,0.0,0.0,0.0,0.0,0.0,0.0,0.0,0.0,0.0,0.0,0.0,0.0,0.0,0.0,0.0,0.0,0.0,0.0,0.0,0.0,0.0,0.0,0.0,0.0,0.0,0.0,0.0,0.0,0.0,0.0,0.0,0.0,0.0,0.0,0.0,0.0,0.0,0.0,0.0,0.0,0.0,0.0,0.0,0.0,0.0,0.0,0.0,0.0,0.0,0.0,0.0,0.0,0.0,0.0,0.0,0.0,0.0,0.0,1.3471,1.5599,1.7301,1.845,1.8919,1.8082,1.7432,1.7209,0.0,0.0,0.0,0.0,0.0,0.0,0.0,0.0,0.0,0.0,0.0,0.0,0.0,0.0,0.0,0.0,0.0,0.0,0.0,0.0,0.0,0.0,0.0,0.0,0.0,0.0,0.0,0.0,0.0,0.0,0.0,0.0,0.0,0.0,0.0,0.0,0.0,0.0,0.0,0.0,0.0,0.0,0.0,0.0,0.0,0.0,0.0,0.0,0.0,0.0,0.0,0.0,0.0,0.0,0.0,0.0,0.0,0.0,0.0,0.0,0.0,0.0,0.0,0.0,0.0,0.0,0.0,0.0,0.0,0.0,0.0,0.0,0.0,0.0,0.0,0.0,0.0,0.0,0.0,0.0,0.0,0.0,0.0,0.0,0.0,0.0,0.0,0.0,0.0,0.0,0.0,0.0,0.0,0.0,0.0,0.0,0.0,0.0,0.0,0.0,0.0,0.0,0.0,1.3295,1.4287,1.6357,1.7548,1.8352,1.8745,1.7847,1.7323,1.7423,1.5306,0.0,0.0,0.0,0.0,0.0,0.0,0.0,0.0,0.0,0.0,0.0,0.0,0.0,0.0,0.0,0.0,0.0,0.0,0.0,0.0,0.0,0.0,0.0,0.0,0.0,0.0,0.0,0.0,0.0,0.0,0.0,0.0,0.0,0.0,0.0,0.0,0.0,0.0,0.0,0.0,0.0,0.0,0.0,0.0,0.0,0.0,0.0,0.0,0.0,0.0,0.0,0.0,0.0,0.0,0.0,0.0,0.0,0.0,0.0,0.0,0.0,0.0,0.0,0.0,0.0,0.0,0.0,0.0,0.0,0.0,0.0,0.0,0.0,0.0,0.0,0.0,0.0,0.0,0.0,0.0,0.0,0.0,0.0,0.0,0.0,0.0,0.0,0.0,0.0,0.0,0.0,0.0,0.0,0.0,0.0,0.0,0.0,0.0,0.0,0.0,0.0,0.0,1.4368,1.525,1.6634,1.7454,1.8069,1.8475,1.7523,1.7108,1.7572,1.4764,0.0,0.0,0.0,0.0,0.0,0.0,0.0,0.0,0.0,0.0,0.0,0.0,0.0,0.0,0.0,0.0,0.0,0.0,0.0,0.0,0.0,0.0,0.0,0.0,0.0,0.0,0.0,0.0,0.0,0.0,0.0,0.0,0.0,0.0,0.0,0.0,0.0,0.0,0.0,0.0,0.0,0.0,0.0,0.0,0.0,0.0,0.0,0.0,0.0,0.0,0.0,0.0,0.0,0.0,0.0,0.0,0.0,0.0,0.0,0.0,0.0,0.0,0.0,0.0,0.0,0.0,0.0,0.0,0.0,0.0,0.0,0.0,0.0,0.0,0.0,0.0,0.0,0.0,0.0,0.0,0.0,0.0,0.0,0.0,0.0,0.0,0.0,0.0,0.0,0.0,0.0,0.0,0.0,0.0,0.0,0.0,0.0,0.0,0.0,0.0,0.0,0.0,1.4596,1.6019,1.6141,1.7204,1.8069,1.8475,1.7355,1.6901,1.7556,1.4534,0.0,0.0,0.0,0.0,0.0,0.0,0.0,0.0,0.0,0.0,0.0,0.0,0.0,0.0,0.0,0.0,0.0,0.0,0.0,0.0,0.0,0.0,0.0,0.0,0.0,0.0,0.0,0.0,0.0,0.0,0.0,0.0,0.0,0.0,0.0,0.0,0.0,0.0,0.0,0.0,0.0,0.0,0.0,0.0,0.0,0.0,0.0,0.0,0.0,0.0,0.0,0.0,0.0,0.0,0.0,0.0,0.0,0.0,0.0,0.0,0.0,0.0,0.0,0.0,0.0,0.0,0.0,0.0,0.0,0.0,0.0,0.0,0.0,0.0,0.0,0.0,0.0,0.0,0.0,0.0,0.0,0.0,0.0,0.0,0.0,0.0,0.0,0.0,0.0,0.0,0.0,0.0,0.0,0.0,0.0,0.0,0.0,0.0,0.0,0.0,0.0,0.0,1.4748,1.582,1.658,1.7394,1.7963,1.8095,1.7337,1.697,1.7209,0.0,0.0,0.0,0.0,0.0,0.0,0.0,0.0,0.0,0.0,0.0,0.0,0.0,0.0,0.0,0.0,0.0,0.0,0.0,0.0,0.0,0.0,0.0,0.0,0.0,0.0,0.0,0.0,0.0,0.0,0.0,0.0,0.0,0.0,0.0,0.0,0.0,0.0,0.0,0.0,0.0,0.0,0.0,0.0,0.0,0.0,0.0,0.0,0.0,0.0,0.0,0.0,0.0,0.0,0.0,0.0,0.0,0.0,0.0,0.0,0.0,0.0,0.0,0.0,0.0,0.0,0.0,0.0,0.0,0.0,0.0,0.0,0.0,0.0,0.0,0.0,0.0,0.0,0.0,0.0,0.0,0.0,0.0,0.0,0.0,0.0,0.0,0.0,0.0,0.0,0.0,0.0,0.0,0.0,0.0,0.0,0.0,0.0,0.0,0.0,0.0,0.0,1.4083,1.5172,1.6096,1.6905,1.7549,1.7821,1.7631,1.7056,1.661,1.6412,0.0,0.0,0.0,0.0,0.0,0.0,0.0,0.0,0.0,0.0,0.0,0.0,0.0,0.0,0.0,0.0,0.0,0.0,0.0,0.0,0.0,0.0,0.0,0.0,0.0,0.0,0.0,0.0,0.0,0.0,0.0,0.0,0.0,0.0,0.0,0.0,0.0,0.0,0.0,0.0,0.0,0.0,0.0,0.0,0.0,0.0,0.0,0.0,0.0,0.0,0.0,0.0,0.0,0.0,0.0,0.0,0.0,0.0,0.0,0.0,0.0,0.0,0.0,0.0,0.0,0.0,0.0,0.0,0.0,0.0,0.0,0.0,0.0,0.0,0.0,0.0,0.0,0.0,0.0,0.0,0.0,0.0,0.0,0.0,0.0,0.0,0.0,0.0,0.0,0.0,0.0,0.0,0.0,0.0,0.0,0.0,0.0,0.0,0.0,0.0,0.0,0.0,1.4164,1.5874,1.7,1.7014,1.7549,1.7671,1.7041,1.6457,1.582,0.0,0.0,0.0,0.0,0.0,0.0,0.0,0.0,0.0,0.0,0.0,0.0,0.0,0.0,0.0,0.0,0.0,0.0,0.0,0.0,0.0,0.0,0.0,0.0,0.0,0.0,0.0,0.0,0.0,0.0,0.0,0.0,0.0,0.0,0.0,0.0,0.0,0.0,0.0,0.0,0.0,0.0,0.0,0.0,0.0,0.0,0.0,0.0,0.0,0.0,0.0,0.0,0.0,0.0,0.0,0.0,0.0,0.0,0.0,0.0,0.0,0.0,0.0,0.0,0.0,0.0,0.0,0.0,0.0,0.0,0.0,0.0,0.0,0.0,0.0,0.0,0.0,0.0,0.0,0.0,0.0,0.0,0.0,0.0,0.0,0.0,0.0,0.0,0.0,0.0,0.0,0.0,0.0,0.0,0.0,0.0,0.0,0.0,0.0,0.0,0.0,0.0,0.0,1.5246,1.605,1.6688,1.7549,1.7794,1.7671,1.7041,1.6652,1.6081,1.516,0.0,0.0,0.0,0.0,0.0,0.0,0.0,0.0,0.0,0.0,0.0,0.0,0.0,0.0,0.0,0.0,0.0,0.0,0.0,0.0,0.0,0.0,0.0,0.0,0.0,0.0,0.0,0.0,0.0,0.0,0.0,0.0,0.0,0.0,0.0,0.0,0.0,0.0,0.0,0.0,0.0,0.0,0.0,0.0,0.0,0.0,0.0,0.0,0.0,0.0,0.0,0.0,0.0,0.0,0.0,0.0,0.0,0.0,0.0,0.0,0.0,0.0,0.0,0.0,0.0,0.0,0.0,0.0,0.0,0.0,0.0,0.0,0.0,0.0,0.0,0.0,0.0,0.0,0.0,0.0,0.0,0.0,0.0,0.0,0.0,0.0,0.0,0.0,0.0,0.0,0.0,0.0,0.0,0.0,0.0,0.0,0.0,0.0,0.0,0.0,0.0,0.0,1.5578,1.6437,1.7095,1.7821,1.7902,1.7563,1.6715,1.6478,1.5881,1.4665,0.0,0.0,0.0,0.0,0.0,0.0,0.0,0.0,0.0,0.0,0.0,0.0,0.0,0.0,0.0,0.0,0.0,0.0,0.0,0.0,0.0,0.0,0.0,0.0,0.0,0.0,0.0,0.0,0.0,0.0,0.0,0.0,0.0,0.0,0.0,0.0,0.0,0.0,0.0,0.0,0.0,0.0,0.0,0.0,0.0,0.0,0.0,0.0,0.0,0.0,0.0,0.0,0.0,0.0,0.0,0.0,0.0,0.0,0.0,0.0,0.0,0.0,0.0,0.0,0.0,0.0,0.0,0.0,0.0,0.0,0.0,0.0,0.0,0.0,0.0,0.0,0.0,0.0,0.0,0.0,0.0,0.0,0.0,0.0,0.0,0.0,0.0,0.0,0.0,0.0,0.0,0.0,0.0,0.0,0.0,0.0,0.0,0.0,0.0,0.0,0.0,0.0,1.546,1.6946,1.7848,1.7889,1.7902,1.7421,1.6276,1.6127,1.5476,1.3987,0.0,0.0,0.0,0.0,0.0,0.0,0.0,0.0,0.0,0.0,0.0,0.0,0.0,0.0,0.0,0.0,0.0,0.0,0.0,0.0,0.0,0.0,0.0,0.0,0.0,0.0,0.0,0.0,0.0,0.0,0.0,0.0,0.0,0.0,0.0,0.0,0.0,0.0,0.0,0.0,0.0,0.0,0.0,0.0,0.0,0.0,0.0,0.0,0.0,0.0,0.0,0.0,0.0,0.0,0.0,0.0,0.0,0.0,0.0,0.0,0.7307,0.7036,0.0,0.0,0.0,0.0,0.0,0.0,0.0,0.0,0.0,0.0,0.0,0.0,0.0,0.0,0.0,0.0,0.0,0.0,0.0,0.0,0.0,0.0,0.0,0.0,0.0,0.0,0.0,0.0,0.0,0.0,0.0,0.0,0.0,0.0,0.0,0.0,0.0,0.0,0.0,0.0,1.5631,1.6704,1.7366,1.7848,1.7902,1.7603,1.6864,1.6376,1.564,1.4587,1.2954,0.0,0.0,0.0,0.0,0.0,0.0,0.0,0.0,0.0,0.0,0.0,0.0,0.0,0.0,0.0,0.0,0.0,0.0,0.0,0.0,0.0,0.0,0.0,0.0,0.0,0.0,0.0,0.0,0.0,0.0,0.0,0.0,0.0,0.0,0.0,0.0,0.0,0.0,0.0,0.0,0.0,0.0,0.0,0.0,0.0,0.0,0.0,0.0,0.0,0.0,0.0,0.0,0.0,0.0,0.0,0.0,0.0,0.0,0.0,0.756,0.7383,0.0,0.0,0.0,0.0,0.0,0.0,0.0,0.0,0.0,0.0,0.0,0.0,0.0,0.0,0.0,0.0,0.0,0.0,0.0,0.0,0.0,0.0,0.0,0.0,0.0,0.0,0.0,0.0,0.0,0.0,0.0,0.0,0.0,0.0,0.0,0.0,0.0,0.0,0.0,0.0,1.5374,1.6483,1.7217,1.7848,1.7902,1.7678,1.7189,1.656,1.5874,1.5122,1.374,0.0,0.0,0.0,0.0,0.0,0.0,0.0,0.0,0.0,0.0,0.0,0.0,0.0,0.0,0.0,0.0,0.0,0.0,0.0,0.0,0.0,0.0,0.0,0.0,0.0,0.0,0.0,0.0,0.0,0.0,0.0,0.0,0.0,0.0,0.0,0.0,0.0,0.0,0.0,0.0,0.0,0.0,0.0,0.0,0.0,0.0,0.0,0.0,0.0,0.0,0.0,0.0,0.0,0.7781,0.7838,0.7787,0.7845,0.806,0.8357,0.7972,0.7944,0.8186,0.7879,0.0,0.0,0.0,0.0,0.0,0.0,0.0,0.0,0.0,0.0,0.0,0.0,0.0,0.0,0.0,0.0,0.0,0.0,0.0,0.0,0.0,0.0,1.2952,1.3935,1.4157,1.3698,1.2025,0.0,0.0,0.0,0.0,0.0,0.0,0.0,0.0,0.0,0.0,0.0,1.5114,1.6301,1.7221,1.7828,1.7882,1.7758,1.7479,1.678,1.6148,1.5719,1.4644,1.3785,0.0,0.0,0.0,0.0,0.0,0.0,0.0,0.0,0.0,0.0,0.0,0.0,0.0,0.0,0.0,0.0,0.0,0.0,0.0,0.0,0.0,0.0,0.0,0.0,0.0,0.0,0.0,0.0,0.0,0.0,0.0,0.0,0.5928,0.5878,0.0,0.0,0.0,0.0,0.0,0.0,0.0,0.0,0.0,0.0,0.0,0.0,0.0,0.6244,0.6624,0.7319,0.7784,0.8026,0.8897,0.9055,0.8568,0.8853,0.9026,0.9074,0.9006,0.0,0.8209,0.8266,0.0,0.0,0.0,0.0,0.0,0.0,0.0,0.0,0.0,0.0,0.0,0.0,0.0,0.0,0.0,0.0,0.0,0.0,0.0,0.0,0.0,0.0,1.2931,1.3463,1.3599,1.3662,1.385,1.3204,1.2391,1.1716,1.057,0.963,0.0,0.0,0.0,0.0,0.0,0.0,1.5428,1.6388,1.7175,1.7828,1.7794,1.7814,1.8058,1.7144,1.6522,1.647,1.4959,1.4099,1.414,1.3047,0.0,0.0,0.0,0.0,0.0,0.0,0.0,0.0,0.0,0.0,0.0,0.0,0.0,0.0,0.0,0.0,0.0,0.0,0.0,0.0,0.0,0.0,0.0,0.0,0.0,0.0,0.0,0.0,0.0,0.5754,0.5923,0.5432,0.5566,0.5453,0.0,0.0,0.0,0.0,0.0,0.0,0.0,0.0,0.0,0.5721,0.6145,0.6695,0.7321,0.7925,0.8267,0.8384,0.9031,0.9191,0.8942,0.926,0.9424,0.9424,0.9424,0.9249,0.897,0.8898,0.8409,0.7763,0.0,0.0,0.0,0.0,0.871,0.905,1.0499,1.0695,1.0377,1.09,0.0,0.0,0.0,0.0,0.0,0.0,0.0,1.1479,1.1772,1.2748,1.3756,1.4275,1.4603,1.4872,1.5097,1.455,1.3768,1.2944,1.2498,1.1862,1.0606,1.0449,0.0,0.0,0.0,1.3811,1.5473,1.6215,1.6887,1.7754,1.7781,1.7982,1.8489,1.7461,1.6774,1.6809,1.5423,1.4628,1.4701,1.3867,1.3301,0.0,0.0,0.0,0.0,0.0,0.0,0.0,0.0,0.0,0.0,0.0,0.0,0.0,0.0,0.0,0.0,0.0,0.0,0.0,0.0,0.0,0.0,0.0,0.0,0.0,0.0,0.0,0.0,0.5681,0.5883,0.5236,0.5585,0.5553,0.0,0.0,0.0,0.0,0.0,0.0,0.497,0.5128,0.5493,0.6101,0.6593,0.7182,0.793,0.8326,0.8602,0.8746,0.923,0.9422,0.9438,0.9917,1.0068,0.9987,0.9987,0.9936,0.9826,0.939,0.8914,0.8443,0.8363,0.818,0.8033,0.868,0.8983,0.93,1.1088,1.1507,1.1379,1.2096,1.2208,1.1946,1.1193,0.0,0.0,0.0,0.0,1.2089,1.2513,1.3411,1.4345,1.4762,1.5269,1.5644,1.5683,1.5502,1.5075,1.4123,1.4077,1.3739,1.2258,1.221,0.0,1.2574,1.3267,1.4237,1.557,1.6056,1.6667,1.7686,1.7767,1.8048,1.8745,1.7834,1.7168,1.7061,1.595,1.5246,1.5088,1.4643,1.4342,1.4156,0.0,0.0,0.0,0.0,0.0,0.0,0.0,0.0,0.0,0.0,0.0,0.0,0.0,0.0,0.0,0.0,0.0,0.0,0.0,0.0,0.0,0.0,0.0,0.0,0.0,0.0,0.0,0.0,0.0,0.5861,0.582,0.0,0.0,0.0,0.0,0.4969,0.5153,0.539,0.5717,0.6285,0.6555,0.6487,0.7109,0.7624,0.7979,0.8217,0.8586,0.9195,0.9971,1.0349,1.0349,1.1155,1.1327,1.1034,1.1034,1.0828,1.047,0.9574,0.9178,0.9119,0.8811,0.8679,0.8703,0.9128,0.9557,1.0011,1.0494,1.0876,1.1267,1.2317,1.301,1.332,1.2905,1.2778,0.0,0.0,1.2734,1.3404,1.3433,1.3772,1.4119,1.422,1.4749,1.5245,1.5313,1.5854,1.6095,1.5264,1.4323,1.3813,1.4325,0.0,1.3877,1.44,1.4942,1.5434,1.5843,1.6073,1.6612,1.7686,1.774,1.7988,1.8745,1.8393,1.7864,1.7226,1.653,1.5892,1.5312,1.5269,1.4935,1.4298,1.3136,0.0,0.0,0.0,0.0,0.0,0.0,0.0,0.0,0.0,0.0,0.0,0.0,0.0,0.0,0.0,0.0,0.0,0.0,0.0,0.0,0.0,0.0,0.0,0.0,0.0,0.0,0.0,0.0,0.5921,0.633,0.0,0.5991,0.5783,0.574,0.5939,0.6022,0.6262,0.6691,0.6897,0.7104,0.7329,0.7555,0.7798,0.8049,0.8127,0.827,0.8504,0.8986,0.9239,0.9267,1.0328,1.0763,1.0691,1.12,1.1232,1.0909,1.0564,1.03,1.0124,1.0219,1.0124,0.9911,0.9848,1.0053,1.0451,1.0799,1.1163,1.1619,1.2551,1.2947,1.3101,1.2954,1.2905,1.2876,1.2695,1.3066,1.3506,1.3506,1.413,1.4752,1.4769,1.5067,1.5344,1.5366,1.5589,1.5742,1.5507,1.5426,1.5328,1.5151,1.4954,1.4893,1.509,1.5336,1.5707,1.6162,1.6311,1.6671,1.7331,1.7393,1.772,1.8553,1.7713,1.7187,1.7197,1.6213,1.5515,1.5312,1.5298,1.5182,1.495,1.4121,1.3071,0.0,0.0,0.0,0.0,0.0,0.0,0.0,0.0,0.0,0.0,0.0,0.0,0.0,0.0,0.0,0.0,0.0,0.0,0.0,0.0,0.0,0.0,0.0,0.0,0.0,0.5523,0.6004,0.5899,0.6544,0.6822,0.6336,0.6436,0.6624,0.6828,0.6913,0.7102,0.7484,0.7503,0.7598,0.7807,0.7878,0.7949,0.8011,0.8082,0.8115,0.8115,0.8596,0.8827,0.8856,0.9934,1.036,1.0303,1.1072,1.1219,1.0927,1.1177,1.1144,1.0946,1.0938,1.0806,1.0565,1.0346,1.0404,1.0658,1.0977,1.1411,1.191,1.2565,1.2936,1.3146,1.3366,1.3323,1.3259,1.3474,1.3649,1.3772,1.3772,1.4319,1.4867,1.4723,1.5081,1.5337,1.5065,1.5313,1.5577,1.5447,1.5957,1.6259,1.5835,1.5764,1.5764,1.5764,1.5857,1.6023,1.6386,1.6479,1.6693,1.7157,1.7199,1.7557,1.8422,1.7515,1.6983,1.718,1.6213,1.5501,1.5312,1.5298,1.5298,1.5298,1.4442,1.3469,1.2398,0.0,0.0,0.0,0.0,0.0,0.0,0.0,0.0,0.0,0.0,0.0,0.0,0.0,0.0,0.0,0.0,0.0,0.0,0.0,0.0,0.0,0.0,0.0,0.5018,0.5538,0.5925,0.5944,0.6468,0.676,0.6563,0.6946,0.7299,0.7493,0.7698,0.7902,0.8106,0.811,0.802,0.783,0.8011,0.802,0.7826,0.8015,0.8115,0.8115,0.889,0.9246,0.9281,1.0113,1.0278,1.0028,1.0712,1.0822,1.0561,1.1324,1.1599,1.1533,1.0894,1.0616,1.0616,1.0609,1.0594,1.066,1.0975,1.1501,1.2051,1.2377,1.2945,1.3597,1.4255,1.4128,1.3931,1.4598,1.4582,1.432,1.4301,1.4417,1.4433,1.4027,1.4707,1.5232,1.4402,1.503,1.5623,1.5223,1.5814,1.6392,1.6479,1.65,1.65,1.65,1.65,0.0,1.65,1.65,1.6659,1.7136,1.7178,1.7537,1.8403,1.7847,1.7376,1.7209,1.6545,1.5922,1.5312,1.5298,1.5298,1.5298,1.4064,1.309,1.2427,0.0,0.0,0.0,0.0,0.0,0.0,0.0,0.0,0.0,0.0,0.0,0.0,0.0,0.0,0.0,0.0,0.0,0.0,0.0,0.0,0.0,0.5513,0.5656,0.5656,0.5909,0.6308,0.6791,0.7128,0.7329,0.7428,0.7707,0.7883,0.794,0.7864,0.7902,0.8106,0.7978,0.794,0.803,0.8087,0.8087,0.8034,0.8087,0.8115,0.8115,0.8327,0.8433,0.8468,0.9276,0.9592,0.9558,1.0808,1.1182,1.0913,1.1607,1.1772,1.1577,1.1393,1.1327,1.1298,1.1056,1.0821,1.068,1.1134,1.1422,1.1638,1.2118,1.2408,1.2672,1.3337,1.3543,1.3662,1.4326,1.4772,1.4941,1.462,1.4824,1.5063,1.4653,1.4584,1.4568,1.4317,1.4545,1.4954,1.5555,1.5828,1.5976,1.5998,1.6259,1.65,1.65,1.65,1.65,1.65,1.65,1.6543,1.6693,1.6693,1.706,1.7908,1.6992,1.6593,1.7163,1.6153,1.5472,1.5312,1.5298,1.5298,1.5298,1.4485,1.3759,0.0,0.0,0.0,0.0,0.0,0.0,0.0,0.0,0.0,0.0,0.0,0.0,0.0,0.0,0.0,0.0,0.0,0.0,0.0,0.0,0.0,0.0,0.5871,0.6166,0.6516,0.6596,0.6785,0.7261,0.7498,0.7712,0.7921,0.8094,0.8212,0.8212,0.8184,0.8217,0.8335,0.8226,0.8179,0.8212,0.8212,0.8132,0.7992,0.7992,0.7992,0.7992,0.7992,0.8034,0.8115,0.8574,0.879,0.8855,0.9991,1.0588,1.0734,1.1286,1.1596,1.175,0.0,0.0,0.0,0.0,1.1188,1.1049,1.1374,1.1484,1.1543,1.1858,1.1945,1.2112,1.3052,1.3298,1.347,1.4387,1.4854,1.5023,1.4759,1.4971,1.5122,1.4681,1.4594,1.449,1.4097,1.4205,1.4612,1.544,1.5545,0.0,1.6054,1.6355,1.65,1.65,1.65,1.65,1.65,1.65,1.65,1.65,1.65,1.6786,1.7496,1.6611,0.0,0.0,0.0,1.5404,1.5312,1.5298,0.0,0.0,0.0,0.0,0.0,1.4848,0.0,0.0,1.3887,1.3988,0.0,0.0,0.0,0.0,0.0,0.0,0.0,0.0,0.0,0.0,0.0,0.0,0.0,0.0,0.0,0.0,0.6172,0.6639,0.7404,0.7403,0.7361,0.7541,0.7754,0.7954,0.8134,0.8311,0.8439,0.8439,0.8581,0.8666,0.8666,0.8642,0.0,0.0,0.0,0.8236,0.7921,0.7862,0.7883,0.7848,0.7859,0.7944,0.8115,0.8115,0.8115,0.815,0.892,0.9643,1.0353,1.0788,1.1424,1.2025,1.1731,1.1591,1.1591,1.1591,1.1591,1.1591,1.1591,0.0,0.0,1.1622,1.1622,1.1833,1.3078,1.3292,1.3394,1.4647,1.4937,1.4867,1.4895,1.4991,1.4956,1.449,1.4697,1.4759,1.3879,1.4014,1.4503,1.5156,1.5173,1.544,1.6521,1.6586,1.65,1.65,1.65,1.65,1.65,1.65,1.65,1.65,1.65,0.0,1.7157,1.6589,1.632,1.6633,1.6055,1.563,1.5453,1.55,1.5501,1.5501,1.6037,1.6314,1.6314,1.6924,1.7282,1.734,1.5023,1.4694,0.0,0.0,0.0,0.0,0.0,0.0,0.0,0.0,0.0,0.0,0.0,0.0,0.0,0.0,0.0,0.6447,0.6865,0.737,0.7707,0.7859,0.7949,0.7992,0.8151,0.8297,0.8335,0.8524,0.8642,0.8642,0.8529,0.8458,0.8458,0.8297,0.8259,0.8396,0.8401,0.8444,0.8524,0.8363,0.8283,0.8278,0.8103,0.0,0.8115,0.8115,0.8115,0.8186,0.9504,1.0164,1.04,1.1655,1.2256,1.2332,1.1819,1.1591,1.1591,1.1591,1.1591,1.1591,1.1591,1.1591,1.1622,1.1716,1.1771,1.1926,1.2834,1.3179,0.0,1.4809,1.5225,1.5315,1.5475,1.5556,1.5442,1.4976,1.4935,1.4852,1.4293,1.4242,1.4591,1.5557,1.5383,1.5565,1.6992,1.6832,1.65,1.65,1.65,1.65,1.65,1.65,1.65,1.65,1.65,1.6693,1.7157,1.6589,1.6376,1.6821,1.6558,1.6393,1.6352,1.667,1.6837,1.6837,1.6953,1.7011,1.7011,1.7142,1.7282,1.7399,1.6885,1.6863,0.0,0.0,0.0,0.0,0.0,0.0,0.0,0.0,0.0,0.0,0.0,0.7654,0.7028,0.0,0.747,0.7058,0.7352,0.7764,0.8047,0.8085,0.8115,0.8115,0.8269,0.8401,0.8401,0.8585,0.8703,0.8703,0.8609,0.86,0.8708,0.8614,0.8647,0.8859,0.8864,0.8864,0.8864,0.8765,0.8656,0.8552,0.8444,0.8392,0.8392,0.8392,0.8392,0.8465,0.9587,1.0311,1.0803,1.2193,1.2631,1.2456,1.2167,1.1941,1.178,1.165,1.1591,1.1591,1.1591,1.1591,1.1622,1.1771,1.1802,1.1957,1.2765,1.3139,1.3511,1.4451,1.505,1.5419,1.5527,1.5797,1.5946,1.5452,1.5339,1.5214,1.4749,1.4656,1.49,1.5731,1.5665,1.5893,1.7236,1.7154,1.6861,1.6538,1.65,1.65,1.65,1.65,1.65,1.65,1.65,1.6586,1.6842,1.6447,1.6297,1.6526,1.6357,1.6356,1.6582,1.6792,1.6996,1.72,1.7534,1.7708,1.7708,1.8065,1.83,1.8402,1.8472,1.8364,0.0,0.0,0.0,0.0,0.0,0.0,0.0,0.0,0.7567,0.7942,0.8163,0.8132,0.7564,0.775,0.7896,0.7659,0.7769,0.7971,0.8349,0.8255,0.8127,0.812,0.8269,0.8415,0.8458,0.8609,0.8703,0.8703,0.8741,0.8841,0.8976,0.9023,0.9136,0.9338,0.9343,0.9286,0.9204,0.9122,0.9018,0.8883,0.8803,0.8842,0.899,0.8946,0.9003,0.9231,1.0024,1.0812,1.165,1.2663,1.295,1.2701,1.2602,1.2419,1.2149,1.1867,1.1782,1.1782,1.1782,1.1814,1.1845,1.1996,1.2014,1.2118,1.2816,1.3075,1.3329,1.4034,1.4726,1.5264,1.5536,1.599,1.6309,1.5946,1.5853,1.5728,1.5235,1.5132,1.5285,1.576,1.582,1.6125,1.7123,1.7351,1.7225,1.676,1.6663,1.6626,1.6513,1.65,1.65,1.65,1.65,1.65,1.65,1.6344,1.6259,1.6259,1.619,1.632,1.6697,1.6788,1.7022,1.7441,1.7993,1.8303,1.8426,1.8998,1.9358,1.9446,1.9556,1.9328,0.7655,0.7611,0.7865,0.8767,0.8109,0.7706,0.0,0.0,0.8707,0.9621,0.9598,0.9279,0.8873,0.8487,0.8216,0.8047,0.8068,0.8127,0.8368,0.8382,0.8297,0.8139,0.8269,0.8472,0.8652,0.8689,0.8703,0.8703,0.8878,0.8962,0.8981,0.9155,0.9348,0.9564,0.9569,0.9686,0.989,0.9667,0.9522,0.9493,0.9126,0.9336,1.0023,0.9861,1.0175,1.0881,1.1669,1.2489,1.3229,1.3382,1.3418,1.336,1.3067,1.2928,1.2855,1.2533,1.2416,1.2416,1.2416,1.2517,1.2691,1.2892,1.2825,1.2733,1.3028,1.29,1.292,1.4142,1.4529,1.4854,1.599,1.6345,1.6392,1.634,1.633,1.6205,1.5711,1.5608,1.5645,1.5711,1.576,1.5961,1.6526,1.7046,1.7385,1.7322,1.731,1.7099,1.6563,1.65,1.65,1.65,1.65,1.65,1.65,1.648,1.6464,1.6464,1.6842,1.7085,1.7126,1.7478,1.7881,1.8341,1.8431,1.8703,1.9181,1.9273,1.9395,1.9574,1.9593,1.9603,0.8553,0.8831,0.9116,0.9185,0.881,0.862,0.9413,0.8813,0.8403,0.933,0.9457,0.9247,0.8702,0.877,0.8753,0.8176,0.8188,0.8255,0.8217,0.8212,0.8226,0.8264,0.8349,0.8434,0.8519,0.8633,0.8755,0.8878,0.8934,0.9089,0.9333,0.9423,0.9564,0.9819,0.9823,0.9909,0.9994,0.9909,0.97,0.9418,0.9366,0.9351,0.9327,0.9372,1.0007,1.1111,1.1446,1.2335,1.3492,1.3492,1.3492,1.3484,1.3345,1.3294,1.3228,1.2716,1.2485,1.2485,1.2485,1.2627,1.2837,1.3039,1.3114,1.3164,1.3345,1.3172,1.2995,1.3543,1.4078,1.4617,1.5157,1.5836,1.6413,1.6413,1.6413,1.6361,1.6164,1.6122,1.6033,1.5753,1.6225,1.6637,1.6557,1.7544,1.8129,1.7498,1.741,1.7174,1.6575,1.65,1.65,1.65,1.65,1.65,1.65,1.65,1.65,1.65,1.668,1.6926,1.7199,1.7352,1.7767,1.8481,1.85,1.8765,1.9302,1.9339,1.9446,1.9593,1.9632,1.9672,0.9009,0.9491,0.9819,0.9204,0.9125,0.9119,0.9015,0.8442,0.8151,0.886,0.8981,0.8896,0.8585,0.8802,0.8851,0.8291,0.8302,0.8307,0.8068,0.8099,0.8203,0.8302,0.8415,0.8463,0.8406,0.8585,0.8789,0.8966,0.9037,0.9225,0.9583,0.9658,0.98,0.999,0.9994,0.9966,0.9909,0.9909,0.9686,0.9282,0.9385,0.9313,0.9134,0.9431,1.0155,1.1111,1.1335,1.2077,1.3193,1.3419,1.3492,1.3492,1.3492,1.3492,1.344,1.2965,1.2789,1.2789,1.2789,1.29,1.3107,1.3313,1.3423,1.3549,1.3702,1.3433,1.3124,1.3308,1.3903,1.4529,1.4706,1.5565,1.6413,1.6413,1.6413,1.6413,1.6413,1.6413,1.6309,1.5977,1.6655,1.7194,1.6853,1.7908,1.848,1.7549,1.741,1.7174,1.6575,1.65,1.65,1.65,1.65,1.65,1.65,1.65,1.65,1.65,1.65,1.665,1.6989,1.701,1.7434,1.8285,1.8206,1.8519,1.9339,1.9265,1.9376,1.9629,1.9687,1.9708,0.8797,0.9093,0.9477,0.8861,0.8777,0.8751,0.8493,0.8395,0.844,0.8672,0.8451,0.8398,0.8981,0.8564,0.8191,0.8359,0.8396,0.8259,0.7883,0.8136,0.8316,0.8148,0.8444,0.8618,0.842,0.8585,0.8789,0.8966,0.9164,0.9371,0.9592,0.9833,0.9985,0.9994,0.9994,0.9856,0.9616,0.9616,0.9503,0.9282,0.9094,0.9419,1.0167,1.0779,1.1043,1.1149,1.1929,1.2298,1.2415,1.32,1.3492,1.3492,1.3492,1.3492,1.3492,1.3477,1.347,1.347,1.347,1.3615,1.3796,1.3998,1.3947,1.3843,1.4024,1.3624,1.3212,1.38,1.4232,1.4617,1.5206,1.5894,1.6413,1.6413,1.6413,1.6413,1.6413,1.6413,1.6402,1.6392,1.6869,1.7309,1.7271,1.7798,1.8041,1.7486,1.741,1.7174,1.6575,1.65,1.65,1.65,1.65,1.65,1.65,1.65,1.65,1.65,1.65,1.6522,1.6522,1.6522,1.6921,1.7808,1.7434,1.7948,1.9395,1.9007,1.9124,1.9708,1.9708,1.9708,0.8296,0.8462,0.8728,0.8442,0.8285,0.8252,0.8484,0.7899,0.7459,0.7946,0.7766,0.7638,0.7968,0.8063,0.8096,0.7999,0.8335,0.8406,0.7892,0.8377,0.8685,0.8335,0.8533,0.8623,0.842,0.8585,0.8789,0.8966,0.9169,0.9478,0.9828,0.9956,0.9933,0.9752,0.9748,0.9649,0.9395,0.939,0.9286,0.9079,0.8911,0.9,0.9404,0.9484,0.9798,1.0331,1.0588,1.0999,1.1558,1.2378,1.2709,1.2753,1.3309,1.3492,1.3492,1.3492,1.3492,1.3492,1.3492,1.3645,1.3826,1.4029,1.4124,1.4245,1.4395,1.414,1.3846,1.4285,1.4612,1.493,1.5312,1.5894,1.6413,1.6413,1.6413,1.6413,1.6413,1.6413,1.6413,1.6413,1.7159,1.771,1.7352,1.839,1.8957,1.8066,1.7287,1.6735,1.6525,1.65,1.65,1.65,1.65,1.65,1.65,1.65,1.65,1.65,1.65,1.65,1.65,1.65,1.6786,1.7393,1.7537,1.8048,1.9007,1.912,1.938,1.9708,1.9708,1.9708,0.797,0.8145,0.8378,0.7957,0.7824,0.7822,0.7852,0.7257,0.6816,0.7275,0.716,0.7071,0.7427,0.765,0.7764,0.7707,0.8188,0.8429,0.7957,0.8477,0.8812,0.8543,0.8623,0.8652,0.8524,0.876,0.8954,0.8981,0.9169,0.9478,0.9823,0.9771,0.9667,0.9493,0.9489,0.939,0.9178,0.9178,0.9075,0.8907,0.877,0.8774,0.8907,0.8845,0.9043,0.9506,0.9856,1.0409,1.1149,1.1966,1.2489,1.2783,1.3309,1.3492,1.3492,1.3492,1.3564,1.3608,1.3608,1.3681,1.3826,1.4101,1.4281,1.4433,1.4569,1.4359,1.4106,1.4214,1.4615,1.5013,1.5046,1.5749,1.6413,1.6413,1.6413,1.6413,1.6413,1.6413,1.6413,1.6413,1.7151,1.7745,1.7615,1.8499,1.8932,1.8041,1.7124,1.65,1.65,1.65,1.65,1.65,1.65,1.65,1.65,1.65,1.65,1.65,1.65,1.65,1.65,1.65,1.6723,1.7227,1.7297,1.7834,1.8846,1.8903,1.9203,1.9708,1.9708,1.9708,0.776,0.8086,0.829,0.7412,0.7431,0.7486,0.6736,0.6544,0.6591,0.6754,0.6652,0.668,0.0,0.0,0.7251,0.7432,0.7985,0.8344,0.8127,0.8472,0.8746,0.8732,0.8722,0.8713,0.8703,0.9058,0.9173,0.8981,0.9164,0.9371,0.9578,0.9395,0.9277,0.9268,0.9268,0.9169,0.8971,0.8966,0.8916,0.8732,0.8722,0.8722,0.8737,0.8935,0.8911,0.8765,0.9761,1.05,1.1111,1.1966,1.2746,1.3455,1.3499,1.3492,1.3492,1.3492,1.3645,1.3797,1.379,1.3826,1.3863,1.4289,1.4389,1.4433,1.4569,1.4375,1.4069,1.3804,1.4369,1.4976,1.4697,1.5517,1.6444,1.6413,1.6413,1.6413,1.6413,1.6413,1.6413,1.6413,1.687,1.7451,1.8038,1.8197,1.8053,1.7524,1.6936,1.6525,1.65,1.65,1.65,1.65,1.65,1.65,1.65,1.65,1.65,1.65,1.65,1.65,1.65,1.65,1.6765,1.725,1.6795,1.7312,1.8874,1.838,1.8669,1.9708,1.9708,1.9708,0.719,0.7146,0.7255,0.72,0.7271,0.7319,0.7264,0.7138,0.6969,0.6845,0.6652,0.6506,0.6539,0.691,0.7157,0.6995,0.7919,0.8552,0.8349,0.8949,0.9305,0.9185,0.9034,0.8878,0.8718,0.8798,0.8841,0.8789,0.9119,0.9305,0.9362,0.9315,0.9216,0.9065,0.9061,0.9001,0.8784,0.8784,0.8911,0.9162,0.9011,0.902,0.9162,0.9028,0.8957,0.8974,0.9678,1.0046,1.0331,1.1706,1.2415,1.2673,1.3273,1.3492,1.3492,1.3492,1.3645,1.3826,1.3964,1.4029,1.4065,1.4317,1.4389,1.4433,1.4569,1.4542,1.4638,1.5349,1.5698,1.5951,1.6276,1.6594,1.6758,1.6456,1.6413,1.6413,1.6413,1.6413,1.6413,1.6413,1.7207,1.8066,1.8682,1.8779,1.8607,1.8078,1.7513,1.6999,1.655,1.65,1.65,1.65,1.65,1.65,1.65,1.65,1.65,1.65,1.65,1.65,1.65,1.6599,1.6705,1.6842,1.7102,1.7646,1.8447,1.8626,1.9043,1.9708,1.9708,1.9708,0.7546,0.7334,0.7168,0.7413,0.7323,0.7194,0.7187,0.7031,0.6823,0.6596,0.6379,0.6196,0.6083,0.6374,0.6662,0.6768,0.763,0.0,0.8637,0.9037,0.9319,0.0,0.9108,0.8938,0.8855,0.8921,0.894,0.885,0.9058,0.915,0.915,0.91,0.9044,0.8985,0.8985,0.9006,0.8973,0.8973,0.9091,0.9282,0.9079,0.9089,0.9277,0.9164,0.9117,0.9188,0.9852,1.0313,1.0667,1.1832,1.2526,1.2863,1.3309,1.3492,1.3499,1.3608,1.3754,1.3964,1.4173,1.4281,1.4353,1.4461,1.4497,1.4497,1.4569,1.4605,1.4704,1.5155,1.5721,1.6243,1.6389,1.6698,1.6955,1.6726,1.6529,1.6413,1.6413,1.6413,1.6413,1.6413,1.7318,1.8213,1.8536,1.8812,1.882,1.8292,1.7739,1.7174,1.6575,1.65,1.65,1.65,1.65,1.65,1.65,1.65,1.65,1.65,1.65,1.6522,1.6599,1.6654,1.674,1.6825,1.7094,1.7618,1.8383,1.8544,1.9001,1.9708,1.9708,1.9708,0.8256,0.801,0.7607,0.7735,0.7517,0.7213,0.6915,0.6699,0.6478,0.6252,0.6036,0.5902,0.5873,0.5916,0.6125,0.6693,0.0,0.807,0.8868,0.9009,0.9098,0.9301,0.9145,0.9014,0.8985,0.9141,0.9169,0.8999,0.9009,0.9014,0.8985,0.8869,0.8869,0.9018,0.9023,0.9122,0.9324,0.9296,0.9351,0.9403,0.932,0.937,0.9567,0.9661,0.9728,0.9764,1.0503,1.1112,1.1627,1.2232,1.2863,1.3492,1.3492,1.3492,1.3528,1.3717,1.3891,1.4129,1.4317,1.4461,1.4605,1.4605,1.4605,1.4605,1.4605,1.4605,1.4577,1.4372,1.5198,1.6115,1.5961,1.6482,1.7031,1.7007,1.6717,1.6485,1.6423,1.6413,1.6413,1.6413,1.7318,1.8093,1.8093,1.8668,1.892,1.8392,1.784,1.7287,1.671,1.655,1.65,1.65,1.65,1.65,1.65,1.65,1.65,1.65,1.6522,1.6577,1.6697,1.6718,1.6846,1.7094,1.7044,1.7537,1.8592,1.8461,1.8846,1.9708,1.9708,1.9708,0.7938,0.7946,0.793,0.7622,0.7626,0.7607,0.7223,0.6946,0.0,0.0,0.6036,0.5859,0.5694,0.5918,0.6294,0.6721,0.7376,0.807,0.8868,0.9126,0.931,0.0,0.9362,0.9164,0.8999,0.9018,0.9023,0.8985,0.9141,0.9159,0.8995,0.9108,0.9192,0.923,0.923,0.9333,0.9545,0.9371,0.9497,0.9881,1.0413,1.0757,1.0979,1.1577,1.1852,1.187,1.2236,1.2479,1.2604,1.31,1.3382,1.3492,1.3492,1.3492,1.3492,1.3535,1.3775,1.4093,1.4129,1.4346,1.4605,1.4605,1.4605,1.4605,1.4605,1.4605,1.4732,1.5334,1.5695,1.6051,1.6821,1.7116,1.7211,1.7031,1.6955,1.68,1.6456,1.6413,1.6413,1.6413,1.7318,1.8093,1.8093,1.8984,1.9497,1.8945,1.8393,1.7852,1.73,1.681,1.65,1.65,1.65,1.65,1.65,1.65,1.65,1.65,1.6599,1.6675,1.6697,1.6867,1.7157,1.7578,1.7618,1.8088,1.9007,1.8969,1.9217,1.9708,1.9708,1.9708,0.8214,0.8069,0.774,0.7541,0.7489,0.7351,0.6795,0.0,0.0,0.0,0.5656,0.5524,0.5325,0.5628,0.0,0.6436,0.693,0.7593,0.8566,0.8874,0.9082,0.9258,0.9282,0.9202,0.9004,0.8985,0.9028,0.9131,0.9333,0.9357,0.915,0.9338,0.9695,1.0177,0.9839,0.9908,1.0479,0.9955,1.0003,1.0679,1.0911,1.138,1.2035,1.229,1.245,1.2589,1.2856,1.2966,1.2971,1.3356,1.3492,1.3492,1.3492,1.3492,1.3535,1.3739,1.3912,1.4129,1.431,1.4461,1.4605,1.4605,1.4605,1.4605,1.4605,1.4605,1.4677,1.5062,1.548,1.5992,1.6862,1.7182,1.732,1.7339,1.7017,1.6632,1.6425,1.6413,1.6413,1.6413,1.7318,1.8093,1.8093,1.9056,1.9623,1.9083,1.8531,1.8103,1.784,1.7061,1.65,1.65,1.65,1.65,1.65,1.65,1.65,1.65,1.6543,1.6663,1.6803,1.6897,1.7094,1.7434,1.7679,1.8127,1.8784,1.9007,1.9306,1.9708,1.9708,1.9708,0.8353,0.8119,0.765,0.747,0.7408,0.719,0.6374,0.6205,0.0,0.542,0.5272,0.5211,0.5092,0.532,0.5708,0.0,0.6539,0.7132,0.825,0.8576,0.8779,0.8962,0.9159,0.0,0.9004,0.9023,0.9136,0.9338,0.9507,0.9634,0.9708,0.97,1.0209,1.1324,1.0668,1.0679,1.158,1.0933,1.0933,1.1617,1.1629,1.214,1.3008,1.3012,1.3121,1.3292,1.3413,1.3471,1.3408,1.3566,1.3558,1.3492,1.3492,1.3492,1.3528,1.3848,1.4029,1.4129,1.4389,1.4533,1.4605,1.4605,1.4605,1.4605,1.4605,1.4605,1.4605,1.4605,1.5062,1.5762,1.6655,1.6966,1.7155,1.7461,1.6964,1.6413,1.6413,1.6413,1.6413,1.6413,1.7318,1.8093,1.8093,1.9056,1.966,1.9221,1.8707,1.838,1.838,1.7478,1.6851,1.6851,1.6638,1.65,1.65,1.65,1.65,1.65,1.6543,1.6671,1.6876,1.6939,1.7073,1.7323,1.774,1.8167,1.863,1.903,1.9398,1.9708,1.9708,1.9708,0.7683,0.796,0.8132,0.7408,0.7626,0.7683,0.6473,0.0,0.6026,0.542,0.5163,0.5087,0.5253,0.5292,0.5576,0.6346,0.0,0.6962,0.8226,0.8576,0.8779,0.8962,0.0,0.0,0.9004,0.915,0.9343,0.9559,0.9592,1.0054,1.108,1.0385,1.0773,1.2511,1.1649,1.1617,1.2547,1.2504,1.2504,1.2589,1.3425,1.386,1.4013,1.4754,1.5144,1.5151,1.4847,1.4609,1.4358,1.4084,1.3762,1.3492,1.3492,1.3492,1.3492,1.3528,1.3775,1.4093,1.4129,1.4346,1.4605,1.4605,1.4605,1.4605,1.4605,1.4605,1.4605,1.4605,1.4641,1.5062,1.6515,1.6594,1.6426,1.6931,1.6736,1.6413,1.6413,1.6413,1.6413,1.6413,1.7318,1.8093,1.8093,1.9056,1.9786,1.9736,1.9259,1.8933,1.8933,1.8406,1.8053,1.8053,1.7114,1.65,1.65,1.65,1.65,1.65,1.6727,1.6876,1.6897,1.7073,1.7352,1.774,1.8206,1.8649,1.9045,1.9453,1.9657,1.9708,1.9708,1.9708,0.7664,0.7959,0.8037,0.7365,0.7465,0.7413,0.6143,0.0,0.5833,0.5235,0.5064,0.5035,0.5116,0.5225,0.5439,0.5876,0.605,0.6436,0.7315,0.7749,0.811,0.8415,0.8751,0.8968,0.8981,0.9164,0.9464,0.9804,0.9828,1.0249,1.1235,1.03,1.0414,1.1826,1.1494,1.1746,1.2674,1.2717,1.2978,1.3535,1.3922,1.4356,1.4873,1.5257,1.5389,1.5374,1.5046,1.4765,1.4482,1.4152,1.3792,1.3492,1.3492,1.3492,1.3499,1.3645,1.3855,1.4129,1.4245,1.4425,1.4605,1.4605,1.4605,1.4605,1.4605,1.4605,1.4605,1.4605,1.4605,1.4955,1.6481,1.6988,1.7092,1.7011,1.6705,1.6413,1.6413,1.6413,1.6413,1.6413,1.7039,1.7672,1.8038,1.8777,1.9422,1.9747,1.9334,1.9121,1.9447,1.8744,1.8329,1.8644,1.7702,1.7036,1.7036,1.6722,1.65,1.65,1.6684,1.6918,1.7261,1.7136,1.7434,1.8206,1.8403,1.8707,1.9101,1.9493,1.9708,1.9708,1.9708,1.9932,0.7428,0.7697,0.7797,0.7237,0.7251,0.7135,0.6136,0.6005,0.5932,0.5331,0.5198,0.5198,0.5198,0.5316,0.5508,0.0,0.5922,0.6236,0.6837,0.7187,0.7555,0.7978,0.8359,0.8675,0.8826,0.915,0.9568,0.9966,0.9937,1.0187,1.0895,1.0093,1.0244,1.1655,1.1703,1.2169,1.3105,1.336,1.3837,1.4482,1.4482,1.4824,1.5389,1.5389,1.5389,1.5374,1.5046,1.4765,1.4482,1.4152,1.3792,1.3492,1.3492,1.3492,1.3528,1.3717,1.3928,1.4129,1.4317,1.4497,1.4605,1.4605,1.4605,1.4605,1.4605,1.4605,1.4605,1.4605,1.4919,1.5456,1.6296,1.7084,1.7554,1.6955,1.6612,1.6413,1.6413,1.6413,1.6413,1.6413,1.6842,1.7396,1.8011,1.8602,1.9172,1.9721,1.9497,1.9359,1.9761,1.9145,1.8832,1.9196,1.8279,1.7564,1.7423,1.6861,1.65,1.65,1.6735,1.706,1.7475,1.7434,1.774,1.8481,1.863,1.8822,1.9101,1.9493,1.9708,1.9708,1.9708,2.0168,0.6801,0.7158,0.7399,0.693,0.7012,0.7093,0.668,0.6601,0.6425,0.5826,0.5696,0.5696,0.5696,0.5696,0.5831,0.6235,0.6291,0.6499,0.7099,0.719,0.7346,0.7769,0.8151,0.8406,0.8411,0.9117,0.9729,0.998,0.9762,0.9738,0.9985,0.9757,1.053,1.2626,1.2674,1.3148,1.4097,1.4957,1.5389,1.5389,1.5389,1.5389,1.5389,1.5389,1.5389,1.5374,1.5046,1.4765,1.4482,1.4152,1.3792,1.3492,1.3492,1.3492,1.3528,1.3717,1.3928,1.4129,1.4317,1.4497,1.4605,1.4605,1.4605,1.4605,1.4605,1.4605,1.4605,1.4605,1.5683,1.6679,1.5733,1.6595,1.7471,1.6601,1.6413,1.6413,1.6413,1.6413,1.6413,1.6413,1.6842,1.7396,1.8011,1.8602,1.9172,1.9721,1.9798,1.9798,1.9798,1.9798,1.9786,1.9798,1.8832,1.7978,1.7461,1.6861,1.65,1.65,1.6993,1.7366,1.7496,1.8008,1.8344,1.85,1.8879,1.9101,1.9101,1.9493,1.9708,1.9708,1.9708,2.0408,0.7625,0.8102,0.8459,0.7556,0.7591,0.7605,0.6852,0.6804,0.6781,0.6225,0.6118,0.6118,0.6118,0.6118,0.6248,0.6637,0.6712,0.0,0.6891,0.7783,0.0,0.7674,0.8184,0.8666,0.8812,0.9028,0.9324,0.9715,1.0258,1.0652,1.0885,1.0828,1.078,1.0847,1.204,1.2845,1.3148,1.44,1.5053,1.5053,1.4874,1.4772,1.4779,1.4958,1.4977,1.4779,1.4849,1.4633,1.4166,1.4026,1.3792,1.3492,1.3492,1.3492,1.3499,1.3572,1.3811,1.4093,1.4173,1.4382,1.4605,1.4605,1.4605,1.4605,1.4605,1.4605,1.4705,1.5275,1.614,1.6816,1.6372,1.6972,1.7471,1.6591,1.6413,1.6413,1.6413,1.6413,1.6413,1.6413,1.6534,1.6965,1.7929,1.8255,1.8724,1.9669,1.9798,1.9798,1.9798,1.9798,1.9798,1.9798,1.9183,1.8519,1.799,1.7074,1.65,1.65,1.7432,1.7937,1.7855,1.8575,1.9064,1.9246,1.9139,1.925,1.9508,1.9654,1.9708,1.9708,2.0168,2.0857,0.0,0.8056,0.8329,0.7655,0.7597,0.7572,0.7144,0.7104,0.7069,0.6643,0.6571,0.6571,0.6571,0.6571,0.6643,0.6904,0.6929,0.7042,0.7345,0.8101,0.8625,0.8615,0.8796,0.9173,0.9834,0.9914,1.0031,1.0362,1.0914,1.1391,1.1643,1.166,1.1405,1.0857,1.2031,1.2802,1.3033,1.4288,1.4842,1.4765,1.4567,1.4511,1.4518,1.4677,1.4655,1.4511,1.4545,1.4355,0.0,1.385,1.3675,1.3492,1.3492,1.3492,1.3528,1.3674,1.3884,1.4129,1.4238,1.4425,1.4605,1.4605,1.4605,1.4605,1.4605,1.4605,1.4713,1.5204,1.5965,1.6579,1.627,1.6822,1.7254,1.6578,1.6413,1.6413,1.6413,1.6413,1.6413,1.6413,1.6413,1.6751,1.7902,1.8093,1.8498,1.9643,1.9798,1.9798,1.9798,1.9798,1.9798,1.9798,1.9309,1.8857,1.8519,1.7677,1.7074,1.6861,1.7839,1.8326,1.8016,1.8855,1.9426,1.9608,1.9431,1.9453,1.9708,1.9708,1.9708,1.9723,2.0393,2.1066,0.0,0.7346,0.7382,0.7346,0.7211,0.7175,0.7536,0.7475,0.0,0.7102,0.7048,0.7048,0.7069,0.7075,0.7087,0.708,0.7073,0.7381,0.8251,0.8251,0.8739,1.0357,0.9892,0.991,1.1165,1.1352,1.1459,1.1655,1.1752,1.1912,1.2264,1.2276,1.2276,1.2359,1.2583,1.3008,1.354,1.4432,1.4721,1.4474,1.4452,1.4438,1.4438,1.446,1.446,1.4423,1.4106,1.4005,1.3923,1.3623,1.3492,1.3492,1.3492,1.3492,1.3564,1.392,1.4093,1.4129,1.4461,1.4569,1.4605,1.4605,1.4605,1.4605,1.4605,1.4641,1.4705,1.4716,1.5454,1.619,1.5716,1.6307,1.6903,1.6487,1.6413,1.6413,1.6413,1.6413,1.6413,1.6413,1.6413,1.6751,1.7902,1.8093,1.8498,1.9643,1.9798,1.9798,1.9798,1.9798,1.9798,1.9798,1.9346,1.9058,1.9058,1.8519,1.799,1.7498,1.8293,1.8574,1.8119,1.8989,1.9531,1.9649,1.9683,1.9708,1.9708,1.9708,1.9708,1.9708,2.0348,2.1002,0.728,0.0,0.8247,0.7729,0.7759,0.7881,0.0,0.7845,0.7902,0.7602,0.7545,0.7616,0.786,0.7925,0.7893,0.7841,0.7829,0.7936,0.8207,0.8977,0.9892,1.0858,1.0777,1.0553,1.0284,1.0825,1.1235,1.1453,1.2144,1.2655,1.2902,1.2875,1.32,1.3936,1.334,1.306,1.3234,1.3892,1.4172,1.4092,1.3843,1.3726,1.3733,1.3982,1.396,1.3733,1.3901,1.3843,1.3601,1.3528,1.3492,1.3492,1.3492,1.3492,1.3492,1.3601,1.3848,1.4093,1.4201,1.4389,1.4605,1.4605,1.4605,1.4605,1.4605,1.5026,1.5562,1.5781,1.6422,1.6976,1.6705,1.6809,1.6903,1.6487,1.6413,1.6413,1.6413,1.6413,1.6413,1.6413,1.6413,1.6751,1.7902,1.8093,1.8498,1.9643,1.9798,1.9798,1.9798,1.9798,1.9798,1.9798,1.9698,1.9623,1.9623,1.8744,1.8154,1.8016,1.898,1.9461,1.9233,1.9894,2.0231,2.0203,1.9871,1.9708,1.9708,1.9708,1.9708,1.9708,1.9854,2.0557,0.7165,0.7836,0.8377,0.8026,0.807,0.8158,0.7975,0.0,0.0,0.0,0.0,0.0,0.8143,0.8202,0.8101,0.7828,0.8145,0.8682,0.9455,0.998,1.0736,1.2041,1.1558,1.1223,1.1521,1.1966,1.2254,1.2368,1.2839,1.3247,1.3509,1.3522,1.3761,1.4245,1.3761,1.3522,1.3522,1.3834,1.3901,1.3755,1.3579,1.3492,1.3499,1.3675,1.366,1.3506,1.3682,1.366,1.3492,1.3492,1.3492,1.3492,1.3492,1.3492,1.3528,1.371,1.392,1.4129,1.4274,1.4461,1.4605,1.4605,1.4605,1.4605,1.4605,1.5409,1.6271,1.6058,1.663,1.7233,1.6887,1.691,1.6903,1.6487,1.6413,1.6413,1.6413,1.6413,1.6413,1.6413,1.6413,1.6751,1.7902,1.8093,1.8498,1.9643,1.9798,1.9798,1.9798,1.9798,1.9798,1.9798,1.9798,1.9798,1.9798,1.9271,1.8832,1.8569,1.9317,1.9744,1.9685,2.0231,2.0546,2.055,1.9997,1.9708,1.9708,1.9708,1.9872,2.0154,2.0154,2.0872,0.7165,0.7756,0.8253,0.8151,0.8165,0.8202,0.8202,0.0,0.0,0.0,0.0,0.0,0.0,0.8377,0.0,0.7877,0.8591,0.9638,1.1002,1.1069,1.1533,1.312,1.2231,1.1966,1.32,1.3419,1.3492,1.3492,1.3492,1.3616,1.3894,1.3909,1.3909,1.3909,1.3909,1.3909,1.3909,1.3909,1.377,1.3492,1.3492,1.3492,1.3492,1.3492,1.3492,1.3492,1.3492,1.3492,1.3492,1.3492,1.3492,1.3492,1.3492,1.3528,1.3601,1.392,1.4093,1.4201,1.4489,1.4605,1.4605,1.4605,1.4605,1.4605,1.4605,1.5683,1.6759,1.614,1.6625,1.7258,1.6784,1.6769,1.681,1.6467,1.6413,1.6413,1.6413,1.6413,1.6413,1.6413,1.6413,1.6722,1.7765,1.8038,1.8471,1.9514,1.9759,1.9798,1.9798,1.9798,1.9798,1.9798,1.9798,1.9798,1.9798,1.9798,1.961,1.9183,1.9515,1.9782,1.9946,2.0549,2.082,2.0699,2.0139,1.9839,1.9839,1.9839,2.0198,2.0838,2.0838,2.1515,0.7384,0.8114,0.848,0.7924,0.7997,0.8202,0.8202,0.0,0.0,0.0,0.0,0.0,0.0,0.919,0.9205,0.9682,1.038,1.0914,1.1178,1.2046,1.2586,1.2492,1.2863,1.2973,1.2526,1.3083,1.3492,1.3492,1.3492,1.3514,1.3565,1.3572,1.3572,1.3572,1.3572,1.3572,1.3572,1.3572,1.3543,1.3492,1.3492,1.3492,1.3492,1.3492,1.3492,1.3492,1.3492,1.3492,1.3492,1.3492,1.3492,1.3492,1.3492,1.3608,1.3754,1.3826,1.4072,1.4389,1.4533,1.4605,1.4605,1.4605,1.4605,1.4605,1.4605,1.5683,1.6862,1.6759,1.7172,1.7533,1.7042,1.672,1.6496,1.6394,1.6413,1.6413,1.6413,1.6413,1.6413,1.6413,1.6413,1.6591,1.724,1.7765,1.8336,1.9028,1.9526,1.9798,1.9798,1.9798,1.9798,1.9798,1.9798,1.9798,1.9798,1.9798,1.9799,1.9838,1.9813,2.0033,2.0616,2.1549,2.163,2.0718,2.0598,2.0557,2.0557,2.0557,2.0902,2.1545,2.1545,2.1949,0.6954,0.7516,0.7953,0.8187,0.8736,0.9182,0.9007,0.8963,0.0,0.0,0.0,0.0,0.0,0.0,1.0218,1.1036,1.1051,1.1209,1.2043,1.2291,1.2514,1.2894,1.29,1.2863,1.2936,1.3273,1.3492,1.3492,1.3492,1.3492,1.3492,1.3492,1.3492,1.3492,1.3492,1.3492,1.3492,1.3492,1.3492,1.3492,1.3492,1.3492,1.3492,1.3492,1.3492,1.3492,1.3492,1.3492,1.3492,1.3492,1.3492,1.3492,1.3492,1.3572,1.3645,1.3891,1.4173,1.4533,1.4569,1.4605,1.4605,1.4605,1.4605,1.4605,1.4605,1.5683,1.6897,1.6897,1.7652,1.835,1.7885,1.744,1.7046,1.6769,1.656,1.6413,1.6413,1.6413,1.6413,1.6413,1.6413,1.6563,1.7101,1.7699,1.8282,1.8907,1.9448,1.9798,1.9798,1.9798,1.9798,1.9798,1.9798,1.9798,1.9798,1.9798,1.9862,1.999,2.0597,2.1065,2.1398,2.212,2.228,2.1784,2.1425,2.1246,2.1246,2.1246,2.1575,2.2239,2.2239,2.2583,0.6844,0.7175,0.7559,0.856,0.0,0.9665,0.9716,0.9614,0.0,0.0,0.0,0.0,0.0,1.0572,1.1063,1.1802,1.1517,1.1652,1.2829,1.2529,1.2519,1.339,1.2973,1.2826,1.3455,1.3492,1.3492,1.3492,1.3492,1.3492,1.3492,1.3492,1.3492,1.3492,1.3492,1.3492,1.3492,1.3492,1.3492,1.3492,1.3492,1.3492,1.3492,1.3492,1.3492,1.3492,1.3492,1.3492,1.3492,1.3492,1.3492,1.3492,1.3492,1.3564,1.3674,1.4057,1.4389,1.4605,1.4605,1.4605,1.4605,1.4605,1.4605,1.4605,1.4605,1.5683,1.6897,1.6897,1.7891,1.8859,1.8507,1.8061,1.7585,1.712,1.6748,1.6508,1.6433,1.6413,1.6413,1.6413,1.6413,1.6563,1.7101,1.7699,1.8282,1.8907,1.9448,1.9798,1.9798,1.9798,1.9798,1.9798,1.9798,1.9798,1.9837,1.9888,2.0016,2.0245,2.1286,2.187,2.1894,2.2549,2.2832,2.2703,2.2209,2.1919,2.1919,2.1919,2.2283,2.2912,2.2912,2.3167,0.7756,0.7895,0.7916,0.8921,0.8736,0.8641,0.9804,0.9621,0.0,1.0338,0.0,0.0,0.0,1.1092,1.1547,1.1613,1.2295,1.2858,1.2966,1.3229,1.3397,1.3492,1.3455,1.3455,1.3492,1.3492,1.3492,1.3492,1.3492,1.3492,1.3492,1.3492,1.3492,1.3492,1.3492,1.3492,1.3492,1.3492,1.3492,1.3492,1.3492,1.3492,1.3492,1.3492,1.3492,1.3492,1.3492,1.3492,1.3492,1.3492,1.3492,1.3492,1.3492,1.3746,1.4093,1.4425,1.4569,1.4605,1.4605,1.4605,1.4605,1.4605,1.4605,1.4605,1.4605,1.5683,1.6897,1.6897,1.7642,1.8455,1.8414,1.8061,1.7585,1.712,1.6986,1.6851,1.6467,1.6413,1.6413,1.6413,1.6413,1.6563,1.7101,1.7699,1.8282,1.8907,1.9448,1.9798,1.9798,1.9798,1.9798,1.9798,1.9798,1.9862,1.999,2.0105,2.0434,2.1066,2.1541,2.1827,2.1894,2.2891,2.321,2.2703,2.2643,2.2628,2.2628,2.2628,2.2942,2.3535,2.3535,2.355,0.7333,0.7632,0.7953,0.8958,0.9131,0.0,0.0,1.0263,1.0542,1.1107,1.1224,0.0,1.145,1.1531,1.1789,1.2398,1.2599,1.2848,1.3258,1.3418,1.3492,1.3492,1.3492,1.3492,1.3492,1.3492,1.3492,1.3492,1.3492,1.3492,1.3492,1.3492,1.3492,1.3492,1.3492,1.3492,1.3492,1.3492,1.3492,1.3492,1.3492,1.3492,1.3492,1.3492,1.3492,1.3492,1.3492,1.3492,1.3492,1.3492,1.3492,1.3499,1.3645,1.3855,1.4129,1.4389,1.4533,1.4605,1.4605,1.4605,1.4605,1.4605,1.4605,1.4605,1.4605,1.5487,1.6541,1.6824,1.7613,1.8476,1.8766,1.8061,1.7296,1.742,1.7006,1.6581,1.6444,1.6413,1.6413,1.6413,1.6413,1.6459,1.6666,1.7473,1.8174,1.8402,1.9226,1.9798,1.9798,1.9798,1.9798,1.9798,1.9798,1.9837,1.9862,2.0067,2.0296,2.056,2.1455,2.2142,2.2512,2.3201,2.3462,2.3251,2.3251,2.3251,2.3251,2.3251,2.337,2.3595,2.3595,2.3595,0.7238,0.7603,0.8077,0.898,0.0,0.0,1.0133,1.0602,1.11,1.1635,1.1665,1.1694,1.1945,1.1772,1.1877,1.2716,1.2753,1.287,1.3418,1.3492,1.3492,1.3492,1.3492,1.3492,1.3492,1.3492,1.3492,1.3492,1.3492,1.3492,1.3492,1.3492,1.3492,1.3492,1.3492,1.3492,1.3492,1.3492,1.3492,1.3492,1.3492,1.3492,1.3492,1.3492,1.3492,1.3492,1.3492,1.3492,1.3492,1.3492,1.3492,1.3535,1.3783,1.3992,1.4129,1.4353,1.4533,1.4605,1.4605,1.4605,1.4641,1.4883,1.4991,1.5002,1.5091,1.5763,1.6585,1.6777,1.7344,1.8071,1.8526,1.8061,1.744,1.7471,1.7006,1.655,1.6444,1.6413,1.6413,1.6413,1.6413,1.6459,1.6609,1.7446,1.8147,1.8348,1.92,1.9798,1.9798,1.9798,1.9798,1.9798,1.9798,1.9824,1.9914,2.0093,2.0372,2.0771,2.1633,2.2244,2.2626,2.3253,2.3595,2.3595,2.3595,2.3595,2.3595,2.3595,2.3595,2.3595,2.3595,2.3595,0.7663,0.7953,0.8363,0.9031,0.0,0.0,1.0403,1.0587,1.0865,1.1799,1.1787,1.1694,1.1945,1.178,1.1811,1.2423,1.2797,1.3126,1.3448,1.3492,1.3492,1.3492,1.3492,1.3492,1.3492,1.3492,1.3492,1.3492,1.3492,1.3492,1.3492,1.3492,1.3492,1.3492,1.3492,1.3492,1.3492,1.3492,1.3492,1.3492,1.3492,1.3492,1.3492,1.3492,1.3492,1.3492,1.3492,1.3492,1.3492,1.3492,1.3492,1.3528,1.3956,1.4093,1.4129,1.4497,1.4605,1.4605,1.4605,1.4605,1.474,1.5542,1.5789,1.5852,1.6107,1.6713,1.7184,1.6724,1.6778,1.712,1.7575,1.804,1.8143,1.7223,1.7006,1.6893,1.6477,1.6413,1.6413,1.6413,1.6413,1.6563,1.7101,1.7699,1.8282,1.8907,1.9448,1.9798,1.9798,1.9798,1.9798,1.9798,1.9798,1.9914,2.0182,2.0207,2.0734,2.2011,2.2081,2.2105,2.2105,2.3061,2.3595,2.3595,2.3595,2.3595,2.3595,2.3595,2.3595,2.3595,2.3595,2.3595,0.7326,0.7896,0.0,0.8811,0.0,0.0,0.0,1.0587,0.0,0.0,1.193,1.1992,1.2288,1.2299,1.2372,1.2797,1.2943,1.3126,1.3448,1.3492,1.3492,1.3492,1.3492,1.3492,1.3492,1.3492,1.3492,1.3492,1.3492,1.3492,1.3492,1.3492,1.3492,1.3492,1.3492,1.3492,1.3492,1.3492,1.3492,1.3492,1.3492,1.3492,1.3492,1.3492,1.3492,1.3492,1.3492,1.3492,1.3492,1.3492,1.3492,1.3528,1.3956,1.4093,1.4129,1.4497,1.4955,1.5444,1.5444,1.5268,1.5145,1.5864,1.5578,1.5041,1.5537,1.5985,1.6371,1.6558,1.6778,1.7048,1.7182,1.7306,1.7347,1.7079,1.6769,1.6539,1.6444,1.6413,1.6413,1.6413,1.6413,1.6459,1.662,1.7446,1.8147,1.8348,1.9188,1.9798,1.9798,1.9798,1.9798,1.9798,1.9888,1.9978,2.0042,2.0271,2.0574,2.0959,2.1694,2.2429,2.312,2.3443,2.3595,2.3595,2.3595,2.3595,2.3595,2.3595,2.3595,2.3595,2.3595,2.3595,0.7716,0.8486,0.0,0.9409,1.017,1.0924,1.099,0.0,0.0,0.0,1.239,1.2448,1.2645,1.2716,1.2747,1.298,1.3119,1.3272,1.347,1.3492,1.3492,1.3492,1.3492,1.3492,1.3492,1.3492,1.3492,1.3492,1.3492,1.3492,1.3492,1.3492,1.3492,1.3492,1.3492,1.3492,1.3492,1.3492,1.3492,1.3492,1.3492,1.3492,1.3492,1.3492,1.3492,1.3492,1.3492,1.3492,1.3492,1.3492,1.3492,1.3528,1.3956,1.4093,1.4129,1.4497,1.483,1.5156,1.5436,1.5283,1.5125,1.6043,1.591,1.5487,1.5933,1.6219,1.6347,1.6497,1.6647,1.6748,1.6748,1.6748,1.6748,1.6748,1.657,1.6413,1.6413,1.6413,1.6413,1.6413,1.6413,1.6413,1.6413,1.7346,1.8093,1.8093,1.9083,1.9798,1.9798,1.9798,1.9798,1.9798,1.9926,2.0016,2.0067,2.0322,2.0612,2.0848,2.1647,2.2475,2.329,2.3508,2.3595,2.3595,2.3595,2.3595,2.3595,2.3595,2.3595,2.3595,2.3595,2.3595,0.8418,0.927,1.0097,1.0419,1.0565,0.0,1.1489,1.208,1.2614,1.2943,1.3009,1.3016,1.3045,1.3053,1.3053,1.3053,1.3301,1.3492,1.3492,1.3492,1.3492,1.3492,1.3492,1.3492,1.3492,1.3492,1.3492,1.3492,1.3492,1.3492,1.3492,1.3492,1.3492,1.3492,1.3492,1.3492,1.3492,1.3492,1.3492,1.3492,1.3492,1.3492,1.3492,1.3492,1.3492,1.3492,1.3492,1.3492,1.3492,1.3492,1.3492,1.3528,1.3882,1.4047,1.4083,1.4446,1.4444,1.4336,1.501,1.5022,1.4962,1.6224,1.6582,1.6547,1.6848,1.6955,1.6872,1.6498,1.6413,1.6413,1.6413,1.6413,1.6413,1.6413,1.6413,1.6413,1.6413,1.6413,1.6413,1.6413,1.6413,1.6413,1.6413,1.7346,1.8147,1.8255,1.9135,1.9798,1.9798,1.9798,1.9798,1.9837,1.9926,2.0067,2.0207,2.041,2.0749,2.1302,2.1813,2.2314,2.2822,2.3334,2.3595,2.3595,2.3595,2.3595,2.3595,2.3595,2.3595,2.3595,2.3595,2.3595,0.746,0.8352,0.0,0.9746,1.0404,1.1136,1.1755,1.2207,1.2614,1.2943,1.3009,1.3082,1.3345,1.3389,1.3389,1.3389,1.3448,1.3492,1.3492,1.3492,1.3492,1.3492,1.3492,1.3492,1.3492,1.3492,1.3492,1.3492,1.3492,1.3492,1.3492,1.3492,1.3492,1.3492,1.3492,1.3492,1.3492,1.3492,1.3492,1.3492,1.3492,1.3492,1.3492,1.3492,1.3492,1.3492,1.3492,1.3492,1.3492,1.3492,1.3492,1.3506,1.3605,1.364,1.3715,1.4343,1.4929,1.545,1.6071,1.6062,1.5915,1.6658,1.6357,1.5753,1.6337,1.6529,1.6498,1.6433,1.6413,1.6413,1.6413,1.6413,1.6413,1.6413,1.6413,1.6413,1.6413,1.6413,1.6413,1.6413,1.6413,1.6413,1.6413,1.7346,1.839,1.9293,1.9643,1.9798,1.9798,1.9798,1.9837,1.9952,2.008,2.0233,2.0423,2.0587,2.0699,2.0848,2.1647,2.2151,2.2267,2.312,2.3595,2.3595,2.3595,2.3595,2.3595,2.3595,2.3595,2.3595,2.3595,2.3595,0.7645,0.0,0.0,1.0389,0.0,1.1619,1.1923,1.2251,1.2536,1.2704,1.3023,1.3294,1.3462,1.3492,1.3492,1.3492,1.3492,1.3492,1.3492,1.3492,1.3492,1.3492,1.3492,1.3492,1.3492,1.3492,1.3492,1.3492,1.3492,1.3492,1.3492,1.3492,1.3492,1.3492,1.3345,1.3265,1.3265,1.3104,1.3031,1.3031,1.3031,1.3031,1.3031,1.3192,1.3265,1.325,1.3097,1.3031,1.3031,1.3031,1.3031,1.3051,1.3228,1.3496,1.3805,1.4404,1.4933,1.5458,1.6067,1.6043,1.5871,1.651,1.6318,1.5951,1.6288,1.6413,1.6413,1.6413,1.6413,1.6413,1.6413,1.6413,1.6413,1.6413,1.6413,1.6413,1.6413,1.6413,1.6413,1.6413,1.6413,1.6413,1.6413,1.7346,1.8498,1.9643,1.9798,1.9798,1.9798,1.9862,1.9926,1.999,2.022,2.0385,2.0486,2.0612,2.0699,2.0699,2.1385,2.186,2.2081,2.2852,2.3377,2.361,2.3595,2.3595,2.3595,2.3595,2.3595,2.3595,2.3595,2.3595,0.7887,0.0,1.0012,1.115,1.1633,0.0,1.1908,1.2171,1.2404,1.2404,1.2914,1.3345,1.3404,1.3411,1.3433,1.3484,1.3492,1.3492,1.3492,1.3492,1.3492,1.3492,1.3492,1.3492,1.3492,1.3492,1.3492,1.3492,1.3492,1.347,1.3411,1.3411,1.3389,1.3331,1.3067,1.2921,1.2921,1.2658,1.2485,1.2485,1.2485,1.2485,1.2499,1.2745,1.287,1.2914,1.2602,1.2485,1.2485,1.2485,1.2485,1.2519,1.287,1.3372,1.3975,1.4429,1.4777,1.5158,1.5766,1.5802,1.5652,1.623,1.6413,1.6413,1.6413,1.6413,1.6413,1.6413,1.6413,1.6413,1.6413,1.6413,1.6413,1.6413,1.6413,1.6413,1.6413,1.6413,1.6413,1.6413,1.6477,1.6563,1.6676,1.7567,1.8605,1.9682,1.9798,1.9837,1.985,1.9952,2.0016,2.0067,2.0334,2.0511,2.0537,2.0637,2.0699,2.0699,2.1131,2.1612,2.2081,2.2626,2.3113,2.3595,2.3595,2.3595,2.3595,2.3595,2.3595,2.3595,2.3595,2.3595,0.6637,0.0,0.9376,0.0,1.0997,1.1305,0.0,0.0,1.2069,1.2069,1.2361,1.2738,1.3023,1.3075,1.317,1.3448,1.3492,1.3492,1.3492,1.3492,1.3492,1.3492,1.3492,1.3492,1.3492,1.3492,1.3492,1.3492,1.3492,1.3375,1.3089,1.3075,1.2943,1.2623,1.258,1.2584,1.2584,1.2507,1.2485,1.2485,1.2485,1.2485,1.2477,1.2244,1.2288,1.255,1.2507,1.2485,1.2485,1.2485,1.2485,1.2497,1.2573,1.297,1.365,1.4267,1.4866,1.5439,1.61,1.6311,1.6288,1.6374,1.6413,1.6413,1.6413,1.6413,1.6413,1.6413,1.6413,1.6413,1.6413,1.6413,1.6413,1.6413,1.6413,1.6413,1.6413,1.6413,1.6413,1.6413,1.6768,1.7268,1.7765,1.8429,1.9146,1.9849,1.9862,1.9888,2.0131,2.0054,2.0118,2.041,2.0461,2.0537,2.0662,2.0687,2.0699,2.0699,2.1131,2.1612,2.2081,2.2626,2.3113,2.3595,2.3595,2.3595,2.3595,2.3595,2.3595,2.3595,2.3595,2.3595,0.7461,0.8635,0.9717,0.0,1.1136,1.1371,1.1327,1.1569,1.1772,1.1772,1.1882,1.2138,1.2643,1.2738,1.284,1.317,1.3221,1.3287,1.347,1.3338,1.3287,1.3477,1.317,1.3097,1.3455,1.3331,1.3221,1.3221,1.3221,1.3082,1.2753,1.2738,1.2638,1.2492,1.231,1.2215,1.2215,1.2072,1.1984,1.1984,1.1984,1.1984,1.1977,1.1838,1.1948,1.2207,1.2058,1.1984,1.1984,1.1984,1.1984,1.2067,1.257,1.3186,1.3869,1.4703,1.542,1.599,1.6288,1.6413,1.6413,1.6413,1.6413,1.6413,1.6413,1.6413,1.6413,1.6413,1.6413,1.6413,1.6413,1.6413,1.6413,1.6413,1.6413,1.6413,1.6413,1.6413,1.6413,1.6413,1.6842,1.7396,1.8011,1.8602,1.9225,1.9913,1.9901,1.9862,2.0054,2.0042,2.0067,2.0195,2.0385,2.0511,2.0587,2.0662,2.0699,2.0699,2.1131,2.1612,2.2081,2.2626,2.3113,2.3595,2.3595,2.3595,2.3595,2.3595,2.3595,2.3595,2.3595,2.3595,0.0,0.0,0.948,1.0523,1.1047,1.1297,0.0,1.1415,1.1591,1.1591,1.1591,1.1738,1.2189,1.2343,1.247,1.2833,1.2884,1.2965,1.3214,1.3038,1.298,1.3221,1.2819,1.2716,1.3199,1.3031,1.2884,1.2884,1.2884,1.2738,1.2383,1.2368,1.2324,1.2277,1.2043,1.1886,1.1886,1.1709,1.1591,1.1591,1.1591,1.1591,1.1591,1.1591,1.1723,1.1904,1.1694,1.1591,1.1591,1.1591,1.1591,1.1685,1.2474,1.3282,1.4085,1.4874,1.5681,1.6413,1.6413,1.6413,1.6413,1.6413,1.6413,1.6413,1.6413,1.6413,1.6413,1.6413,1.6413,1.6413,1.6413,1.6413,1.6413,1.6413,1.6413,1.6413,1.6413,1.6413,1.6413,1.6413,1.6955,1.7562,1.8011,1.8697,1.9408,1.9965,1.9952,1.9914,2.0093,2.0093,2.0042,2.0042,2.0334,2.0486,2.0486,2.0612,2.0699,2.0699,2.1131,2.1612,2.2081,2.2626,2.3113,2.3595,2.3595,2.3595,2.3595,2.3595,2.3595,2.3595,2.3595,2.3595,0.0,0.7121,0.0,0.953,1.0207,1.0653,1.1399,1.1584,1.1591,1.1591,1.1591,1.1606,1.1635,1.186,1.2135,1.2456,1.2548,1.2521,1.2536,1.2521,1.2521,1.2536,1.2507,1.2499,1.2536,1.2521,1.2548,1.2548,1.2548,1.2368,1.2047,1.2025,1.1919,1.165,1.1628,1.1613,1.1613,1.1599,1.1591,1.1591,1.1591,1.1591,1.1591,1.1591,1.1599,1.1613,1.1599,1.1591,1.1591,1.1591,1.1591,1.1654,1.1996,1.2895,1.4025,1.4401,1.5332,1.6413,1.6413,1.6413,1.6413,1.6413,1.6413,1.6413,1.6413,1.6413,1.6413,1.6413,1.6413,1.6413,1.6413,1.6413,1.6413,1.6413,1.6413,1.6413,1.6413,1.6413,1.6413,1.6413,1.729,1.8066,1.8093,1.903,1.9862,2.0156,2.0093,2.0118,2.0436,2.0322,2.0182,2.0182,2.0372,2.0486,2.0486,2.0612,2.0699,2.0699,2.1131,2.1612,2.2081,2.2626,2.3113,2.3595,2.3595,2.3595,2.3595,2.3595,2.3595,2.3595,2.3595,2.3595,0.0,0.0,0.0,0.8979,0.9801,1.048,1.0769,1.123,1.1591,1.1591,1.1591,1.1591,1.1591,1.1687,1.1838,1.2127,1.2178,1.2251,1.2456,1.231,1.2251,1.2463,1.216,1.2065,1.2448,1.2435,1.231,1.2178,1.231,1.2203,1.1782,1.1728,1.1709,1.1599,1.1591,1.1591,1.1591,1.1591,1.1591,1.1591,1.1973,1.1973,1.1622,1.2011,1.1981,1.1591,1.1591,1.1591,1.1591,1.1591,1.1654,1.1833,1.2895,1.3644,1.4273,1.5332,1.6019,1.6413,1.6413,1.6413,1.6413,1.6413,1.6413,1.6413,1.6413,1.6413,1.6413,1.6413,1.6413,1.6413,1.6413,1.6413,1.6413,1.6413,1.6413,1.6413,1.6413,1.6413,1.6413,1.6413,1.7318,1.8093,1.8093,1.9056,1.9875,2.0156,2.008,2.0118,2.0461,2.0246,2.0067,2.0067,2.0144,2.022,2.0296,2.0486,2.0724,2.1106,2.1589,2.2072,2.2581,2.3076,2.3421,2.3595,2.3595,2.3595,2.3595,2.3595,2.3595,2.3595,2.3595,2.3595,0.637,0.0,0.0,0.0,0.9297,0.9972,1.0422,1.1002,1.143,1.143,1.1518,1.1591,1.1591,1.1591,1.1657,1.1838,1.1875,1.1948,1.2167,1.2014,1.1955,1.2175,1.1855,1.176,1.216,1.2168,1.2074,1.1939,1.2067,1.2009,1.1692,1.1622,1.1591,1.1591,1.1591,1.1591,1.1591,1.1591,1.1591,1.1622,1.2212,1.2305,1.1919,1.2551,1.262,1.2228,1.2011,1.1802,1.1591,1.1591,1.1685,1.1926,1.3191,1.3876,1.4353,1.5594,1.6202,1.6413,1.6413,1.6413,1.6413,1.6413,1.6413,1.6413,1.6413,1.6413,1.6413,1.6413,1.6413,1.6413,1.6413,1.6413,1.6413,1.6413,1.6413,1.6459,1.6637,1.6534,1.6459,1.6637,1.7446,1.8147,1.8375,1.9226,1.9939,2.0182,2.0195,2.0258,2.0461,2.0309,2.0144,2.0067,2.0118,2.0195,2.0296,2.0448,2.0799,2.135,2.1837,2.2337,2.2889,2.3355,2.3595,2.3595,2.3595,2.3595,2.3595,2.3595,2.3595,2.3595,2.3595,2.3595,0.0,0.0,0.0,0.0,0.8679,0.9134,1.0436,1.09,1.107,1.11,1.1349,1.1569,1.1591,1.1591,1.1591,1.1591,1.1591,1.1591,1.1591,1.1591,1.1591,1.1591,1.1591,1.1591,1.1591,1.1716,1.1809,1.1802,1.1809,1.1809,1.1802,1.1685,1.1591,1.1591,1.1591,1.1591,1.1591,1.1591,1.1622,1.1622,1.2243,1.2543,1.2543,1.323,1.3511,1.3472,1.2826,1.2182,1.1654,1.1622,1.1716,1.1957,1.2734,1.3545,1.4332,1.5138,1.5836,1.6413,1.6413,1.6413,1.6413,1.6413,1.6413,1.6413,1.6413,1.6413,1.6413,1.6413,1.6413,1.6413,1.6413,1.6413,1.6413,1.6413,1.6402,1.6563,1.7101,1.6825,1.6591,1.7129,1.7699,1.8321,1.8907,1.9577,2.0042,2.0182,2.0372,2.0486,2.0486,2.0486,2.0436,2.0233,2.0372,2.0486,2.0486,2.0637,2.0923,2.1399,2.186,2.236,2.2889,2.3355,2.3595,2.3595,2.3595,2.3595,2.3595,2.3595,2.3595,2.3595,2.3595,2.3595,0.611,0.0,0.0,0.0,0.0,0.0,0.9283,0.9715,1.0221,1.096,1.099,1.1034,1.1503,1.1591,1.1591,1.1591,1.1591,1.1591,1.1591,1.1591,1.1591,1.1591,1.1591,1.1591,1.1591,1.184,1.1965,1.1809,1.1934,1.1965,1.1809,1.1685,1.1591,1.1591,1.1591,1.1591,1.1591,1.1591,1.1833,1.2274,1.2917,1.323,1.326,1.3923,1.3962,1.3472,1.329,1.3139,1.2926,1.2458,1.2612,1.326,1.4055,1.459,1.5021,1.5836,1.623,1.6413,1.6413,1.6413,1.6413,1.6413,1.6413,1.6413,1.6413,1.6413,1.6413,1.6413,1.6413,1.6413,1.6413,1.6413,1.6413,1.6413,1.6694,1.7028,1.7174,1.7435,1.7667,1.782,1.8348,1.8789,1.896,1.9577,2.0016,2.0042,2.0309,2.0486,2.0486,2.0486,2.0486,2.0423,2.0347,2.0347,2.0486,2.0847,2.131,2.186,2.2397,2.2897,2.3399,2.353,2.3595,2.3595,2.3595,2.3595,2.3595,2.3595,2.3595,2.3595,2.3595,2.3595,0.6472,0.6787,0.0,0.7204,0.0,0.0,0.888,0.9303,0.9766,1.0528,1.0652,1.0733,1.1114,1.1298,1.1386,1.1386,1.1503,1.1591,1.1591,1.1591,1.1591,1.1591,1.1591,1.1591,1.1591,1.2081,1.2266,1.1965,1.2205,1.2205,1.1747,1.1654,1.1591,1.1591,1.1591,1.1591,1.1591,1.1591,1.1888,1.2512,1.3169,1.3662,1.3932,1.4579,1.4677,1.4282,1.4013,1.4043,1.4252,1.3606,1.3463,1.3773,1.459,1.5011,1.5294,1.6105,1.6413,1.6413,1.6413,1.6413,1.6413,1.6413,1.6413,1.6413,1.6413,1.6413,1.6413,1.6413,1.6413,1.6413,1.6413,1.6563,1.6694,1.6459,1.7011,1.7589,1.7589,1.8038,1.8483,1.8483,1.8762,1.9066,1.9291,1.9746,2.0093,2.0093,2.0372,2.0587,2.0587,2.0587,2.0587,2.0587,2.0473,2.0473,2.0587,2.1019,2.1527,2.2058,2.2603,2.3113,2.3573,2.3595,2.3595,2.3595,2.3595,2.3595,2.3595,2.3595,2.3595,2.3595,2.3595,2.3595,0.6908,0.7142,0.0,0.7822,0.7828,0.0,0.8864,0.9214,0.9484,0.9902,1.0199,1.0411,1.0542,1.0799,1.1004,1.1041,1.1388,1.164,1.1584,1.1654,1.1709,1.1709,1.1709,1.1709,1.1709,1.2374,1.262,1.2243,1.2589,1.2528,1.1833,1.1747,1.174,1.1809,1.1809,1.1809,1.1809,1.1809,1.2135,1.2726,1.3321,1.3962,1.4617,1.5147,1.541,1.5381,1.4824,1.4913,1.5352,1.4824,1.4312,1.3953,1.4708,1.5128,1.5381,1.6105,1.6413,1.6413,1.6413,1.6413,1.6413,1.6413,1.6413,1.6413,1.6413,1.6413,1.6413,1.6413,1.6413,1.6413,1.6413,1.6786,1.7073,1.6609,1.7374,1.8201,1.8201,1.8682,1.9093,1.9093,1.9093,1.9251,1.9721,2.0016,2.0182,2.0182,2.0473,2.0687,2.0687,2.0687,2.0699,2.0699,2.0699,2.0699,2.0699,2.118,2.166,2.2058,2.2649,2.3157,2.3573,2.3595,2.3595,2.3595,2.3595,2.3595,2.3595,2.3595,2.3595,2.3595,2.3595,2.3595,0.7739,0.7732,0.7796,0.7684,0.7994,0.0,0.8129,0.8341,0.8737,0.912,0.914,0.9292,1.006,1.0243,1.0375,1.0638,1.1395,1.1858,1.1617,1.2011,1.2336,1.2336,1.2336,1.2336,1.2336,1.2612,1.2803,1.2834,1.2917,1.3017,1.3117,1.2612,1.2581,1.3108,1.3117,1.3117,1.3117,1.3117,1.3472,1.4103,1.4222,1.4647,1.5235,1.5352,1.541,1.5381,1.5264,1.5294,1.5381,1.5264,1.5147,1.5118,1.5546,1.573,1.5827,1.623,1.6413,1.6413,1.6413,1.6413,1.6413,1.6413,1.6413,1.6413,1.6413,1.6413,1.6413,1.6413,1.6413,1.6413,1.6413,1.6786,1.7174,1.7073,1.7957,1.8827,1.8827,1.9265,1.9656,1.9656,1.9656,1.9682,1.9773,2.0016,2.0156,2.0067,2.0423,2.0662,2.0537,2.0637,2.0699,2.0699,2.0699,2.0699,2.0699,2.1492,2.1988,2.2081,2.2965,2.3508,2.3595,2.3595,2.3595,2.3595,2.3595,2.3595,2.3595,2.3595,2.3595,2.3595,2.3595,2.3595,0.827,0.8257,0.833,0.8225,0.8331,0.0,0.0,0.8311,0.8403,0.8983,0.8836,0.8796,0.9401,0.9693,0.9907,1.0075,1.1015,1.1552,1.1175,1.2185,1.3009,1.3009,1.3009,1.2879,1.2543,1.2887,1.3169,1.323,1.3039,1.3078,1.348,1.3169,1.3161,1.3472,1.3511,1.3511,1.3511,1.3511,1.3842,1.4499,1.4499,1.4824,1.541,1.541,1.541,1.541,1.541,1.541,1.541,1.541,1.541,1.5439,1.5759,1.5885,1.5943,1.6288,1.6413,1.6413,1.6413,1.6413,1.6413,1.6413,1.6413,1.6413,1.6413,1.6413,1.6413,1.6413,1.6413,1.6459,1.674,1.7224,1.7644,1.7644,1.8551,1.933,1.9066,1.9422,1.9798,1.9798,1.9798,1.9798,1.9798,2.0016,2.0182,2.0105,2.0448,2.0687,2.0612,2.0662,2.0699,2.0699,2.0699,2.0699,2.0699,2.1551,2.2105,2.2105,2.3039,2.3595,2.3595,2.3595,2.3595,2.3595,2.3595,2.3595,2.3595,2.3595,2.3595,2.3595,2.3595,2.3595,0.8771,0.8798,0.8958,0.8905,0.8758,0.8696,0.0,0.0,0.0,0.8934,0.876,0.8592,0.8908,0.9224,0.9478,0.9614,1.062,1.1273,1.0956,1.2464,1.3522,1.3241,1.3219,1.3033,1.2535,1.2975,1.3408,1.3674,1.3215,1.319,1.3825,1.3752,1.3743,1.3863,1.3863,1.3863,1.3863,1.3863,1.4133,1.4677,1.4677,1.4942,1.541,1.541,1.541,1.541,1.541,1.541,1.541,1.541,1.541,1.5439,1.5759,1.5885,1.5943,1.6288,1.6413,1.6413,1.6413,1.6413,1.6413,1.6413,1.6413,1.6413,1.6413,1.6413,1.6413,1.6413,1.6413,1.6506,1.7073,1.7644,1.812,1.8267,1.9056,1.9669,1.9239,1.95,1.9798,1.9798,1.9798,1.9798,1.9798,1.9991,2.0182,2.0207,2.0473,2.0687,2.0699,2.0699,2.0699,2.0699,2.0699,2.0699,2.0699,2.1551,2.2105,2.2105,2.3039,2.3595,2.3595,2.3595,2.3595,2.3595,2.3595,2.3595,2.3595,2.3595,2.3595,2.3595,2.3595,2.3638,0.9619,0.9588,0.9519,0.9231,0.9365,0.9367,0.8642,0.0,0.8801,0.8473,0.0,0.8623,0.9084,0.0,0.0,0.9678,1.0698,1.1506,1.1878,1.313,1.358,1.2329,1.2164,1.2254,1.248,1.253,1.3051,1.4296,1.3734,1.3858,1.5129,1.4677,1.4647,1.5177,1.5167,1.5167,1.5167,1.5167,1.5235,1.5294,1.5294,1.5323,1.541,1.541,1.541,1.541,1.541,1.541,1.541,1.541,1.541,1.5439,1.5759,1.5885,1.5943,1.6288,1.6413,1.6413,1.6413,1.6413,1.6413,1.6413,1.6413,1.6413,1.6413,1.6413,1.6413,1.6413,1.6413,1.6506,1.7073,1.7644,1.8228,1.8762,1.937,1.9773,1.9721,1.9759,1.9798,1.9798,1.9798,1.9798,1.9798,1.9914,2.0067,2.0182,2.0372,2.0562,2.0687,2.0699,2.0699,2.0699,2.0699,2.0699,2.0699,2.1551,2.2105,2.2105,2.3039,2.3595,2.3595,2.3595,2.3595,2.3595,2.3595,2.3595,2.3595,2.3595,2.3595,2.3595,2.3595,2.3824,0.9766,0.9715,0.9653,0.9526,0.9459,0.9304,0.8958,0.8984,0.912,0.9159,0.0,0.0,0.0,0.0,0.0,0.0,1.0582,1.1024,1.0907,1.1645,1.2435,1.313,1.3229,1.3011,1.2489,1.1855,1.2078,1.3526,1.3412,1.3886,1.5303,1.5147,1.5147,1.5381,1.541,1.541,1.541,1.541,1.541,1.541,1.541,1.541,1.541,1.541,1.541,1.541,1.541,1.541,1.541,1.541,1.541,1.5439,1.5759,1.5885,1.5943,1.6288,1.6413,1.6413,1.6413,1.6413,1.6413,1.6413,1.6413,1.6413,1.6413,1.6413,1.6413,1.6413,1.6413,1.6591,1.749,1.7902,1.8336,1.9253,1.9656,1.9798,1.9798,1.9798,1.9798,1.9798,1.9798,1.9798,1.9798,1.9926,2.0042,2.0182,2.0372,2.0537,2.0687,2.0699,2.0699,2.0699,2.0699,2.0799,2.1082,2.1718,2.2221,2.2535,2.3209,2.3595,2.3595,2.3595,2.3595,2.3595,2.3595,2.3595,2.3595,2.3595,2.3595,2.3595,2.3888,2.4114,1.0037,0.9956,0.9916,0.9755,0.9519,0.9291,0.9131,0.9135,0.934,0.9859,1.0105,0.0,0.0,0.0,1.0423,0.0,0.0,1.0691,1.0308,1.0698,1.1593,1.3093,1.347,1.325,1.2436,1.1504,1.1539,1.295,1.2969,1.36,1.5147,1.5244,1.5293,1.541,1.541,1.541,1.541,1.541,1.541,1.541,1.541,1.541,1.541,1.541,1.541,1.541,1.541,1.541,1.541,1.541,1.541,1.5439,1.5759,1.5885,1.5943,1.6288,1.6413,1.6413,1.6413,1.6413,1.6413,1.6413,1.6413,1.6413,1.6413,1.6413,1.6413,1.6413,1.6413,1.6648,1.7804,1.8093,1.839,1.954,1.9798,1.9798,1.9798,1.9798,1.9798,1.9798,1.9798,1.9798,1.9798,1.9888,2.0003,2.0182,2.0322,2.0486,2.0687,2.0699,2.0699,2.0699,2.0823,2.1033,2.1375,2.1955,2.2558,2.3068,2.3399,2.3595,2.3595,2.3595,2.3595,2.3595,2.3595,2.3595,2.3595,2.3595,2.3595,2.3595,2.4078,2.4472,1.064,1.0566,1.0425,0.9856,0.9708,0.9519,0.8951,0.9025,0.9425,1.0226,1.0753,1.1186,1.1584,1.1499,0.0,0.0,0.0,0.0,0.0,1.1277,1.1492,1.1232,1.183,1.2244,1.2217,1.164,1.1812,1.3095,1.2603,1.3003,1.4745,1.4805,1.499,1.54,1.541,1.541,1.541,1.541,1.541,1.541,1.541,1.541,1.541,1.541,1.541,1.541,1.541,1.541,1.541,1.541,1.541,1.5439,1.5759,1.5885,1.5943,1.6288,1.6413,1.6413,1.6413,1.6413,1.6413,1.6413,1.6413,1.6413,1.6413,1.6413,1.6413,1.6413,1.6413,1.6648,1.7804,1.8093,1.839,1.954,1.9798,1.9798,1.9798,1.9798,1.9798,1.9798,1.9798,1.9798,1.9798,1.9798,1.9914,2.0156,2.0207,2.0334,2.0649,2.0699,2.0699,2.0699,2.1106,2.1375,2.1399,2.2319,2.3068,2.3551,2.3595,2.3595,2.3595,2.3595,2.3595,2.3595,2.3595,2.3595,2.3595,2.3595,2.3595,2.3595,2.4078,2.4891,1.1109,1.0995,1.0787,1.0392,1.0409,1.0356,0.9789,1.0016,1.0443,1.0794,1.1266,1.1795,1.2267,1.2059,0.0,0.0,0.0,0.0,0.0,1.1035,1.1082,1.0988,1.1152,1.1261,1.1261,1.1093,1.1396,1.2406,1.2582,1.3154,1.427,1.4629,1.4844,1.499,1.5264,1.541,1.541,1.541,1.541,1.541,1.541,1.541,1.541,1.541,1.541,1.541,1.541,1.541,1.541,1.541,1.541,1.541,1.5672,1.5827,1.5943,1.6288,1.6413,1.6413,1.6413,1.6413,1.6413,1.6413,1.6413,1.6413,1.6413,1.6413,1.6459,1.6842,1.6916,1.7196,1.8375,1.8709,1.8895,1.9618,1.9798,1.9798,1.9798,1.9798,1.9798,1.9798,1.9798,1.9798,1.9798,1.9798,1.9875,2.0156,2.0207,2.0309,2.0649,2.0699,2.0699,2.0699,2.1106,2.153,2.1837,2.2785,2.3421,2.3595,2.3595,2.3595,2.3595,2.3595,2.3595,2.3595,2.3595,2.3595,2.3595,2.3595,2.4008,2.4793,2.4735,2.5177,1.1403,1.1255,1.1109,1.0885,1.0877,1.0866,1.0616,1.0861,1.1246,1.1704,1.221,1.2671,1.3119,1.2883,1.2597,0.0,0.0,0.0,0.0,1.0781,1.0684,1.0684,1.0915,1.1148,1.1275,1.1022,1.1279,1.2307,1.2421,1.2852,1.3831,1.4316,1.4629,1.4775,1.5195,1.541,1.541,1.541,1.541,1.541,1.541,1.541,1.541,1.541,1.541,1.541,1.541,1.541,1.541,1.541,1.541,1.541,1.5614,1.5769,1.5914,1.6202,1.6345,1.6413,1.6413,1.6413,1.6413,1.6413,1.6413,1.6431,1.6637,1.6684,1.6797,1.7352,1.7506,1.7754,1.8735,1.8987,1.9146,1.9669,1.9798,1.9798,1.9798,1.9798,1.9798,1.9798,1.9798,1.9798,1.9798,1.9798,1.9862,2.0105,2.0182,2.0309,2.0587,2.0687,2.0699,2.0699,2.1264,2.1908,2.2589,2.3231,2.3595,2.3595,2.3595,2.3595,2.3595,2.3595,2.3595,2.3595,2.3595,2.3729,2.3969,2.3866,2.4365,2.5367,2.5194,2.5504]}]]